[[{"header":{"parameterUnit":"m.s-1","parameterCategory":1,"la1":30.6,"la2":29.2853,"lo1":-89.7004,"lo2":-87.6739,"dy":0.0162,"dx":0.0183,"nx":112,"ny":82,"refTime":"2024-06-12T18:00:00:Z","depth":0,"parameterNumber":2,"parameterNumberName":"U-component_of_WINDS"},"data":[0.0,0.0,0.0,0.0,0.0,0.0,0.0,0.0,0.0,0.0,0.0,0.0,0.0,0.0,0.0,0.0,0.0,0.0,0.0,0.0,0.0,0.0,0.0,0.0,0.0,0.0,0.0,0.0,0.0,0.0,0.0,0.0,0.0,0.0,0.0,0.0,0.0,0.0,0.0,0.0,0.0,0.0,0.0,0.0,0.0,0.0,0.0,0.0,0.0,0.0,0.0,0.0,0.0,0.0,0.0,0.0,0.0,0.0,0.0,0.0,0.0,0.0,0.0,0.0,0.0,0.0,0.0,0.0,0.0,0.0,0.0,0.0,0.0,0.0,0.0,0.0,0.0,0.0,0.0,0.0,0.0,0.0,0.0,0.0,0.0,0.0,0.0,0.0,0.0,0.0,-5.5884,-5.8492,-6.0738,-6.1942,-6.1833,-6.1073,-5.9579,-5.7152,0.0,0.0,0.0,0.0,0.0,0.0,0.0,0.0,0.0,0.0,0.0,0.0,0.0,0.0,0.0,0.0,0.0,0.0,0.0,0.0,0.0,0.0,0.0,0.0,0.0,0.0,0.0,0.0,0.0,0.0,0.0,0.0,0.0,0.0,0.0,0.0,0.0,0.0,0.0,0.0,0.0,0.0,0.0,0.0,0.0,0.0,0.0,0.0,0.0,0.0,0.0,0.0,0.0,0.0,0.0,0.0,0.0,0.0,0.0,0.0,0.0,0.0,0.0,0.0,0.0,0.0,0.0,0.0,0.0,0.0,0.0,0.0,0.0,0.0,0.0,0.0,0.0,0.0,0.0,0.0,0.0,0.0,0.0,0.0,0.0,0.0,0.0,0.0,0.0,0.0,0.0,0.0,0.0,0.0,0.0,0.0,0.0,0.0,0.0,0.0,0.0,0.0,0.0,0.0,-5.6319,-6.005,-6.1362,-6.1725,-6.1064,-6.0267,-5.8746,-5.6319,0.0,0.0,0.0,0.0,0.0,0.0,0.0,0.0,0.0,0.0,0.0,0.0,0.0,0.0,0.0,0.0,0.0,0.0,0.0,0.0,0.0,0.0,0.0,0.0,0.0,0.0,0.0,0.0,0.0,0.0,0.0,0.0,0.0,0.0,0.0,0.0,0.0,0.0,0.0,0.0,0.0,0.0,0.0,0.0,0.0,0.0,0.0,0.0,0.0,0.0,0.0,0.0,0.0,0.0,0.0,0.0,0.0,0.0,0.0,0.0,0.0,0.0,0.0,0.0,0.0,0.0,0.0,0.0,0.0,0.0,0.0,0.0,0.0,0.0,0.0,0.0,0.0,0.0,0.0,0.0,0.0,0.0,0.0,0.0,0.0,0.0,0.0,0.0,0.0,0.0,0.0,0.0,0.0,0.0,0.0,0.0,0.0,0.0,0.0,0.0,0.0,0.0,0.0,-5.545,-5.7514,-6.11,-6.1362,-6.1181,-6.0846,-5.9651,-5.8094,-5.6102,-5.4146,0.0,0.0,0.0,0.0,0.0,0.0,0.0,0.0,0.0,0.0,0.0,0.0,0.0,0.0,0.0,0.0,0.0,0.0,0.0,0.0,0.0,0.0,0.0,0.0,0.0,0.0,0.0,0.0,0.0,0.0,0.0,0.0,0.0,0.0,0.0,0.0,0.0,0.0,0.0,0.0,0.0,0.0,0.0,0.0,0.0,0.0,0.0,0.0,0.0,0.0,0.0,0.0,0.0,0.0,0.0,0.0,0.0,0.0,0.0,0.0,0.0,0.0,0.0,0.0,0.0,0.0,0.0,0.0,0.0,0.0,0.0,0.0,0.0,0.0,0.0,0.0,0.0,0.0,0.0,0.0,0.0,0.0,0.0,0.0,0.0,0.0,0.0,0.0,0.0,0.0,0.0,0.0,0.0,0.0,0.0,0.0,0.0,0.0,0.0,0.0,0.0,0.0,-5.7152,-5.8492,-6.1145,-6.0883,-6.0448,-6.0267,-5.8746,-5.7152,-5.5558,-5.3241,0.0,0.0,0.0,0.0,0.0,0.0,0.0,0.0,0.0,0.0,0.0,0.0,0.0,0.0,0.0,0.0,0.0,0.0,0.0,0.0,0.0,0.0,0.0,0.0,0.0,0.0,0.0,0.0,0.0,0.0,0.0,0.0,0.0,0.0,0.0,0.0,0.0,0.0,0.0,0.0,0.0,0.0,0.0,0.0,0.0,0.0,0.0,0.0,0.0,0.0,0.0,0.0,0.0,0.0,0.0,0.0,0.0,0.0,0.0,0.0,0.0,0.0,0.0,0.0,0.0,0.0,0.0,0.0,0.0,0.0,0.0,0.0,0.0,0.0,0.0,0.0,0.0,0.0,0.0,0.0,0.0,0.0,0.0,0.0,0.0,0.0,0.0,0.0,0.0,0.0,0.0,0.0,0.0,0.0,0.0,0.0,0.0,0.0,0.0,0.0,0.0,0.0,-5.6971,-5.8709,-5.9651,-5.9724,-5.9398,-5.8637,-5.708,-5.5486,-5.3965,-5.1574,0.0,0.0,0.0,0.0,0.0,0.0,0.0,0.0,0.0,0.0,0.0,0.0,0.0,0.0,0.0,0.0,0.0,0.0,0.0,0.0,0.0,0.0,0.0,0.0,0.0,0.0,0.0,0.0,0.0,0.0,0.0,0.0,0.0,0.0,0.0,0.0,0.0,0.0,0.0,0.0,0.0,0.0,0.0,0.0,0.0,0.0,0.0,0.0,0.0,0.0,0.0,0.0,0.0,0.0,0.0,0.0,0.0,0.0,0.0,0.0,0.0,0.0,0.0,0.0,0.0,0.0,0.0,0.0,0.0,0.0,0.0,0.0,0.0,0.0,0.0,0.0,0.0,0.0,0.0,0.0,0.0,0.0,0.0,0.0,0.0,0.0,0.0,0.0,0.0,0.0,0.0,0.0,0.0,0.0,0.0,0.0,0.0,0.0,0.0,0.0,0.0,0.0,-5.5169,-5.708,0.0,-5.9144,-5.8746,-5.842,-5.6935,-5.5341,-5.3784,0.0,0.0,0.0,0.0,0.0,0.0,0.0,0.0,0.0,0.0,0.0,0.0,0.0,0.0,0.0,0.0,0.0,0.0,0.0,0.0,0.0,0.0,0.0,0.0,0.0,0.0,0.0,0.0,0.0,0.0,0.0,0.0,0.0,0.0,0.0,0.0,0.0,0.0,0.0,0.0,0.0,0.0,0.0,0.0,0.0,0.0,0.0,0.0,0.0,0.0,0.0,0.0,0.0,0.0,0.0,0.0,0.0,0.0,0.0,0.0,0.0,0.0,0.0,0.0,0.0,0.0,0.0,0.0,0.0,0.0,0.0,0.0,0.0,0.0,0.0,0.0,0.0,0.0,0.0,0.0,0.0,0.0,0.0,0.0,0.0,0.0,0.0,0.0,0.0,0.0,0.0,0.0,0.0,0.0,0.0,0.0,0.0,0.0,0.0,0.0,0.0,0.0,-5.2176,-5.4107,-5.6174,0.0,-5.8347,-5.7913,-5.7659,-5.6174,-5.4472,-5.2661,0.0,0.0,0.0,0.0,0.0,0.0,0.0,0.0,0.0,0.0,0.0,0.0,0.0,0.0,0.0,0.0,0.0,0.0,0.0,0.0,0.0,0.0,0.0,0.0,0.0,0.0,0.0,0.0,0.0,0.0,0.0,0.0,0.0,0.0,0.0,0.0,0.0,0.0,0.0,0.0,0.0,0.0,0.0,0.0,0.0,0.0,0.0,0.0,0.0,0.0,0.0,0.0,0.0,0.0,0.0,0.0,0.0,0.0,0.0,0.0,0.0,0.0,0.0,0.0,0.0,0.0,0.0,0.0,0.0,0.0,0.0,0.0,0.0,0.0,0.0,0.0,0.0,0.0,0.0,0.0,0.0,0.0,0.0,0.0,0.0,0.0,0.0,0.0,0.0,0.0,0.0,0.0,0.0,0.0,0.0,0.0,0.0,0.0,0.0,0.0,0.0,0.0,-5.1387,-5.4179,-5.6283,-5.708,-5.7188,-5.6862,-5.6066,-5.4581,-5.2661,0.0,0.0,0.0,0.0,0.0,0.0,0.0,0.0,0.0,0.0,0.0,0.0,0.0,0.0,0.0,0.0,0.0,0.0,0.0,0.0,0.0,0.0,0.0,0.0,0.0,0.0,0.0,0.0,0.0,0.0,0.0,0.0,0.0,0.0,0.0,0.0,0.0,0.0,0.0,0.0,0.0,0.0,0.0,0.0,0.0,0.0,0.0,0.0,0.0,0.0,0.0,0.0,0.0,0.0,0.0,0.0,0.0,0.0,0.0,0.0,0.0,0.0,0.0,0.0,0.0,0.0,0.0,0.0,0.0,0.0,0.0,0.0,0.0,0.0,0.0,0.0,0.0,0.0,0.0,0.0,0.0,0.0,0.0,0.0,0.0,0.0,0.0,0.0,0.0,0.0,0.0,0.0,0.0,0.0,0.0,0.0,0.0,0.0,0.0,0.0,0.0,0.0,0.0,-5.0002,-5.2814,-5.504,-5.6222,-5.6355,-5.6247,-5.6029,-5.4581,-5.2661,-5.0257,0.0,0.0,0.0,0.0,0.0,0.0,0.0,0.0,0.0,0.0,0.0,0.0,0.0,0.0,0.0,0.0,0.0,0.0,0.0,0.0,0.0,0.0,0.0,0.0,0.0,0.0,0.0,0.0,0.0,0.0,0.0,0.0,0.0,0.0,0.0,0.0,0.0,0.0,0.0,0.0,0.0,0.0,0.0,0.0,0.0,0.0,0.0,0.0,0.0,0.0,0.0,0.0,0.0,0.0,0.0,0.0,0.0,0.0,0.0,0.0,0.0,0.0,0.0,0.0,0.0,0.0,0.0,0.0,0.0,0.0,0.0,0.0,0.0,0.0,0.0,0.0,0.0,0.0,0.0,0.0,0.0,0.0,0.0,0.0,0.0,0.0,0.0,0.0,0.0,0.0,0.0,0.0,0.0,0.0,0.0,0.0,0.0,0.0,0.0,0.0,0.0,0.0,-4.9063,-5.1573,-5.3584,-5.4711,-5.5061,-5.508,-5.4756,-5.4098,-5.2516,-4.98,0.0,0.0,0.0,0.0,0.0,0.0,0.0,0.0,0.0,0.0,0.0,0.0,0.0,0.0,0.0,0.0,0.0,0.0,0.0,0.0,0.0,0.0,0.0,0.0,0.0,0.0,0.0,0.0,0.0,0.0,0.0,0.0,0.0,0.0,0.0,0.0,0.0,0.0,0.0,0.0,0.0,0.0,0.0,0.0,0.0,0.0,0.0,0.0,0.0,0.0,0.0,0.0,0.0,0.0,0.0,0.0,0.0,0.0,0.0,0.0,0.0,0.0,0.0,0.0,0.0,0.0,0.0,0.0,0.0,0.0,0.0,0.0,0.0,0.0,0.0,0.0,0.0,0.0,0.0,0.0,0.0,0.0,0.0,0.0,0.0,0.0,0.0,0.0,0.0,0.0,0.0,0.0,0.0,0.0,0.0,0.0,0.0,0.0,0.0,0.0,0.0,0.0,-4.8404,-5.0544,-5.2137,-5.2895,-5.3495,-5.3502,-5.2773,-5.3156,-5.2087,-4.8923,0.0,0.0,0.0,0.0,0.0,0.0,0.0,0.0,0.0,0.0,0.0,0.0,0.0,0.0,0.0,0.0,0.0,0.0,0.0,0.0,0.0,0.0,0.0,0.0,0.0,0.0,0.0,0.0,0.0,0.0,0.0,0.0,0.0,0.0,0.0,0.0,0.0,0.0,0.0,0.0,0.0,0.0,0.0,0.0,0.0,0.0,0.0,0.0,0.0,0.0,0.0,0.0,0.0,0.0,0.0,0.0,0.0,0.0,0.0,0.0,-4.1294,0.0,0.0,0.0,0.0,0.0,0.0,0.0,0.0,0.0,0.0,0.0,0.0,0.0,0.0,0.0,0.0,0.0,0.0,0.0,0.0,0.0,0.0,0.0,0.0,0.0,0.0,0.0,0.0,0.0,0.0,0.0,0.0,0.0,0.0,0.0,0.0,0.0,0.0,0.0,0.0,0.0,-4.7596,-4.9837,-5.1483,-5.2102,-5.2267,-5.2278,-5.211,-5.1617,-5.0256,-4.772,-4.7013,0.0,0.0,0.0,0.0,0.0,0.0,0.0,0.0,0.0,0.0,0.0,0.0,0.0,0.0,0.0,0.0,0.0,0.0,0.0,0.0,0.0,0.0,0.0,0.0,0.0,0.0,0.0,0.0,0.0,0.0,0.0,0.0,0.0,0.0,0.0,0.0,0.0,0.0,0.0,0.0,0.0,0.0,0.0,0.0,0.0,0.0,0.0,0.0,0.0,0.0,0.0,0.0,0.0,0.0,0.0,0.0,0.0,0.0,0.0,0.0,-4.2312,0.0,0.0,0.0,0.0,0.0,0.0,0.0,0.0,0.0,0.0,0.0,0.0,0.0,0.0,0.0,0.0,0.0,0.0,0.0,0.0,0.0,0.0,0.0,0.0,0.0,0.0,0.0,0.0,0.0,0.0,0.0,0.0,0.0,0.0,0.0,0.0,0.0,0.0,0.0,0.0,-4.6942,-4.8607,-4.9786,-5.0419,-5.0771,-5.0941,-5.0941,-5.0807,-5.003,-4.8399,-4.7267,0.0,0.0,0.0,0.0,0.0,0.0,0.0,0.0,0.0,0.0,0.0,0.0,0.0,0.0,0.0,0.0,0.0,0.0,0.0,0.0,0.0,0.0,0.0,0.0,0.0,0.0,0.0,0.0,0.0,0.0,0.0,0.0,0.0,0.0,0.0,0.0,0.0,0.0,0.0,0.0,0.0,0.0,0.0,0.0,0.0,0.0,0.0,0.0,0.0,0.0,0.0,0.0,0.0,-4.7758,-4.7758,-4.7638,-4.71,-4.713,-4.7549,-4.5903,-4.4676,-4.3798,-4.3559,0.0,0.0,0.0,0.0,0.0,0.0,0.0,0.0,0.0,0.0,0.0,0.0,0.0,0.0,0.0,0.0,0.0,0.0,0.0,0.0,0.0,0.0,0.0,0.0,-4.5695,-4.5263,0.0,0.0,0.0,0.0,0.0,0.0,0.0,0.0,0.0,0.0,0.0,0.0,-4.6486,-4.7432,-4.8206,-4.8917,-4.9436,-4.9762,-4.9762,-5.0153,-5.0013,-4.9087,-4.7718,-4.6263,0.0,0.0,0.0,0.0,0.0,0.0,0.0,0.0,0.0,0.0,0.0,0.0,0.0,0.0,0.0,0.0,0.0,0.0,0.0,0.0,0.0,0.0,0.0,0.0,0.0,0.0,0.0,0.0,0.0,0.0,0.0,0.0,-4.2886,-4.3826,0.0,0.0,0.0,0.0,0.0,0.0,0.0,0.0,0.0,0.0,0.0,0.0,0.0,-4.8027,-4.8027,-4.9254,-4.9553,-4.906,-4.9583,-4.9553,-4.906,-4.897,-4.897,-4.903,-4.879,0.0,-4.5801,-4.4676,0.0,0.0,0.0,0.0,0.0,0.0,0.0,0.0,0.0,0.0,0.0,0.0,0.0,0.0,0.0,0.0,0.0,0.0,0.0,0.0,0.0,0.0,-4.5397,-4.49,-4.5259,-4.5632,0.0,-4.5306,-4.4953,-4.3565,-4.3514,0.0,0.0,0.0,0.0,0.0,0.0,0.0,-4.6342,-4.7338,-4.8206,-4.8917,-4.9046,-4.9107,-4.9107,-4.9199,-4.8617,-4.7253,-4.634,-4.5218,-4.3661,-4.1982,0.0,0.0,0.0,0.0,0.0,0.0,0.0,0.0,0.0,0.0,0.0,0.0,0.0,0.0,0.0,0.0,0.0,0.0,0.0,0.0,0.0,0.0,0.0,0.0,0.0,0.0,0.0,0.0,0.0,-4.1725,-4.3835,-4.3312,-4.4516,-4.5039,0.0,0.0,0.0,0.0,0.0,0.0,0.0,0.0,0.0,-4.888,-4.9583,-5.0122,-5.0481,-5.1409,-5.1738,-5.1516,-5.1768,-5.1558,-5.093,-5.093,-5.072,-5.0361,-5.0361,-4.9673,-4.8342,-4.6681,-4.5394,-4.4347,0.0,0.0,0.0,0.0,-4.2491,-4.2521,-4.291,-4.303,0.0,-4.1833,0.0,0.0,0.0,0.0,0.0,0.0,0.0,0.0,0.0,0.0,-4.5085,-4.521,-4.5472,-4.5684,-4.5684,-4.6047,-4.6061,0.0,-4.5246,-4.5078,-4.3617,0.0,0.0,0.0,0.0,-4.472,-4.6227,-4.7096,-4.7897,-4.8637,-4.8704,-4.8736,-4.8894,-4.8894,-4.8486,-4.7496,-4.6718,-4.5776,-4.4575,-4.3042,-4.1849,0.0,0.0,0.0,0.0,0.0,0.0,0.0,0.0,0.0,0.0,0.0,0.0,0.0,0.0,0.0,0.0,0.0,0.0,0.0,0.0,0.0,0.0,0.0,0.0,0.0,0.0,0.0,0.0,-4.2772,-4.4624,-4.2924,-4.5304,-4.6366,0.0,0.0,0.0,0.0,0.0,0.0,-4.8679,-4.8967,-4.9594,-5.0726,-5.1411,-5.2025,-5.2502,-5.3009,-5.3296,-5.3345,-5.3166,-5.2886,-5.2456,-5.2276,-5.1947,-5.1468,-5.1289,-5.093,-5.0315,-4.8536,-4.701,-4.5753,-4.5095,-4.4436,-4.3868,-4.3868,-4.3868,-4.3858,-4.4407,-4.4556,-4.4407,-4.3419,0.0,-4.2312,-4.0666,0.0,0.0,0.0,0.0,-4.2556,-4.3252,-4.38,-4.432,-4.4962,-4.5258,-4.5405,-4.5405,-4.5985,-4.6371,0.0,-4.6383,-4.6477,-4.5185,0.0,0.0,0.0,0.0,-4.5076,-4.6347,-4.7046,-4.768,-4.8416,-4.8515,-4.8547,-4.8707,-4.8539,-4.8164,-4.7514,-4.6802,-4.5997,-4.5105,-4.3977,-4.3015,-4.2167,0.0,0.0,0.0,0.0,0.0,0.0,0.0,0.0,0.0,0.0,0.0,0.0,0.0,0.0,0.0,0.0,0.0,0.0,0.0,0.0,0.0,0.0,0.0,0.0,0.0,0.0,0.0,0.0,0.0,-4.3754,-4.7072,0.0,0.0,0.0,0.0,-4.7683,-4.853,-4.953,-5.0788,-5.1121,-5.1562,-5.2269,-5.2968,-5.3322,-5.3352,-5.3381,-5.3532,-5.3754,-5.3109,-5.293,-5.3114,-5.2486,-5.2187,-5.2127,-5.1498,-5.1199,-5.1079,-4.9733,-4.8386,-4.713,-4.6471,-4.5813,-4.5185,-4.5185,-4.5185,-4.5185,-4.5244,-4.5244,-4.5244,-4.5155,-4.4317,-4.315,-4.247,-4.1841,0.0,0.0,-4.2381,-4.253,-4.3159,-4.3339,-4.3369,-4.3409,-4.4004,-4.4548,-4.4548,-4.5184,-4.5762,0.0,-4.6356,-4.6643,-4.5881,0.0,-4.5713,-4.5713,-4.5837,-4.6196,-4.706,-4.7318,-4.768,-4.8416,-4.8515,-4.8515,-4.8515,-4.7847,-4.7144,-4.6438,-4.5697,-4.493,-4.4198,-4.3952,-4.3527,-4.276,-4.1222,0.0,0.0,0.0,0.0,0.0,0.0,0.0,0.0,0.0,0.0,0.0,0.0,0.0,0.0,0.0,0.0,0.0,0.0,0.0,0.0,0.0,0.0,0.0,0.0,0.0,0.0,0.0,0.0,-4.6055,-4.8566,0.0,-4.7942,-4.8924,-4.9688,-4.9688,-5.0466,-5.1374,-5.2251,-5.2561,-5.2977,-5.3596,-5.3861,-5.3979,-5.3979,-5.3979,-5.403,-5.4103,-5.3896,-5.3621,-5.3337,-5.3099,-5.2842,-5.2573,-5.1869,-5.1667,-5.1768,-5.09,-5.0002,-4.9089,-4.8476,-4.7818,-4.7219,-4.7219,-4.695,-4.6591,-4.6591,-4.6591,-4.6531,-4.6082,-4.5334,-4.4466,-4.3808,-4.3748,-4.3868,-4.3688,-4.3629,-4.3658,-4.3898,-4.3618,-4.329,-4.329,-4.3527,-4.3732,-4.3732,-4.4358,-4.4937,-4.4914,-4.599,-4.6749,-4.6546,-4.651,-4.6344,-4.5881,-4.6242,-4.6671,-4.697,-4.7434,-4.7897,-4.8163,-4.8196,-4.8029,-4.769,-4.7423,-4.6817,-4.5637,-4.5366,-4.4838,-4.4019,-4.3927,-4.3706,-4.3322,-4.2299,-4.1044,0.0,0.0,0.0,0.0,0.0,0.0,0.0,0.0,0.0,0.0,0.0,0.0,0.0,0.0,0.0,0.0,0.0,0.0,0.0,0.0,0.0,0.0,0.0,0.0,0.0,0.0,-4.7863,-4.6799,-4.9598,-5.1106,-4.963,-5.0622,-5.1374,-5.1374,-5.1903,-5.2479,-5.3121,-5.3356,-5.3635,-5.4045,-5.3993,-5.3993,-5.3993,-5.3993,-5.4045,-5.4149,-5.4149,-5.3994,-5.3684,-5.3478,-5.3255,-5.2931,-5.2043,-5.1754,-5.1887,-5.1214,-5.0679,-5.0232,-4.9807,-4.9194,-4.8596,-4.8356,-4.8027,-4.7608,-4.7369,-4.7309,-4.7189,-4.6531,-4.6022,-4.5514,-4.4855,-4.4945,-4.5214,-4.4766,-4.4646,-4.4646,-4.4646,-4.4317,-4.3928,-4.3678,-4.3618,-4.3559,-4.3349,-4.3732,-4.4197,-4.4434,-4.552,-4.6528,-4.6815,-4.6881,-4.6782,-4.6578,-4.6974,-4.7272,-4.7272,-4.7703,-4.8001,-4.8001,-4.8001,-4.7835,-4.7499,-4.7233,-4.6597,-4.5487,-4.5153,-4.466,-4.3809,-4.3809,-4.375,-4.3598,-4.2605,-4.1574,-4.0409,0.0,0.0,0.0,0.0,0.0,0.0,0.0,0.0,0.0,0.0,0.0,0.0,0.0,0.0,0.0,0.0,0.0,0.0,0.0,0.0,0.0,0.0,0.0,-4.2456,-4.5259,-4.7002,-4.5915,-5.0339,-5.2329,-4.9512,-5.1305,-5.2652,-5.2652,-5.2652,-5.2862,-5.3471,-5.35,-5.35,-5.35,-5.35,-5.35,-5.35,-5.35,-5.3605,-5.3919,-5.3919,-5.3993,-5.4274,-5.3684,-5.3419,-5.336,-5.2034,-5.1444,-5.1385,-5.0795,-5.053,-5.0489,-5.0279,-4.9883,-4.9269,-4.8566,-4.8297,-4.8177,-4.7519,-4.7309,-4.7189,-4.6561,-4.6309,-4.6232,-4.5544,-4.5334,-4.5364,-4.5334,-4.5334,-4.5334,-4.5334,-4.5304,-4.5125,-4.4466,-4.4317,-4.4137,-4.3439,-4.329,-4.3527,-4.4282,-4.511,-4.5877,-4.6622,-4.6793,-4.7033,-4.7803,-4.7968,0.0,-4.7968,-4.7968,-4.8001,-4.8001,-4.8001,-4.8001,-4.7968,-4.7305,-4.6576,-4.5814,-4.5086,-4.4357,-4.3631,-4.3598,-4.3598,-4.3598,-4.2175,-4.111,-4.0475,0.0,0.0,0.0,0.0,0.0,0.0,0.0,0.0,0.0,0.0,0.0,0.0,0.0,0.0,0.0,0.0,0.0,0.0,0.0,0.0,0.0,0.0,-4.3526,-4.4461,-4.6859,-4.8763,-4.9307,-5.1058,-5.2234,-5.2277,-5.2879,-5.3239,-5.3239,-5.3239,-5.3326,-5.35,-5.35,-5.35,-5.35,-5.35,-5.35,-5.35,-5.35,-5.3553,-5.3605,-5.3605,-5.3658,-5.371,-5.3535,-5.3552,-5.37,-5.2909,-5.2394,-5.2093,-5.1444,-5.0884,-5.0519,-5.0597,-5.0262,-4.9683,-4.9209,-4.8386,-4.7549,-4.7369,-4.7309,-4.7279,-4.71,-4.704,-4.692,-4.6232,-4.6381,-4.6651,-4.6172,-4.6052,-4.6052,-4.6052,-4.5663,-4.5125,-4.4466,-4.4317,-4.4137,-4.3439,-4.329,-4.3369,-4.3606,-4.381,-4.4396,-4.5769,-4.602,-4.6092,-4.6304,-4.6793,0.0,-4.7101,-4.7638,-4.8001,-4.8001,-4.8001,-4.7769,-4.7239,-4.7007,-4.6344,-4.5052,-4.4787,-4.4357,-4.3631,-4.3598,-4.3598,-4.3598,-4.2671,-4.2137,0.0,0.0,0.0,0.0,0.0,0.0,0.0,0.0,0.0,0.0,0.0,0.0,0.0,0.0,0.0,0.0,0.0,0.0,0.0,0.0,0.0,0.0,-4.3313,-4.4503,-4.5668,-4.7254,-4.8613,-4.9553,-5.0409,-5.1429,-5.2594,-5.2783,-5.3058,-5.3854,-5.3675,-5.3646,-5.3907,-5.3675,-5.35,-5.35,-5.35,-5.35,-5.35,-5.35,-5.35,-5.35,-5.35,-5.35,-5.35,-5.35,-5.3605,0.0,-5.3092,-5.253,-5.2038,-5.1365,-5.072,0.0,0.0,0.0,0.0,0.0,-4.8357,-4.7309,-4.7309,-4.7309,-4.7309,-4.7309,-4.7309,-4.7249,-4.686,-4.701,-4.7219,-4.683,-4.6741,-4.6741,-4.6741,-4.6441,-4.5963,-4.5304,-4.5155,-4.4885,-4.3917,-4.3708,-4.3618,-4.3349,-4.329,0.0,-4.451,-4.4962,-4.5295,-4.566,-4.6056,-4.634,-4.634,-4.6724,-4.7032,-4.7032,-4.7303,-4.7307,-4.6881,-4.7176,0.0,0.0,0.0,-4.4688,-4.3631,-4.3598,0.0,0.0,0.0,0.0,0.0,0.0,0.0,0.0,-4.2307,-4.2734,0.0,0.0,0.0,0.0,0.0,0.0,0.0,0.0,0.0,0.0,0.0,0.0,0.0,0.0,0.0,0.0,-4.4794,-4.5673,-4.6225,-4.6828,-4.7403,-4.8041,-4.9049,-5.0182,-5.1347,-5.162,-5.242,-5.4161,-5.3859,-5.3878,-5.4487,0.0,0.0,0.0,0.0,-5.35,-5.35,-5.35,-5.35,-5.35,-5.35,-5.35,-5.35,-5.35,-5.35,-5.3471,-5.292,-5.2281,-5.1585,-5.1004,-5.0336,-4.9717,-5.0231,-5.0364,-5.0147,-4.9199,-4.8179,-4.7222,-4.7266,0.0,0.0,-4.7309,-4.7309,-4.7309,-4.7309,-4.7309,-4.7309,-4.7309,-4.7309,-4.7309,-4.7309,-4.7309,-4.713,-4.6429,-4.6279,-4.592,-4.4706,-4.4377,-4.4137,-4.3529,-4.3349,-4.329,-4.329,-4.3888,-4.4586,-4.5332,-4.5515,-4.5551,-4.5551,-4.566,-4.5697,-4.5697,0.0,0.0,-4.6689,-4.7337,-4.7144,-4.5755,-4.5584,-4.4922,-4.3542,-4.3568,-4.3568,-4.3509,-4.3568,-4.3598,-4.3598,-4.3598,-4.3631,-4.3698,-4.3698,-4.4092,0.0,0.0,0.0,0.0,0.0,0.0,0.0,0.0,0.0,0.0,0.0,0.0,0.0,0.0,0.0,-4.4267,-4.5045,-4.5673,-4.6225,-4.638,-4.6925,-4.7977,-4.8326,-4.8935,-5.0126,-5.1127,-5.2065,-5.3016,-5.3805,-5.4371,-5.4517,-5.44,-5.4081,-5.353,-5.35,-5.35,-5.35,-5.35,-5.35,-5.35,0.0,0.0,-5.35,-5.35,-5.35,-5.35,-5.3384,-5.2688,-5.1614,-5.1468,-5.0743,-4.9717,-5.0038,-4.9633,-4.8879,-4.866,-4.779,-4.6756,-4.6931,-4.6975,-4.7019,-4.7222,-4.7309,-4.7309,-4.7309,-4.7309,0.0,-4.7309,-4.7309,-4.7309,-4.7309,-4.7309,-4.713,-4.6429,-4.6279,-4.607,-4.5274,-4.4676,-4.4287,-4.4137,-4.3648,-4.329,-4.329,-4.3448,-4.3576,-4.3732,-4.432,-4.4737,-4.4737,-4.5295,-4.5697,-4.5697,-4.5841,-4.5913,-4.5913,-4.6056,-4.5766,-4.4886,-4.4317,-4.3652,-4.2836,-4.3295,-4.3325,-4.2803,-4.3325,-4.3598,-4.3598,-4.3598,-4.3926,-4.4489,-4.4489,-4.4556,0.0,0.0,0.0,0.0,0.0,0.0,0.0,0.0,0.0,0.0,0.0,-4.2409,0.0,0.0,-4.4493,-4.5347,-4.5698,-4.5999,-4.6276,-4.6301,-4.6541,-4.7146,-4.7205,-4.7886,-4.9732,-5.0736,-5.2073,-5.3911,-5.4598,-5.5097,-5.5445,-5.4865,-5.4371,-5.4023,-5.3675,-5.35,-5.35,-5.35,-5.35,-5.35,-5.35,-5.35,-5.35,-5.35,-5.35,-5.35,-5.35,-5.2804,-5.1556,-5.0917,-5.0249,-4.9717,-4.9844,-4.9424,-4.8735,-4.8383,-4.777,-4.7022,-4.683,-4.6756,-4.68,-4.7019,-4.7106,-4.7106,-4.7266,-4.7309,-4.7309,-4.7309,-4.7309,-4.7309,-4.7309,-4.7309,-4.7219,-4.689,-4.68,-4.6621,-4.5963,-4.5274,-4.4706,-4.4377,-4.3738,-4.329,-4.329,-4.329,-4.329,-4.329,-4.3615,-4.3888,-4.3888,-4.4243,-4.451,-4.451,-4.4849,-4.511,-4.511,-4.5128,-4.5017,-4.4633,-4.3943,-4.3235,-4.2589,-4.288,-4.2751,-4.2045,-4.2364,-4.2554,-4.2554,-4.291,-4.3456,-4.4225,-4.4882,-4.5434,0.0,0.0,0.0,0.0,0.0,0.0,0.0,-4.0918,-4.163,-4.2735,-4.3313,-4.394,-4.492,-4.5497,-4.5974,-4.6527,-4.6527,-4.6476,-4.6476,-4.6376,-4.6301,-4.6301,-4.6301,-4.7078,-4.9178,-5.0067,-5.1726,-5.465,-5.5068,-5.5603,-5.6374,-5.5445,-5.4778,-5.4517,-5.3994,-5.3646,-5.35,-5.35,-5.35,-5.35,-5.35,-5.35,-5.35,-5.35,-5.35,-5.35,-5.3384,-5.2688,-5.1527,-5.0365,-4.9785,-4.9717,-4.9717,-4.9524,-4.9143,-4.8471,-4.7834,-4.7313,-4.6874,-4.6609,-4.6535,-4.6756,-4.6887,-4.6931,-4.7149,-4.7266,-4.7309,-4.7309,-4.7309,-4.7309,-4.7309,-4.7309,-4.7309,-4.7309,-4.7309,-4.716,-4.6621,-4.5992,-4.5304,-4.4616,-4.3917,-4.3439,-4.3319,-4.329,-4.329,-4.329,-4.329,-4.329,-4.329,-4.329,-4.329,-4.329,-4.3888,-4.4243,-4.4243,-4.434,-4.4369,-4.4369,-4.3815,-4.3189,-4.2516,-4.2622,-4.2307,-4.1482,-4.1742,-4.1808,-4.1682,-4.2343,-4.3123,-4.3879,-4.4974,-4.5993,-3.7613,-3.7592,-3.7941,-3.9929,-4.0255,-4.0856,0.0,-4.4493,-4.4493,-4.5623,-4.5899,-4.6125,-4.6692,-4.6903,-4.7129,-4.7631,-4.733,-4.6993,-4.6993,-4.6627,-4.6301,-4.6301,-4.6301,-4.6622,-4.7344,-4.8454,-5.0147,-5.2724,-5.3941,-5.514,-5.6348,-5.6258,-5.5678,-5.4546,-5.4429,-5.411,-5.353,-5.35,-5.35,-5.35,-5.35,-5.35,-5.35,-5.35,-5.35,-5.3471,-5.292,-5.2281,-5.1556,-5.0859,-5.027,-4.9717,-4.9717,-4.9688,-4.9543,-4.8904,-4.7916,-4.6916,-4.7086,-4.6767,-4.6314,-4.6535,-4.6756,-4.6931,-4.6931,-4.7106,-4.7309,-4.7309,-4.7309,-4.7309,-4.7309,-4.7309,-4.7309,-4.7309,-4.7309,-4.7279,-4.7219,-4.6681,-4.5992,-4.5334,-4.4646,-4.4018,-4.3379,-4.329,-4.329,-4.329,-4.329,-4.329,-4.329,-4.329,-4.329,-4.329,-4.3369,-4.3448,-4.3448,-4.348,-4.3531,-4.3531,-4.3533,-4.3165,-4.2428,-4.3032,-4.2758,-4.1445,-4.2664,-4.2974,-4.2374,-4.3068,-4.3766,-4.4503,-4.463,-4.5522,-3.8237,-3.8759,-3.9253,-4.0144,-4.117,-4.2357,-4.3811,-4.4516,-4.5051,-4.5849,-4.618,-4.6476,-4.6968,-4.7068,-4.7305,0.0,-4.7732,-4.7581,-4.7581,-4.7129,-4.6803,-4.6803,-4.6803,-4.7096,-4.806,-4.9917,-5.1782,-5.3561,-5.5224,-5.6391,-5.687,-5.6607,-5.5997,-5.5068,-5.4691,-5.4197,-5.353,-5.35,-5.35,-5.35,-5.35,-5.35,-5.35,-5.35,-5.35,-5.3471,-5.2833,-5.2223,-5.1556,-5.0946,-5.0328,-4.9717,-4.9717,-4.9717,-4.9611,-4.8972,-4.8159,-4.7317,-4.7061,-4.6554,-4.6046,-4.6269,-4.6447,-4.6535,-4.6668,-4.6887,-4.7062,-4.7062,-4.7149,-4.7309,-4.7309,-4.7309,-4.7309,-4.7309,-4.7309,-4.7309,-4.7309,-4.68,-4.619,-4.5963,-4.5035,-4.4227,-4.3958,-4.3559,-4.329,-4.329,-4.329,-4.329,-4.329,-4.329,-4.329,-4.329,-4.329,-4.329,-4.329,-4.3335,-4.3348,-4.3348,-4.3381,-4.3084,-4.2417,-4.2687,-4.2419,-4.1418,-4.1992,-4.2138,-4.1862,-4.2536,-4.3217,-4.3972,-4.4376,-4.5146,-3.8712,-3.9357,-3.9956,-4.0355,-4.1776,-4.3185,-4.3639,-4.4467,-4.5345,-4.5743,-4.6059,-4.6416,-4.6906,-4.7193,-4.7531,-4.8058,-4.8159,-4.8159,-4.8159,-4.7556,-4.7118,-4.733,-4.7355,-4.7749,-4.8764,-5.0462,-5.2284,-5.4071,-5.5506,-5.6594,-5.7247,-5.6897,-5.6258,-5.5445,-5.4981,-5.4371,-5.353,-5.35,-5.35,-5.35,-5.35,-5.35,-5.35,-5.35,-5.35,-5.35,-5.3036,-5.2368,-5.1585,-5.112,-5.0423,-4.9717,-4.9717,-4.9717,-4.9611,-4.9146,-4.8478,-4.7724,-4.7259,-4.6563,-4.594,-4.609,-4.618,-4.6269,-4.6447,-4.6624,-4.68,-4.68,-4.6931,-4.7135,-4.7135,-4.7135,-4.7135,-4.7135,-4.7179,-4.7222,-4.7222,-4.6877,-4.6488,-4.6309,-4.5544,-4.4796,-4.4616,-4.4007,-4.3559,-4.3559,-4.3409,-4.329,-4.329,-4.329,-4.329,-4.329,-4.329,-4.329,-4.329,-4.329,-4.329,-4.329,-4.329,-4.312,-4.2641,-4.2641,-4.2312,-4.1692,-4.1833,-4.1833,-4.1692,-4.2312,-4.2922,-4.3464,-4.3953,-4.4472,-3.9082,-3.9199,-3.9588,-4.1249,-4.2077,-4.2959,-4.4546,-4.5395,-4.5793,-4.5817,-4.6059,-4.6355,-4.66,-4.7283,-4.8083,-4.8661,-4.8736,-4.8736,-4.8736,-4.7807,-4.733,-4.7832,-4.7883,-4.8109,0.0,-4.8863,-5.0198,-5.3308,-5.3604,-5.4679,-5.7191,-5.7274,-5.6694,-5.5445,-5.5387,-5.4778,-5.353,-5.35,-5.35,-5.35,-5.35,-5.35,-5.35,-5.35,-5.35,-5.35,-5.35,-5.2775,-5.1614,-5.1585,-5.083,-4.9717,-4.9717,-4.9717,-4.9717,-4.9688,-4.8904,-4.7782,-4.7753,-4.694,-4.5895,-4.594,-4.6046,-4.6225,-4.6225,-4.6403,-4.6609,-4.6609,-4.658,-4.6653,-4.6653,-4.6653,-4.6653,-4.6653,-4.6756,-4.6931,-4.6931,-4.7106,-4.71,-4.6441,-4.6249,-4.6052,-4.5394,-4.4706,-4.4287,-4.4287,-4.3708,-4.329,-4.329,-4.329,-4.329,-4.329,-4.329,-4.329,-4.329,-4.329,-4.329,-4.329,-4.329,-4.329,-4.326,-4.326,-4.3,-4.2381,-4.294,-4.297,-4.2381,-4.3,-4.326,-4.3299,-4.3329,-4.3369,-3.893,-3.957,-4.0432,-4.1184,-4.2195,-4.3163,-4.3843,-4.4573,-4.5147,-4.5147,-4.5392,-4.5809,-4.6476,-4.6848,-4.7433,-4.8611,-4.8761,-4.8912,-4.9264,-4.8686,-4.8284,-4.846,-4.8485,0.0,0.0,0.0,0.0,-5.3335,-5.3964,-5.5164,-5.7162,-5.7303,-5.6723,-5.5445,-5.5416,-5.4807,-5.353,-5.273,-5.2326,-5.2326,-5.2326,-5.273,-5.35,-5.35,-5.35,-5.35,-5.35,-5.2804,-5.1614,-5.1614,-5.0859,-4.9717,-4.9717,-4.9717,-4.9717,-4.9717,-4.9146,-4.8333,-4.7927,-4.723,-4.6446,-4.6011,-4.594,-4.6001,-4.6001,-4.6135,-4.6314,-4.6314,-4.6447,-4.6609,-4.6609,-4.6609,-4.6609,-4.6609,-4.6756,-4.6931,-4.6931,-4.7106,-4.7249,-4.701,-4.6621,-4.6219,-4.6022,-4.5065,-4.4167,-4.3678,-4.3439,-4.329,-4.329,-4.329,-4.329,-4.329,-4.329,-4.329,-4.329,-4.329,-4.329,-4.329,-4.329,-4.329,-4.329,-4.329,-4.32,-4.3,-4.32,-4.32,-4.3,-4.32,-4.329,-4.329,-4.329,-4.329,-3.9056,-3.984,-4.0725,-4.1109,-4.2166,-4.3154,-4.3325,-4.3953,-4.4549,-4.4671,-4.4975,-4.5341,-4.593,-4.6425,-4.7183,-4.8309,-4.8812,-4.9188,-4.954,-4.9289,-4.9063,-4.9063,-4.8887,-4.8837,0.0,0.0,0.0,-5.3335,-5.4377,-5.5566,-5.7218,-5.7303,-5.6839,-5.5794,-5.5533,-5.4923,-5.3878,-5.2844,-5.238,-5.2326,-5.192,-5.2082,-5.2837,-5.238,-5.2218,-5.2218,-5.2648,-5.2263,-5.1339,-5.1497,-5.1004,-5.0017,-4.9363,-4.9375,-4.9669,-4.9248,-4.9066,-4.8972,-4.8333,-4.7695,-4.7056,-4.6446,-4.6214,-4.6185,-4.5953,-4.6001,-4.609,-4.609,-4.6269,-4.6447,-4.6358,-4.6403,-4.6447,-4.6358,-4.6491,-4.6668,-4.6668,-4.6931,-4.7149,-4.7149,-4.6864,-4.6681,-4.6681,-4.5574,-4.4377,-4.3439,-4.329,-4.329,-4.329,-4.329,-4.329,-4.329,-4.329,-4.329,-4.329,-4.329,-4.329,-4.329,-4.329,-4.329,-4.329,-4.329,-4.329,-4.329,-4.329,-4.329,-4.329,-4.329,-4.329,-4.329,-4.329,-4.329,-3.9513,-4.0042,-4.0547,-4.1052,-4.2024,-4.2831,-4.3103,-4.3576,-4.4025,-4.435,-4.4674,-4.4938,-4.4973,-4.6134,-4.7244,-4.7782,-4.8812,-4.9565,-4.959,-4.959,-4.959,0.0,0.0,0.0,0.0,0.0,0.0,-5.3396,0.0,-5.5848,-5.7247,-5.7303,-5.7013,-5.6374,-5.5736,-5.5097,-5.4458,-5.3767,-5.3395,-5.3395,-5.2244,-5.1674,-5.1674,-5.0518,-4.9958,-4.9958,-5.1127,-5.1257,-5.0775,-5.1311,-5.1164,-5.0448,-4.8786,-4.8731,-4.9473,-4.8374,-4.8703,-4.9533,-4.8876,-4.8315,-4.7724,-4.7085,-4.6836,-4.6766,-4.6127,-4.5924,-4.5924,-4.5895,-4.6046,-4.618,-4.5956,-4.6046,-4.618,-4.5956,-4.6046,-4.6225,-4.6225,-4.658,-4.6887,-4.6931,-4.7106,-4.7309,-4.7249,-4.6172,-4.4855,-4.3529,-4.3319,-4.329,-4.329,-4.329,-4.329,-4.329,-4.329,-4.329,-4.329,-4.329,-4.329,-4.329,-4.329,-4.329,-4.329,-4.329,-4.329,-4.329,-4.329,-4.329,-4.329,-4.329,-4.329,-4.329,-4.329,-4.329,-4.0042,-4.0571,-4.1028,-4.1148,-4.1677,-4.2241,-4.2276,-4.2745,-4.3191,-4.343,-4.3926,-4.4312,-4.4417,-4.5679,-4.6872,-4.7244,-4.8259,0.0,-4.954,-4.959,0.0,-4.959,-4.9464,-4.9799,-5.0891,-5.1759,0.0,0.0,-5.3882,-5.4471,-5.7162,-5.7303,-5.681,-5.5707,-5.5503,-5.4894,-5.3791,-5.268,-5.2136,-5.2136,-5.1866,-5.1674,-5.1674,-5.1347,-5.074,-4.9901,-5.0238,-5.0022,-4.9529,-5.0581,-5.0327,-4.9308,-4.9853,-4.9381,-4.8374,-4.8122,-4.8173,-4.8424,-4.8254,-4.8293,-4.8391,-4.7753,-4.755,-4.7404,-4.6795,-4.6592,-4.6505,-4.6011,-4.6046,-4.618,-4.6135,-4.618,-4.618,-4.6135,-4.618,-4.6225,-4.6225,-4.6447,-4.6712,-4.6887,-4.7106,-4.716,-4.6651,-4.5873,-4.5005,-4.4197,-4.3618,-4.329,-4.329,-4.329,-4.329,-4.329,-4.329,-4.329,-4.329,-4.329,-4.329,-4.329,-4.329,-4.329,-4.329,-4.329,-4.329,-4.329,-4.329,-4.329,-4.329,-4.329,-4.329,-4.329,-4.329,-4.329,-4.0306,-4.0787,-4.1172,-4.1172,-4.1581,-4.1976,-4.1677,-4.2038,-4.2528,-4.2696,-4.3315,-4.3895,-4.4045,-4.535,-4.6609,-4.7043,-4.8058,0.0,-4.9515,-4.9791,-4.9866,0.0,-4.959,0.0,-5.06,-5.1829,-5.318,0.0,-5.4639,-5.5309,-5.6841,-5.6926,-5.6432,-5.5445,-5.5155,-5.4517,-5.353,-5.2837,-5.2487,-5.2487,-5.1974,-5.1674,-5.1674,-5.0629,-4.9732,-4.9106,0.0,-4.8919,-4.8656,-4.9639,-4.9413,-4.8553,-4.9009,-4.8686,-4.792,-4.7434,-4.7536,-4.8021,-4.8021,-4.8148,-4.837,-4.8249,-4.8188,-4.8014,-4.7068,-4.6778,-4.6662,-4.6069,-4.6046,-4.618,-4.609,-4.6225,-4.6358,-4.6225,-4.6225,-4.6225,-4.6225,-4.6314,-4.6535,-4.6844,-4.7106,-4.71,-4.6441,-4.5992,-4.5424,-4.4466,-4.3988,-4.3618,-4.3319,-4.329,-4.329,-4.329,-4.329,-4.329,-4.329,-4.329,-4.329,-4.329,-4.329,-4.329,-4.329,-4.329,-4.329,-4.329,-4.329,-4.329,-4.329,-4.329,-4.329,-4.329,-4.329,-4.329,-4.0475,-4.0836,-4.1172,-4.1172,-4.1533,-4.1749,-4.1293,-4.1533,-4.19,-4.2095,-4.2897,-4.3647,-4.3676,-4.5121,-4.6476,-4.6954,-4.8008,-4.8962,-4.9515,-5.0017,-5.0117,-4.9665,-4.959,-4.9654,-4.9822,-5.1042,-5.2324,-5.3664,-5.5934,-5.7042,-5.6432,-5.6403,-5.6055,-5.53,-5.4691,-5.411,-5.353,-5.35,-5.35,-5.35,-5.2434,-5.1866,-5.162,-4.9562,-4.8474,-4.8326,-4.8326,0.0,-4.8158,-4.8854,-4.8624,-4.7839,-4.746,-4.7524,-4.7666,-4.6503,-4.6816,-4.7768,-4.7615,-4.7666,-4.7887,-4.8614,-4.8856,-4.8624,-4.7387,-4.7039,-4.694,-4.633,-4.625,-4.6297,-4.6101,-4.6357,-4.6535,-4.6314,-4.6225,-4.6225,-4.6225,-4.6225,-4.6358,-4.68,-4.7062,-4.7086,-4.6518,-4.6339,-4.5933,-4.4766,-4.4436,-4.4137,-4.3618,-4.3409,-4.329,-4.329,-4.329,-4.329,-4.329,-4.329,-4.329,-4.329,-4.329,-4.329,-4.329,-4.329,-4.329,-4.329,-4.329,-4.329,-4.329,-4.329,-4.329,-4.329,-4.329,-4.329,-4.0932,-4.1124,-4.1172,-4.1172,-4.1244,-4.1293,-4.1196,-4.1244,-4.1465,-4.1997,-4.2602,-4.3045,-4.31,-4.4869,-4.6351,-4.6426,-4.7757,-4.8962,-4.9515,-4.9665,-4.969,0.0,-4.959,-5.0014,-5.1079,-5.2385,0.0,0.0,0.0,-5.7042,-5.6432,-5.6403,-5.5881,-5.4691,-5.4023,-5.3646,-5.35,-5.35,-5.35,-5.35,-5.329,-5.2648,-5.1674,-5.1292,-5.0518,-4.9562,-4.9562,0.0,-4.8184,-4.9284,-4.8501,-4.6705,-4.7621,-4.7403,-4.6424,-4.5395,-4.5661,-4.6503,-4.5555,-4.5873,-4.6943,-4.8858,-4.9524,-4.9378,-4.8624,-4.8344,-4.8275,-4.7637,-4.727,-4.6998,-4.6998,-4.6769,-4.6609,-4.6535,-4.6358,-4.6225,-4.6225,-4.6225,-4.6314,-4.658,-4.68,-4.6989,-4.7116,-4.6681,-4.619,-4.6022,-4.5035,-4.4466,-4.4915,-4.4018,-4.329,-4.329,-4.329,-4.329,-4.329,-4.329,-4.329,-4.329,-4.329,-4.329,-4.329,-4.329,-4.329,-4.329,-4.329,-4.329,-4.329,-4.329,-4.329,-4.329,-4.329,-4.329,-4.1124,-4.1389,-4.1533,-4.1244,-4.1389,-4.1461,-4.0908,-4.098,-4.1272,-4.1629,-4.2332,-4.2922,-4.2975,-4.4568,-4.5874,-4.5874,-4.7029,-4.8209,-4.9038,-4.9163,-4.9264,-4.9565,-4.959,-4.9822,-5.0436,-5.2324,-5.3724,-5.4382,0.0,-5.6897,-5.5939,-5.5271,-5.4633,-5.4023,-5.3675,-5.35,-5.35,-5.35,-5.35,-5.35,-5.35,-5.3184,-5.2594,-5.1974,-5.1347,-5.0796,-5.0182,0.0,-4.9049,-4.9675,-4.8495,-4.6481,-4.7619,-4.7002,-4.5449,-4.5502,-4.5502,-4.5449,-4.5502,-4.5502,-4.5714,-4.7383,-4.8324,-4.8787,-4.8721,-4.8663,-4.8595,-4.7956,-4.741,-4.6991,-4.6991,-4.6812,-4.6609,-4.6609,-4.658,-4.6491,-4.6269,-4.6403,-4.6624,-4.6712,-4.6931,-4.7149,-4.7266,-4.704,-4.6711,-4.6339,-4.5783,-4.5334,-4.5304,-4.4736,-4.4227,-4.3858,-4.3499,-4.329,-4.329,-4.329,-4.329,-4.329,-4.329,-4.329,-4.329,-4.329,-4.329,-4.329,-4.329,-4.329,-4.329,-4.329,-4.329,-4.329,-4.329,-4.329,-4.1341,-4.1725,-4.2014,-4.1485,-4.1677,-4.1725,-4.0787,-4.0884,-4.1248,-4.1321,-4.2078,-4.2774,-4.2893,-4.4109,-4.5221,-4.5447,-4.6301,-4.738,-4.8611,-4.8761,-4.8987,-4.954,-4.959,0.0,-4.959,-5.1979,0.0,-5.351,0.0,0.0,-5.5474,-5.4197,-5.35,-5.35,-5.35,-5.35,-5.35,-5.35,-5.35,-5.35,-5.35,-5.35,-5.3448,-5.2541,-5.2082,-5.2028,-5.11,0.0,0.0,-5.0294,-4.8861,-4.6816,-4.7454,-4.6623,-4.5101,-4.5449,-4.5342,-4.5101,-4.5449,-4.5182,-4.4832,-4.5661,-4.6712,-4.7707,-4.8055,-4.8353,-4.8413,-4.7654,-4.709,-4.6674,-4.6627,-4.6417,-4.6269,-4.6535,-4.6756,-4.68,-4.6403,-4.658,-4.6844,-4.6887,-4.7062,-4.7222,-4.7309,-4.7309,-4.713,-4.6621,-4.6369,-4.6172,-4.5783,-4.5484,-4.5155,-4.4796,-4.4137,-4.3708,-4.3708,-4.3708,-4.3708,-4.3708,-4.3708,-4.3708,-4.3708,-4.3708,-4.3708,-4.3708,-4.3708,-4.3648,-4.3499,-4.3648,-4.3648,-4.3499,-4.3648,-4.3708,-4.1894,-4.2338,-4.2627,-4.2038,-4.1942,-4.1822,-4.1244,-4.1148,-4.1287,-4.1533,-4.1915,-4.2273,-4.2481,-4.3344,-4.4292,-4.5321,-4.5999,-4.6954,-4.856,-4.8761,-4.8987,-4.954,0.0,0.0,-4.959,-5.1979,-5.351,-5.351,0.0,0.0,-5.5416,-5.4197,-5.35,-5.35,-5.35,-5.35,-5.35,-5.35,-5.35,-5.35,-5.35,-5.35,-5.35,-5.3395,-5.3343,-5.3343,-5.3237,0.0,0.0,-5.1511,-5.0132,-4.7838,-4.6928,-4.6377,-4.5899,-4.4016,-4.4507,-4.5846,-4.3987,-4.3932,-4.4724,-4.4832,-4.5555,-4.6476,-4.6526,-4.7248,-4.7808,-4.6754,-4.6356,-4.6248,-4.6151,-4.5515,-4.5173,-4.6314,-4.6756,-4.6844,-4.6624,-4.6609,-4.6668,-4.6887,-4.6931,-4.7019,-4.7266,-4.7309,-4.7279,-4.7219,-4.6711,-4.6531,-4.707,-4.6052,-4.5514,-4.6082,-4.5514,-4.5125,-4.5125,-4.5125,-4.5125,-4.5125,-4.5125,-4.5125,-4.5125,-4.5125,-4.5125,-4.5125,-4.5125,-4.4825,-4.4227,-4.4825,-4.4796,-4.4227,-4.4825,-4.5125,-4.1856,-4.241,-4.2699,-4.211,-4.2265,-4.2289,-4.1595,-4.1344,-4.1402,-4.2004,-4.2142,-4.2256,-4.2706,-4.3576,-4.4443,-4.4895,-4.5723,-4.6652,-4.7657,-4.7782,-4.8109,-4.8987,-4.9113,0.0,0.0,0.0,-5.4144,0.0,0.0,0.0,-5.5416,-5.4197,-5.35,-5.35,-5.35,-5.35,-5.35,-5.35,-5.35,-5.35,-5.35,-5.35,-5.35,-5.35,-5.35,-5.35,-5.35,0.0,0.0,-5.2783,-5.1601,-4.9687,-4.887,-4.7433,-4.582,-4.5206,-4.4698,-4.4289,-4.4097,-4.3878,-4.3657,-4.3657,-4.3987,-4.4561,-4.5899,-4.7126,-4.7768,-4.6632,-4.6491,-4.6469,-4.5437,-4.5021,-4.519,-4.6358,-4.6756,-4.6887,-4.68,-4.68,-4.6844,-4.7062,-4.7149,-4.7149,-4.7266,-4.7309,-4.7309,-4.7309,-4.707,-4.701,-4.7279,-4.683,-4.6621,-4.689,-4.5933,-4.5304,-4.5304,-4.5304,-4.5304,-4.5304,-4.5304,-4.5304,-4.5304,-4.5304,-4.5304,-4.5304,-4.5304,-4.5155,-4.4915,-4.5155,-4.5155,-4.4915,-4.5185,-4.5304,-4.1765,-4.2528,-4.2999,-4.2386,-4.2614,-4.2756,-4.1986,-4.1613,-4.1631,-4.2256,-4.2312,-4.2369,-4.2762,-4.3683,-4.4443,-4.4593,-4.5447,-4.6326,-4.6968,-4.7068,-4.7481,-4.841,0.0,-4.8736,0.0,-5.1874,-5.4505,0.0,0.0,0.0,-5.5155,-5.411,-5.35,-5.35,-5.35,-5.35,-5.35,-5.35,-5.35,-5.35,-5.35,-5.35,-5.35,-5.35,-5.35,-5.35,-5.35,0.0,0.0,-5.3102,-5.2358,-5.1254,-5.0138,-4.819,-4.6137,-4.6062,-4.5017,-4.3572,-4.4042,-4.3878,-4.3462,-4.3098,-4.2986,-4.3295,-4.4859,-4.6137,-4.6764,-4.5661,-4.5705,-4.5747,-4.4249,-4.4588,-4.5419,-4.6001,-4.6373,-4.6594,-4.6594,-4.6594,-4.6638,-4.6814,-4.7106,-4.7309,-4.7309,-4.7309,-4.7309,-4.7309,-4.7309,-4.7309,-4.7309,-4.7309,-4.7309,-4.7309,-4.6471,-4.5873,-4.5873,-4.5873,-4.5873,-4.5873,-4.5873,-4.5873,-4.5873,-4.5873,-4.5873,-4.5873,-4.5873,-4.5783,-4.5603,-4.5783,-4.5783,-4.5603,-4.5813,-4.5783,-4.1655,-4.2763,-4.3796,-4.2999,-4.2998,-4.303,-4.253,-4.2225,-4.211,-4.211,-4.2312,-4.2513,-4.2513,-4.3212,-4.3991,-4.4543,-4.5121,-4.5874,-4.6979,-4.7068,-4.733,0.0,0.0,-4.8134,-4.8736,-5.1637,0.0,0.0,0.0,0.0,-5.4546,-5.3878,-5.35,-5.35,-5.35,-5.35,-5.35,-5.35,-5.35,-5.35,-5.35,-5.35,-5.35,-5.35,-5.35,0.0,0.0,0.0,0.0,-5.219,-5.2063,-5.2336,-5.002,-4.8355,-4.7162,-4.6,-4.5221,-4.4507,-4.3406,-4.3713,-4.4533,-4.3351,-4.2986,-4.2986,-4.3042,-4.3823,-4.4533,-4.3351,-4.3384,-4.3466,-4.2422,-4.4004,-4.573,-4.5167,-4.5389,-4.5824,-4.5824,-4.5824,-4.5824,-4.5824,-4.6638,-4.7309,-4.7309,-4.7309,-4.7309,-4.7309,-4.7309,-4.7309,-4.7309,-4.7309,-4.7309,-4.7309,-4.7309,-4.7279,-4.7279,-4.7279,-4.7279,-4.7279,-4.7279,-4.7279,-4.7279,-4.7279,-4.7279,-4.7279,-4.7279,-4.695,-4.6279,-4.698,-4.695,-4.6322,-4.698,-4.692,-4.1212,-4.1932,-4.2568,-4.2339,-4.2641,-4.2904,-4.2569,-4.2265,-4.2224,-4.265,-4.2594,-4.2569,-4.2818,-4.3683,-4.4418,-4.4593,-4.5422,-4.6175,-4.6527,-4.6577,0.0,-4.7305,-4.8483,-4.9594,0.0,0.0,0.0,0.0,0.0,0.0,-5.4517,-5.3878,-5.35,-5.35,-5.35,-5.35,-5.35,-5.35,-5.35,-5.35,-5.35,-5.35,-5.35,-5.35,-5.35,0.0,0.0,0.0,0.0,-5.3102,-5.304,-5.3071,-5.1447,-5.009,-4.8825,-4.681,-4.5501,-4.4507,-4.3406,-4.324,-4.3462,-4.3129,-4.2986,-4.2986,-4.2986,-4.3768,-4.4615,-4.4261,-4.3156,-4.2177,-4.2788,-4.3562,-4.4274,-4.4247,-4.4886,-4.5417,-4.4915,-4.4638,-4.4776,-4.5644,-4.6077,-4.6506,-4.7149,-4.7309,-4.7309,-4.7309,-4.7309,-4.7309,-4.7309,-4.7309,-4.7309,-4.7309,-4.7309,-4.7309,-4.7309,-4.7309,-4.7309,-4.7309,-4.7309,-4.7309,-4.7309,-4.7309,-4.7309,-4.7309,-4.7309,-4.7219,-4.698,-4.7219,-4.7189,-4.701,-4.7219,-4.7189,-4.0631,-4.1312,-4.1928,-4.1955,-4.2389,-4.2782,-4.2804,-4.263,-4.2538,-4.293,-4.2793,-4.2737,-4.2986,-4.389,-4.4618,-4.4618,-4.5573,-4.6301,0.0,0.0,0.0,-4.6778,0.0,0.0,0.0,0.0,0.0,0.0,0.0,0.0,-5.4139,-5.3733,-5.35,-5.35,-5.35,-5.35,-5.35,-5.35,-5.35,-5.35,-5.35,-5.35,-5.35,-5.35,-5.35,0.0,0.0,0.0,0.0,-5.2996,-5.3102,-5.3308,-5.1375,-5.0336,-4.9631,-4.7448,-4.5849,-4.4587,-4.3878,-4.3351,-4.2986,-4.2986,-4.2986,-4.2986,-4.2986,-4.3365,-4.3787,-4.3787,-4.2551,-4.144,-4.2085,-4.2823,-4.3411,-4.3512,-4.4248,-4.476,-4.4185,-4.3966,-4.3978,-4.4573,-4.5281,-4.6003,-4.6638,-4.7062,-4.7309,-4.7309,-4.7309,-4.7309,-4.7309,-4.7309,-4.7309,-4.7309,-4.7309,-4.7309,-4.7309,-4.7309,-4.7309,-4.7309,-4.7309,-4.7266,-4.7149,-4.7149,-4.7149,-4.7149,-4.7149,-4.7222,-4.7309,-4.7309,-4.7309,-4.7309,-4.7309,-4.7309,0.0,-4.0877,-4.1712,-4.1872,-4.2238,-4.2662,-4.3159,-4.3112,0.0,-4.2986,-4.2986,-4.2986,-4.3037,-4.3865,-4.4593,-4.4669,-4.5573,0.0,0.0,-4.6301,0.0,0.0,-4.788,0.0,-5.0743,0.0,0.0,0.0,0.0,0.0,-5.3559,-5.35,-5.35,-5.35,-5.35,-5.35,-5.35,-5.35,-5.35,-5.35,-5.35,-5.35,-5.35,-5.35,-5.35,0.0,0.0,0.0,0.0,-5.2298,-5.2487,-5.3232,-5.0378,-4.9551,-4.9659,-4.7965,-4.625,-4.4778,-4.4724,-4.3987,-4.3098,-4.3042,-4.2986,-4.2961,-4.2936,-4.2615,-4.2213,-4.2213,-4.1731,-4.11,-4.0651,-4.1827,-4.307,-4.2823,-4.3445,-4.4017,-4.3706,-4.362,-4.3453,-4.2982,-4.4406,-4.5689,-4.5689,-4.655,-4.7222,-4.7222,-4.7222,-4.7222,-4.7369,-4.7369,-4.7369,-4.7369,-4.7369,-4.7369,-4.7309,-4.7309,-4.7309,-4.7309,-4.7309,-4.7149,-4.6931,-4.6931,-4.6931,-4.6931,-4.6931,-4.7062,-4.7309,-4.7266,-4.7266,-4.7266,-4.7266,-4.7266,-3.9796,0.0,-4.1393,-4.1464,-4.2193,-4.2899,0.0,-4.3006,-4.2986,-4.2986,-4.2986,-4.3112,-4.3539,-4.3815,-4.4267,-4.5146,-4.5497,-4.5824,-4.625,0.0,0.0,-4.6301,-4.8283,-4.9778,-5.0118,0.0,0.0,0.0,0.0,-5.3675,-5.353,-5.35,-5.35,-5.35,-5.35,-5.35,-5.35,-5.35,-5.35,-5.35,-5.35,-5.35,-5.35,-5.35,-5.35,0.0,0.0,0.0,-5.3448,-5.3184,-5.3237,-5.3332,-5.1684,-5.054,-4.9735,-4.8331,-4.7029,-4.582,-4.4993,-4.4507,-4.4152,-4.3295,-4.2986,-4.2886,-4.2539,-4.2313,-4.2213,-4.2213,-4.1455,-4.0729,-4.0788,-4.1673,-4.2443,-4.1802,-4.2912,-4.3897,-4.3047,-4.2731,-4.2767,-4.3377,-4.4129,-4.4638,-4.4638,-4.5463,-4.6166,-4.6166,-4.6166,-4.6638,-4.788,-4.8057,-4.8057,-4.8057,-4.8057,-4.7848,-4.7339,-4.7309,-4.7309,-4.7309,-4.7309,-4.7149,-4.6931,-4.6931,-4.6931,-4.6931,-4.7106,-4.7266,-4.7309,-4.7062,-4.6975,-4.6975,-4.6975,-4.6975,-3.9697,-4.0501,-4.1351,-4.1656,-4.2359,-4.3037,-4.3288,-4.3162,-4.2986,-4.2986,-4.2986,-4.3062,-4.3363,-4.384,-4.4392,-4.4995,-4.5522,0.0,0.0,0.0,-4.6301,-4.6301,-4.8442,-4.9901,0.0,0.0,0.0,0.0,0.0,-5.35,-5.35,-5.35,-5.35,-5.35,-5.35,-5.35,-5.35,-5.35,-5.35,-5.35,-5.35,-5.35,-5.35,-5.35,-5.35,0.0,0.0,0.0,-5.35,-5.35,-5.35,-5.3361,-5.1828,-5.0735,-4.9735,-4.8211,-4.7114,-4.6162,-4.5101,-4.437,-4.3823,-4.3184,-4.2986,-4.2861,-4.2363,-4.2037,-4.1731,-4.148,-4.0802,-4.0199,-4.0583,-4.1282,-4.1904,-4.1896,-4.2888,-4.3623,-4.3097,-4.276,-4.271,-4.3296,-4.385,-4.4132,-4.3856,-4.4753,-4.5551,-4.5582,-4.5734,-4.64,-4.8089,-4.8297,-4.8297,-4.8297,-4.8297,-4.8027,-4.7369,-4.7309,-4.7309,-4.7309,-4.7149,-4.7019,-4.6756,-4.6756,-4.68,-4.6931,-4.7149,-4.7266,-4.7106,-4.6975,-4.6844,-4.6756,-4.6844,-4.6931,-3.9798,-4.0782,-4.1872,-4.2011,-4.2615,-4.3212,-4.3589,-4.3313,-4.2986,-4.2986,-4.2986,-4.3037,-4.3187,-4.3915,-4.4593,0.0,0.0,0.0,-4.6301,-4.6301,-4.6301,-4.6301,-4.8442,0.0,0.0,0.0,0.0,0.0,0.0,-5.35,-5.35,-5.35,-5.35,-5.35,-5.35,-5.35,-5.35,-5.35,-5.35,-5.35,-5.35,-5.35,-5.35,-5.35,-5.35,-5.35,0.0,0.0,-5.35,-5.35,-5.35,-5.3337,-5.1779,-5.065,-4.9739,-4.8126,-4.7021,-4.6162,-4.5101,-4.3932,-4.2986,-4.2986,-4.2986,-4.2861,-4.2363,-4.1781,-4.12,-4.0777,-4.0249,-3.9923,-4.04,-4.1003,-4.1634,-4.2384,-4.2946,-4.342,-4.345,-4.3241,-4.3036,-4.3127,-4.3593,-4.3865,-4.3255,-4.4141,-4.5088,-4.5395,-4.5631,-4.6437,-4.8343,-4.8596,-4.8521,-4.8343,-4.8387,-4.8133,-4.7271,-4.7209,-4.7266,-4.7266,-4.7019,-4.68,-4.6609,-4.6609,-4.6668,-4.6887,-4.7106,-4.7106,-4.6931,-4.6844,-4.6712,-4.6535,-4.6712,-4.6844,-4.0249,-4.2309,-4.3823,-4.1926,-4.2585,-4.3564,-4.3187,-4.3037,-4.2986,-4.2986,-4.2986,-4.3263,-4.4192,-4.4141,-4.4392,0.0,0.0,-4.6301,0.0,0.0,-4.6301,-4.6301,0.0,0.0,0.0,0.0,0.0,0.0,0.0,-5.35,-5.35,-5.35,-5.35,-5.35,-5.35,-5.35,-5.35,-5.35,-5.35,-5.35,-5.35,-5.35,-5.35,-5.35,-5.35,-5.35,0.0,-5.35,-5.35,-5.35,-5.35,-5.339,-5.2648,-5.1332,-4.9792,-4.9018,-4.7702,-4.6162,-4.5101,-4.3932,-4.2986,-4.2986,-4.2986,-4.2861,-4.2363,-4.1781,-4.1275,-4.1175,-4.0802,-4.04,-4.0501,-4.1279,-4.2112,-4.2242,-4.2835,-4.3492,-4.3771,-4.3361,-4.3138,-4.3649,-4.3702,-4.3461,-4.284,-4.333,-4.4265,-4.549,-4.5705,-4.6728,-4.9548,-4.9897,-4.9545,-4.8646,-4.8903,-4.8521,-4.6936,-4.6919,-4.6975,-4.6975,-4.6931,-4.68,-4.6609,-4.6609,-4.6668,-4.6887,-4.6931,-4.6931,-4.6931,-4.6491,-4.6314,-4.6269,-4.6314,-4.6447,-3.9998,-4.1681,-4.3313,-4.2881,-4.4739,-4.6593,-4.633,-4.5541,-4.4755,-4.4446,-4.3919,-4.3589,-4.4091,0.0,-4.4694,-4.6075,0.0,-4.6301,-4.6301,-4.6301,-4.6301,0.0,0.0,0.0,0.0,0.0,0.0,0.0,0.0,0.0,-5.35,-5.35,-5.35,-5.35,-5.35,-5.35,-5.35,-5.35,-5.35,-5.35,-5.35,-5.35,-5.35,-5.35,-5.35,-5.35,0.0,-5.35,-5.35,-5.35,-5.35,-5.3442,-5.2833,-5.1517,-4.9788,-4.8808,-4.6774,-4.4615,-4.5342,-4.4453,-4.2986,-4.2986,-4.2986,-4.2861,-4.2363,-4.2037,-4.1731,-4.1376,-4.0899,-4.0651,-4.1254,-4.1835,-4.2288,-4.259,-4.2897,-4.324,-4.3598,-4.3339,-4.319,-4.3762,-4.3666,-4.3301,-4.2695,-4.2991,-4.3494,-4.4253,-4.4451,-4.5371,-4.7689,-4.8143,-4.8046,-4.758,-4.8025,-4.788,-4.6593,-4.6726,-4.68,-4.6535,-4.6668,-4.6712,-4.658,-4.6712,-4.68,-4.6931,-4.6931,-4.68,-4.6506,-4.6314,-4.6135,-4.6046,-4.6135,-4.6269,-4.0235,-4.1511,-4.2984,-4.3781,-4.5924,-4.8045,-4.8734,-4.7307,-4.5719,-4.5611,-4.4612,-4.384,-4.3966,-4.4543,0.0,-4.6175,-4.6301,-4.6301,-4.6301,-4.6301,-4.6301,0.0,0.0,0.0,0.0,0.0,0.0,0.0,0.0,0.0,-5.35,-5.35,-5.35,-5.35,-5.35,-5.35,-5.35,-5.35,-5.35,-5.35,-5.35,-5.35,-5.35,-5.35,-5.35,-5.35,-5.35,-5.35,-5.35,-5.35,-5.35,-5.3442,-5.2833,-5.1431,-4.9511,-4.8108,-4.582,-4.3602,-4.5021,-4.4398,-4.2986,-4.2986,-4.2986,-4.2886,-4.2539,-4.2313,-4.2162,-4.1806,-4.1329,-4.1103,-4.1986,-4.2313,-4.2514,-4.2886,-4.2986,-4.3073,-4.3351,-4.3184,-4.3209,-4.3789,-4.3598,-4.3224,-4.2874,-4.2907,-4.3162,-4.3546,-4.3781,-4.4483,-4.6146,-4.6533,-4.6661,-4.6459,-4.6995,-4.7061,-4.6361,-4.6546,-4.6462,-4.5882,-4.6225,-4.6358,-4.618,-4.6373,-4.6506,-4.655,-4.6506,-4.6417,-4.6314,-4.618,-4.6046,-4.5895,-4.5792,-4.5792,-4.1773,-4.3216,-4.4468,-4.4098,-4.4119,-4.4925,-4.7702,-4.6114,-4.4269,-4.5366,-4.4612,-4.3966,-4.4468,-4.5447,-4.6225,-4.6301,-4.6301,-4.6301,-4.6301,0.0,0.0,0.0,0.0,0.0,0.0,0.0,0.0,0.0,0.0,0.0,-5.35,-5.35,-5.35,-5.35,-5.35,-5.35,-5.35,-5.35,-5.35,-5.35,-5.35,-5.35,-5.35,-5.35,-5.35,-5.35,-5.35,-5.35,-5.35,-5.35,-5.35,-5.3442,-5.2833,-5.1144,-4.8869,-4.7087,-4.5661,-4.4479,-4.3572,-4.3129,-4.2986,-4.2986,-4.2986,-4.2961,-4.2936,-4.2615,-4.2313,-4.2735,-4.2514,-4.2112,-4.2187,-4.259,-4.2936,-4.2961,-4.2986,-4.3073,-4.3351,-4.3184,-4.3209,-4.3789,-4.3432,-4.3129,-4.33,-4.3134,-4.3415,-4.4674,-4.4863,-4.5395,-4.6833,-4.7039,-4.6782,-4.6056,-4.6389,-4.6553,-4.6297,-4.6276,-4.5837,-4.4869,-4.552,-4.564,-4.4869,-4.5081,-4.5326,-4.5508,-4.5326,-4.5673,-4.6535,-4.6135,-4.594,-4.5895,-4.4897,-4.4545,-4.2476,-4.3845,-4.5305,-4.5856,-4.5475,-4.5744,-4.8702,-4.8192,-4.7251,-4.7695,-4.654,-4.5258,-4.4684,0.0,-4.5899,-4.625,-4.6024,-4.5924,-4.625,0.0,0.0,0.0,0.0,0.0,0.0,0.0,0.0,0.0,0.0,0.0,-5.35,-5.35,-5.35,-5.35,-5.35,-5.3326,-5.292,-5.3326,-5.3326,-5.292,-5.3326,-5.35,-5.35,-5.35,-5.35,-5.35,-5.35,-5.35,-5.35,-5.35,-5.35,-5.3413,-5.2397,-5.0491,-4.828,-4.762,-4.6242,-4.4615,-4.4206,-4.3628,-4.2986,-4.2986,-4.2986,-4.2986,-4.2986,-4.2891,-4.2766,-4.2911,-4.2836,-4.2715,-4.2715,-4.2866,-4.2986,-4.2986,-4.2986,-4.3042,-4.3129,-4.3073,-4.3098,-4.3321,-4.3154,-4.3042,-4.3129,-4.3073,-4.3184,-4.3713,-4.3742,-4.3962,-4.4481,-4.4859,-4.4993,-4.4696,-4.4937,-4.5265,-4.5694,-4.5453,-4.5384,-4.5611,-4.531,-4.473,-4.3768,-4.4702,-4.5207,-4.5161,-4.5718,-4.5837,-4.5401,-4.573,-4.5247,-4.3984,-4.4219,-4.4031,-4.3623,-4.4639,-4.5866,-4.654,-4.6263,-4.6598,-4.9193,-4.8978,-4.8486,-4.9173,-4.7909,-4.6378,-4.5368,0.0,0.0,0.0,-4.5874,-4.5874,0.0,0.0,0.0,0.0,0.0,0.0,0.0,0.0,0.0,0.0,0.0,0.0,0.0,-5.35,-5.3413,-5.321,-5.321,-5.3007,-5.2623,-5.3007,-5.3094,-5.2862,-5.3297,-5.35,-5.35,-5.35,-5.35,-5.35,-5.35,-5.35,-5.35,-5.35,-5.3268,-5.2833,-5.1962,-5.0349,-4.8424,-4.7717,-4.6503,-4.5101,-4.4424,-4.3683,-4.2986,-4.2986,-4.2986,-4.2986,-4.2986,-4.2986,-4.2986,-4.2986,-4.2986,-4.2986,-4.2986,-4.2986,-4.2986,-4.2986,-4.2986,-4.2986,-4.2986,-4.2986,-4.2986,-4.2986,-4.2986,-4.2986,-4.2986,-4.2986,-4.2986,-4.2986,-4.2986,-4.2986,-4.2986,-4.3376,-4.3653,-4.3708,-4.4098,-4.4447,-4.4836,-4.4639,-4.4537,-4.473,-4.4003,-4.3436,-4.3054,-4.4238,-4.4794,-4.4535,-4.5582,-4.5673,-4.4823,-4.5201,-4.4527,-4.2792,-4.315,-4.2958,-4.5315,-4.5765,-4.6161,-4.5747,-4.6068,-4.7007,-4.8705,-4.7784,-4.7176,-4.9426,-4.8517,-4.7105,-4.6529,-4.632,0.0,-4.5573,-4.5949,0.0,0.0,0.0,0.0,0.0,0.0,0.0,0.0,0.0,0.0,0.0,0.0,0.0,0.0,-5.35,-5.321,-5.2652,-5.2623,-5.2623,-5.2594,-5.2623,-5.2862,-5.35,-5.35,-5.35,-5.35,-5.35,-5.35,-5.35,-5.35,-5.35,-5.35,-5.35,-5.2746,-5.1614,-5.1614,-5.083,-4.9424,-4.715,-4.6319,-4.5979,-4.3768,-4.3042,-4.2986,-4.2986,-4.2986,-4.2986,-4.2986,-4.2986,-4.2986,-4.2986,-4.2986,-4.2986,-4.2986,-4.2986,-4.2986,-4.2986,-4.2986,-4.2986,-4.2986,-4.2986,-4.2986,-4.2986,-4.2986,-4.2986,-4.2986,-4.2986,-4.2986,-4.2986,-4.2986,-4.2986,-4.2986,-4.2986,-4.3073,-4.3381,-4.4119,-4.4332,-4.3772,-4.3864,-4.3318,-4.1743,-4.1369,-4.1667,-4.2744,-4.3511,-4.3768,-4.3504,-4.4517,-4.5052,-4.4978,-4.4545,-4.3796,-4.2744,-4.1716,-4.1169,-4.5861,-4.6839,-4.7923,-4.7803,-4.8032,-4.8621,-4.9918,-4.953,-4.8996,-4.9182,-4.846,-4.7616,-4.7081,-4.6619,0.0,-4.6083,-4.5875,0.0,0.0,0.0,0.0,0.0,0.0,0.0,0.0,0.0,0.0,0.0,0.0,0.0,0.0,-5.35,-5.321,-5.2652,-5.2623,-5.2187,-5.1287,-5.1672,-5.1759,-5.1527,-5.1962,-5.2659,-5.35,-5.35,-5.35,-5.35,-5.35,-5.35,-5.3471,-5.3036,-5.2107,-5.0946,-5.0946,-5.0423,-4.9522,-4.8072,-4.7023,-4.611,-4.467,-4.3657,-4.2986,-4.2986,-4.2986,-4.2986,-4.2986,-4.2986,-4.2986,-4.2986,-4.2986,-4.2986,-4.2986,-4.2986,-4.2986,-4.2986,-4.2986,-4.2986,-4.2986,-4.2986,-4.2986,-4.2986,-4.2986,-4.2986,-4.2986,-4.2986,-4.2986,-4.2986,-4.2986,-4.3073,-4.324,-4.3295,-4.3254,-4.3147,-4.3536,-4.3573,-4.311,-4.3496,-4.3452,-4.2722,-4.2286,-4.1664,-4.0668,-4.1716,-4.223,-4.2181,-4.3909,-4.4097,-4.2593,-4.3768,-4.3006,-4.0618,-4.1045,-4.0844,-4.6679,-4.784,-4.9185,-4.9756,-4.9925,-5.016,-5.0614,-5.0464,-5.0155,-5.0041,-4.9333,-4.854,-4.7988,-4.7406,0.0,-4.6692,0.0,0.0,0.0,0.0,0.0,0.0,0.0,0.0,0.0,0.0,0.0,0.0,0.0,0.0,0.0,-5.35,-5.3123,-5.2223,-5.2194,-5.1701,-5.0685,-5.1062,-5.1294,-5.149,-5.1556,-5.2165,-5.3123,-5.3123,-5.3268,-5.35,-5.3239,-5.3123,-5.3094,-5.2455,-5.1585,-5.0734,-5.0734,-5.0328,-4.9571,-4.8424,-4.728,-4.6162,-4.5101,-4.3932,-4.2986,-4.2986,-4.2986,-4.2986,-4.2986,-4.2986,-4.2986,-4.2986,-4.2986,-4.2986,-4.2986,-4.2986,-4.2986,-4.2986,-4.2986,-4.2986,-4.2986,-4.2986,-4.2986,-4.2986,-4.2986,-4.2986,-4.2986,-4.2986,-4.2986,-4.2986,-4.2986,-4.3073,-4.324,-4.324,-4.3169,-4.3005,-4.3361,-4.3353,-4.2632,-4.3206,-4.3255,-4.2431,-4.229,-4.1646,-4.0427,-4.1279,-4.1739,-4.1739,-4.3513,-4.365,-4.2084,-4.3215,-4.2555,-4.035,-4.0977,-4.0925,-4.7521,-4.8653,-4.9881,-5.1149,-5.1497,-5.1381,-5.0743,-5.0598,-5.0743,-5.1323,0.0,-4.9615,-4.9154,-4.8503,-4.792,0.0,0.0,0.0,0.0,0.0,0.0,0.0,0.0,0.0,0.0,0.0,0.0,0.0,0.0,0.0,0.0,-5.35,-5.2949,-5.1672,-5.1614,-5.1294,-5.0647,-5.0598,-5.1228,-5.2362,-5.173,-5.1788,-5.2449,-5.2565,-5.292,-5.3471,-5.2833,-5.2594,-5.2426,-5.1788,-5.1149,-5.0598,-5.0598,-5.027,-4.9571,-4.8553,-4.7383,-4.6162,-4.5208,-4.4042,-4.2986,-4.2986,-4.2986,-4.2986,-4.2986,-4.2986,-4.2986,-4.2986,-4.2986,-4.2986,-4.2986,-4.2986,-4.2986,-4.2986,-4.2986,-4.2986,-4.2986,-4.2986,-4.2986,-4.2986,-4.2986,-4.2986,-4.2986,-4.2986,-4.2986,-4.2986,-4.2986,-4.2986,-4.2986,-4.2986,-4.2986,-4.2986,-4.3487,-4.3394,-4.2318,-4.3025,-4.2903,-4.1379,-4.1673,-4.1727,-4.1354,-4.1722,-4.1948,-4.1997,-4.3273,-4.3544,-4.2693,-4.2838,-4.2368,-4.1275,-4.1275,-4.1275,-4.6853,-4.7956,-4.9117,-4.9901,-5.0481,-5.0714,-5.0046,-4.995,-4.993,-5.0075,-4.9878,-4.9672,-4.9577,-4.9031,-4.8454,0.0,0.0,0.0,0.0,0.0,0.0,0.0,0.0,0.0,0.0,0.0,0.0,0.0,0.0,0.0,-5.35,-5.35,-5.2949,-5.1672,-5.1614,-5.1062,-4.995,-4.995,-5.0017,0.0,-5.0162,-5.0452,-5.112,-5.2158,-5.292,-5.3471,-5.2833,-5.2281,-5.1788,-5.1149,-5.0481,-4.995,-4.995,-4.9863,-4.9669,-4.9424,-4.8044,-4.6267,-4.6005,-4.467,-4.2986,-4.2986,-4.2986,-4.2986,-4.2986,-4.2986,-4.2986,-4.2986,-4.2986,-4.2986,-4.2986,-4.2986,-4.2986,-4.2986,-4.2986,-4.2986,-4.2986,-4.2986,-4.2986,-4.2986,-4.2986,-4.2986,-4.2986,-4.2986,-4.2986,-4.2986,-4.2986,-4.2986,-4.2986,-4.2986,-4.2986,-4.2986,-4.3295,-4.3123,-4.2263,-4.3165,-4.3121,-4.1404,-4.2027,-4.2077,-4.13,-4.1398,-4.1588,-4.185,-4.2916,-4.2995,-4.2056,-4.2814,-4.2553,-4.1275,-4.1275,-4.1275,-4.6517,-4.7938,-4.9494,-5.0743,-5.1374,-5.1374,-5.0415,-5.0211,-5.0124,-4.9805,-4.9717,-4.9717,-4.9717,-4.9437,0.0,0.0,0.0,0.0,0.0,0.0,0.0,0.0,0.0,0.0,0.0,0.0,0.0,0.0,0.0,-5.35,-5.35,-5.35,-5.3065,-5.2107,-5.1788,-5.1149,-5.0211,-4.9892,-4.9843,-5.0162,-4.9814,-5.0191,-5.1149,-5.1817,-5.2455,-5.3007,-5.2078,-5.1468,-5.112,-5.0452,-5.0037,-4.9717,-4.9717,-4.9717,-4.9717,-4.9717,-4.8574,-4.7023,-4.6476,-4.5182,-4.3713,-4.3184,-4.2986,-4.2986,-4.2986,-4.2986,-4.2986,-4.2986,-4.2986,-4.2986,-4.2986,-4.2986,-4.2986,-4.2986,-4.2986,-4.2986,-4.2986,-4.2986,-4.2986,-4.2986,-4.2986,-4.2986,-4.2986,-4.2986,-4.2986,-4.2986,-4.2986,-4.2986,-4.2986,-4.2986,-4.2986,-4.2986,-4.324,-4.3169,-4.264,-4.339,-4.3369,-4.2213,-4.2659,-4.2739,-4.2133,-4.2133,-4.2099,-4.1996,-4.2519,-4.262,-4.2378,-4.2877,-4.2789,-4.2133,-4.2133,-4.2133,-4.6156,-4.7898,-4.9872,-5.1904,-5.2362,-5.1991,-5.1062,-5.083,-5.0656,-4.9988,-4.9805,-4.9717,-4.9717,-4.9717,0.0,0.0,0.0,0.0,0.0,0.0,0.0,0.0,0.0,0.0,0.0,0.0,0.0,0.0,0.0,-5.35,-5.35,-5.35,-5.3181,-5.2426,-5.1904,-5.1265,-5.0511,-5.0008,-5.0008,-5.0481,-4.9979,-5.0423,-5.1759,-5.1439,-5.1759,-5.2565,-5.1287,-5.0734,-5.0676,-5.0008,-4.9717,-4.9717,-4.9717,-4.9717,-4.9717,-4.9717,-4.9001,-4.7869,-4.6712,-4.5608,-4.4507,-4.3351,-4.2986,-4.2986,-4.2986,-4.2986,-4.2986,-4.2986,-4.2986,-4.2986,-4.2986,-4.2986,-4.2986,-4.2986,-4.2986,-4.2986,-4.2986,-4.2986,-4.2986,-4.2986,-4.2986,-4.2986,-4.2986,-4.2986,-4.2986,-4.2986,-4.2986,-4.2986,-4.2986,-4.2986,-4.2986,-4.2986,-4.3184,-4.324,-4.3042,-4.3487,-4.3598,-4.3098,-4.3295,-4.3295,-4.3073,-4.3042,-4.281,-4.2437,-4.2439,-4.2612,-4.3048,-4.3068,-4.3017,-4.2986,-4.2986,-4.2986,-4.4836,-4.6563,-4.8624,-5.112,-5.1323,-5.1033,-5.141,0.0,-5.1323,0.0,-5.0124,-4.9717,-4.9717,0.0,0.0,0.0,0.0,0.0,0.0,0.0,0.0,0.0,0.0,0.0,0.0,0.0,0.0,0.0,-5.35,-5.35,-5.35,-5.35,-5.2978,-5.1788,-5.1672,-5.1033,-4.9863,-4.9727,-4.9727,-4.9814,-4.9727,-5.0656,-5.2397,-5.0714,-5.0888,-5.2565,-5.1287,-5.0734,-5.0676,-5.0008,-4.9717,-4.9717,-4.9717,-4.9717,-4.9717,-4.9717,-4.9001,-4.7869,-4.6712,-4.5608,-4.4507,-4.3351,-4.2986,-4.2986,-4.2986,-4.2986,-4.2986,-4.2986,-4.2986,-4.2986,-4.2986,-4.2986,-4.2986,-4.2986,-4.2986,-4.2986,-4.2986,-4.2986,-4.2986,-4.2986,-4.2986,-4.2986,-4.2986,-4.2986,-4.2986,-4.2986,-4.2986,-4.2986,-4.2986,-4.2986,-4.2986,-4.2986,-4.3042,-4.3042,-4.2986,-4.3295,-4.3462,-4.3351,-4.3406,-4.3406,-4.3351,-4.3129,-4.3078,-4.3233,-4.3254,-4.328,-4.3335,-4.3356,-4.324,-4.2986,-4.2986,-4.2986,-4.6314,-4.7607,-4.8875,-5.1262,-5.1773,-5.173,-5.1643,-5.1614,-5.1439,-5.0801,-5.0182,-4.9717,-4.9717,0.0,0.0,0.0,0.0,0.0,0.0,0.0,0.0,0.0,0.0,0.0,0.0,0.0,0.0,0.0,-5.35,-5.35,-5.35,-5.35,-5.3268,-5.2688,-5.1991,-5.1352,-5.0772,-5.0046,-4.9717,-4.9717,-5.0095,-5.0685,-5.1519,-5.0676,-5.0888,-5.1962,-5.0685,-5.0104,-5.0104,-4.9785,-4.9717,-4.9717,-4.9717,-4.9717,-4.9717,-4.9717,-4.9375,-4.8703,-4.6919,-4.5979,-4.5289,-4.3572,-4.2986,-4.2986,-4.2986,-4.2986,-4.2986,-4.2986,-4.2986,-4.2986,-4.2986,-4.2986,-4.2986,-4.2986,-4.2986,-4.2986,-4.2986,-4.2986,-4.2986,-4.2986,-4.2986,-4.2986,-4.2986,-4.2986,-4.2986,-4.2986,-4.2986,-4.2986,-4.2986,-4.2986,-4.2986,-4.2986,-4.2986,-4.2986,-4.2986,-4.3129,-4.324,-4.3381,-4.324,-4.324,-4.3381,-4.3129,-4.3073,-4.3184,-4.3184,-4.324,-4.3381,-4.324,-4.3129,-4.2986,-4.2986,-4.2986,-4.6697,-4.7512,-4.8108,-5.0349,-5.127,-5.1556,0.0,0.0,-5.1439,0.0,-5.0328,-4.9921,0.0,0.0,0.0,0.0,0.0,0.0,0.0,0.0,0.0,0.0,0.0,0.0,0.0,0.0,0.0,0.0,-5.35,-5.35,-5.35,-5.35,-5.3355,-5.3036,-5.2107,-5.1468,-5.112,-5.0162,-4.9805,-4.9979,-5.0328,-5.0598,-5.0917,-5.0569,-5.0772,-5.1323,-5.0162,-4.9717,-4.9717,-4.9717,-4.9717,-4.9717,-4.9717,-4.9717,-4.9669,-4.9375,-4.9473,-4.9375,-4.6788,-4.6057,-4.5952,-4.3713,-4.2986,-4.2986,-4.2986,-4.2986,-4.2986,-4.2986,-4.2986,-4.2986,-4.2986,-4.2986,-4.2986,-4.2986,-4.2986,-4.2986,-4.2986,-4.2986,-4.2986,-4.2986,-4.2986,-4.2986,-4.2986,-4.2986,-4.2986,-4.2986,-4.2986,-4.2986,-4.2986,-4.2986,-4.2986,-4.2986,-4.2986,-4.2986,-4.2986,-4.2986,-4.3129,-4.3406,-4.3184,-4.3184,-4.3381,-4.3184,-4.3073,-4.2986,-4.2986,-4.3073,-4.3295,-4.3073,-4.2986,-4.2986,-4.2986,-4.2986,-4.4203,-4.4528,-4.5084,-4.7439,-4.8449,-4.9233,0.0,0.0,-5.1439,-5.0801,-5.0656,-5.0423,0.0,0.0,0.0,0.0,0.0,0.0,0.0,0.0,0.0,0.0,0.0,0.0,0.0,0.0,0.0,0.0,-5.35,-5.35,-5.35,-5.35,-5.2949,-5.1759,-5.1643,-5.1033,-4.9785,-4.9698,-4.9988,-5.0627,-5.0017,-5.0365,-5.1527,-5.0278,-5.0104,-5.0685,-4.9988,-4.9717,-4.9717,-4.9717,-4.9717,-4.9717,-4.9717,-4.9717,-4.9571,-4.8474,-4.8753,-4.9248,-4.5926,-4.5449,-4.5952,-4.3713,-4.2986,-4.2986,-4.2986,-4.2986,-4.2986,-4.2986,-4.2986,-4.2986,-4.2986,-4.2986,-4.2986,-4.2986,-4.2986,-4.2986,-4.2986,-4.2986,-4.2986,-4.2986,-4.2986,-4.2986,-4.2986,-4.2986,-4.2986,-4.2986,-4.2986,-4.2986,-4.2986,-4.2986,-4.2986,-4.2986,-4.2986,-4.2986,-4.2986,-4.2986,-4.3129,-4.3406,-4.3381,-4.3381,-4.3381,-4.3381,-4.324,-4.2986,-4.2986,-4.3042,-4.3042,-4.3042,-4.2986,-4.2986,-4.2986,-4.2986,-4.395,-4.4394,-4.4918,-4.6771,-4.8223,-4.9362,-4.9831,-5.074,-5.1414,-5.1179,-5.073,0.0,0.0,0.0,0.0,0.0,0.0,0.0,0.0,0.0,0.0,0.0,0.0,0.0,0.0,0.0,0.0,0.0,0.0,-5.35,-5.35,-5.35,-5.3123,-5.2252,-5.1817,-5.1004,-4.9746,-4.9717,-4.9785,-5.0095,-4.9785,-4.993,-5.0365,-4.9901,-4.9814,-5.0017,-4.9834,-4.9717,-4.9717,-4.9717,-4.9717,-4.9717,-4.9717,-4.9717,-4.9571,-4.8424,-4.8274,-4.8223,-4.5608,-4.494,-4.5047,-4.3517,-4.2986,-4.2986,-4.2986,-4.2986,-4.2986,-4.2986,-4.2986,-4.2986,-4.2986,-4.2986,-4.2986,-4.2986,-4.2986,-4.2986,-4.2986,-4.2986,-4.2986,-4.2986,-4.2986,-4.2986,-4.2986,-4.2986,-4.2986,-4.2986,-4.2986,-4.2986,-4.2986,-4.2986,-4.2986,-4.2986,-4.2986,-4.2986,-4.2986,-4.2986,-4.3129,-4.3406,-4.324,-4.324,-4.3381,-4.324,-4.3073,-4.2986,-4.2986,-4.2986,-4.2986,-4.2986,-4.2986,-4.2986,-4.2986,-4.2986,-4.2971,-4.3486,-4.4081,-4.5496,-4.6845,-4.8008,-4.8685,0.0,-5.0235,-5.0677,-5.0298,0.0,0.0,0.0,0.0,0.0,0.0,0.0,0.0,0.0,0.0,0.0,0.0,0.0,0.0,0.0,0.0,0.0,0.0,0.0,-5.321,-5.321,-5.2804,-5.2013,-5.1527,-5.0772,-4.9746,-4.9901,-4.9901,-4.9717,-4.9717,-4.9717,-4.9717,-4.9717,-4.9717,-4.9717,-4.9717,-4.9717,-4.9717,-4.9717,-4.9717,-4.9717,-4.9717,-4.9717,-4.9522,-4.8021,-4.7666,-4.7615,-4.5047,-4.437,-4.4507,-4.3351,-4.2986,-4.2986,-4.2986,-4.2986,-4.2986,-4.2986,-4.2986,-4.2986,-4.2986,-4.2986,-4.2986,-4.2986,-4.2986,-4.2986,-4.2986,-4.2986,-4.2986,-4.2986,-4.2986,-4.2986,-4.2986,-4.2986,-4.2986,-4.2986,-4.2986,-4.2986,-4.2986,-4.2986,-4.2986,-4.2986,-4.2986,-4.2986,-4.2986,-4.2986,-4.3073,-4.324,-4.3184,-4.3184,-4.324,-4.3184,-4.3073,-4.2986,-4.2986,-4.2986,-4.2986,-4.2986,-4.2986,-4.2986,-4.2986,-4.2986,0.0,0.0,0.0,-4.3389,0.0,0.0,-4.6977,0.0,-4.7877,-4.9221,0.0,0.0,0.0,0.0,0.0,0.0,0.0,0.0,0.0,0.0,0.0,0.0,0.0,0.0,0.0,0.0,0.0,0.0,-5.35,-5.3239,-5.2652,-5.2594,-5.2013,-5.0763,-5.0734,-5.0415,-4.9746,-5.0336,-5.0336,-4.9717,-4.9717,-4.9717,-4.9717,-4.9717,-4.9717,-4.9717,-4.9717,-4.9717,-4.9717,-4.9717,-4.9717,-4.9717,-4.9717,-4.9717,-4.9424,-4.715,-4.7023,-4.7485,-4.4126,-4.3713,-4.4479,-4.3351,-4.2986,-4.2986,-4.2986,-4.2986,-4.2986,-4.2986,-4.2986,-4.2986,-4.2986,-4.2986,-4.2986,-4.2986,-4.2986,-4.2986,-4.2986,-4.2986,-4.2986,-4.2986,-4.2986,-4.2986,-4.2986,-4.2986,-4.2986,-4.2986,-4.2986,-4.2986,-4.2986,-4.2986,-4.2986,-4.2986,-4.2986,-4.2986,-4.2986,-4.2986,-4.2986,-4.2986,-4.324,-4.3295,-4.3042,-4.324,-4.3295,-4.3042,-4.2986,-4.2986,-4.2986,-4.2986,-4.2986,-4.2986,-4.2986,-4.2986,-4.0592,0.0,0.0,0.0,0.0,0.0,0.0,0.0,0.0,0.0,0.0,0.0,0.0,0.0,0.0,0.0,0.0,0.0,0.0,0.0,0.0,0.0,0.0,0.0,0.0,0.0,0.0,0.0,-5.35,-5.3239,-5.2652,-5.1751,-5.1033,-5.0685,-5.0734,-5.0415,-4.9746,-5.0336,-5.0336,-4.9717,-4.9717,-4.9717,-4.9717,-4.9717,-4.9717,-4.9717,-4.9717,-4.9717,-4.9717,-4.9717,-4.9717,-4.9717,-4.9717,-4.9717,-4.9424,-4.715,-4.6476,-4.6399,-4.3878,-4.3184,-4.3406,-4.3073,-4.2986,-4.2986,-4.2986,-4.2986,-4.2986,-4.2986,-4.2986,-4.2986,-4.2986,-4.2986,-4.2986,-4.2986,-4.2986,-4.2986,-4.2986,-4.2986,-4.2986,-4.2986,-4.2986,-4.2986,-4.2986,-4.2986,-4.2986,-4.2986,-4.2986,-4.2986,-4.2986,-4.2986,-4.2986,-4.2986,-4.2986,-4.2986,-4.2986,-4.2986,-4.2986,-4.2986,-4.3073,-4.3073,-4.2986,-4.3073,-4.3073,-4.2986,-4.2986,-4.2986,-4.2986,-4.2986,-4.2986,-4.2986,-4.2986,-4.2986,-4.0397,-4.0696,-4.1205,-4.2171,0.0,0.0,-4.5035,-4.5693,0.0,0.0,0.0,0.0,0.0,0.0,0.0,0.0,0.0,0.0,0.0,0.0,0.0,0.0,0.0,0.0,0.0,-5.35,-5.35,-5.35,-5.35,-5.3123,-5.2223,-5.1207,-5.0734,-5.0734,-5.0734,-5.0481,-5.0104,-5.0531,-5.0336,-4.9717,-4.9717,-4.9717,-4.9717,-4.9717,-4.9717,-4.9717,-4.9717,-4.9717,-4.9717,-4.9717,-4.9717,-4.9717,-4.9717,-4.9717,-4.9424,-4.715,-4.6267,-4.5952,-4.3768,-4.2986,-4.2986,-4.2986,-4.2986,-4.2986,-4.2986,-4.2986,-4.2986,-4.2986,-4.2986,-4.2986,-4.2986,-4.2986,-4.2986,-4.2986,-4.2986,-4.2986,-4.2986,-4.2986,-4.2986,-4.2986,-4.2986,-4.2986,-4.2986,-4.2986,-4.2986,-4.2986,-4.2986,-4.2986,-4.2986,-4.2986,-4.2986,-4.2986,-4.2986,-4.2986,-4.2986,-4.2986,-4.2986,-4.2986,-4.2986,-4.2986,-4.2986,-4.2986,-4.2986,-4.2986,-4.2986,-4.2986,-4.2986,-4.2986,-4.2986,-4.2986,-4.2986,-4.2986,-4.0516,-4.0516,-4.0816,-4.2081,-4.241,0.0,-4.4676,-4.4616,-4.4736,0.0,0.0,0.0,0.0,0.0,0.0,0.0,0.0,0.0,0.0,0.0,0.0,0.0,0.0,0.0,-5.35,-5.35,-5.35,-5.35,-5.3442,-5.292,-5.1788,-5.112,-5.0743,-5.0734,-5.0743,-5.0714,-5.0618,-5.0627,-5.0336,-4.9717,-4.9717,-4.9717,-4.9717,-4.9717,-4.9717,-4.9717,-4.9717,-4.9717,-4.9717,-4.9717,-4.9717,-4.9717,-4.9717,-4.9717,-4.9424,-4.715,-4.6267,-4.5952,-4.3768,-4.2986,-4.2986,-4.2986,-4.2986,-4.2986,-4.2986,-4.2986,-4.2986,-4.2986,-4.2986,-4.2986,-4.2986,-4.2986,-4.2986,-4.2986,-4.2986,-4.2986,-4.2986,-4.2986,-4.2986,-4.2986,-4.2986,-4.2986,-4.2986,-4.2986,-4.2986,-4.2986,-4.2986,-4.2986,-4.2986,-4.2986,-4.2986,-4.2986,-4.2986,-4.2986,-4.2986,-4.2986,-4.2986,-4.2986,-4.2986,-4.2986,-4.2986,-4.2986,-4.2986,-4.2986,-4.2986,-4.2986,-4.2986,-4.2986,-4.2986,-4.2986,-4.2986,-4.2986,-4.1175,-4.1175,-4.1422,-4.2201,-4.241,0.0,-4.3509,-4.3589,-4.3738,0.0,0.0,0.0,0.0,0.0,0.0,0.0,0.0,0.0,0.0,0.0,0.0,0.0,0.0,0.0,-5.35,-5.35,-5.35,-5.35,-5.3036,-5.2659,-5.2397,-5.1788,-5.1207,-5.0685,-5.1178,-5.0917,-4.9872,-5.0394,-5.0336,-4.9717,-4.9717,-4.9717,-4.9717,-4.9717,-4.9717,-4.9717,-4.9717,-4.9717,-4.9717,-4.9717,-4.9717,-4.9717,-4.9717,-4.9717,-4.9424,-4.715,-4.6267,-4.5952,-4.3768,-4.2986,-4.2986,-4.2986,-4.2986,-4.2986,-4.2986,-4.2986,-4.2986,-4.2986,-4.2986,-4.2986,-4.2986,-4.2986,-4.2986,-4.2986,-4.2986,-4.2986,-4.2986,-4.2986,-4.2986,-4.2986,-4.2986,-4.2986,-4.2986,-4.2986,-4.2986,-4.2986,-4.2986,-4.2986,-4.2986,-4.2986,-4.2986,-4.2986,-4.2986,-4.2986,-4.2986,-4.2986,-4.2986,-4.2986,-4.2986,-4.2986,-4.2986,-4.2986,-4.2986,-4.2986,-4.2986,-4.2986,-4.2986,-4.2986,-4.2986,-4.2986,-4.2986,-4.2986,-4.1991,-4.1662,-4.1572,-4.2231,-4.241,0.0,0.0,-4.329,-4.3469,-4.4167,-4.4586,0.0,0.0,0.0,0.0,0.0,0.0,0.0,0.0,0.0,0.0,0.0,0.0,0.0,-5.3919,-5.3762,-5.3658,-5.35,-5.321,-5.2891,-5.2652,-5.2281,-5.1962,-5.1693,-5.1323,-5.0975,-5.0656,-5.0336,-5.0017,-4.9717,-4.9717,-4.9717,-4.9717,-4.9717,-4.9717,-4.9717,-4.9717,-4.9717,-4.9717,-4.9717,-4.9717,-4.9717,-4.9717,-4.9717,-4.9424,-4.715,-4.6267,-4.5952,-4.3768,-4.2986,-4.2986,-4.2986,-4.2986,-4.2986,-4.2986,-4.2986,-4.2986,-4.2986,-4.2986,-4.2986,-4.2986,-4.2986,-4.2986,-4.2986,-4.2986,-4.2986,-4.2986,-4.2986,-4.2986,-4.2986,-4.2986,-4.2986,-4.2986,-4.2986,-4.2986,-4.2986,-4.2986,-4.2986,-4.2986,-4.2986,-4.2986,-4.2986,-4.2986,-4.2986,-4.2986,-4.2986,-4.2986,-4.2986,-4.2986,-4.2986,-4.2986,-4.2986,-4.2986,-4.2986,-4.2986,-4.2986,-4.2986,-4.2986,-4.2986,-4.2986,-4.2986,-4.2986,-4.2731,-4.2162,-4.1893,-4.247,0.0,-4.2671,0.0,0.0,0.0,-4.4018,0.0,0.0,0.0,0.0,0.0,0.0,0.0,0.0,0.0,0.0,0.0,0.0,0.0,0.0,0.0,-5.3869,-5.3698,-5.3605,-5.3413,-5.3152,-5.2775,-5.2746,-5.2688,-5.2623,-5.1585,-5.1178,-5.1439,-5.0394,-4.9863,-4.9717,-4.9717,-4.9717,-4.9766,-4.9717,-4.9717,-4.9766,-4.9766,-4.9717,-4.9717,-4.9766,-4.9766,-4.9766,-4.9717,-4.9717,-4.9424,-4.715,-4.6267,-4.5952,-4.3768,-4.2986,-4.2986,-4.2986,-4.2986,-4.2986,-4.2986,-4.2986,-4.2986,-4.2986,-4.2986,-4.2986,-4.2986,-4.2986,-4.2986,-4.2986,-4.2986,-4.2986,-4.2986,-4.2986,-4.2986,-4.2986,-4.2986,-4.2986,-4.2986,-4.2986,-4.2986,-4.2986,-4.2986,-4.2986,-4.2986,-4.2986,-4.2986,-4.2986,-4.2986,-4.2986,-4.2986,-4.2986,-4.2986,-4.2986,-4.2986,-4.2986,-4.2986,-4.2986,-4.2986,-4.2986,-4.2986,-4.2986,-4.2986,-4.2986,-4.2986,-4.2986,-4.2986,-4.2986,0.0,0.0,0.0,0.0,-4.32,0.0,0.0,0.0,-4.3319,-4.3379,0.0,0.0,0.0,0.0,0.0,0.0,0.0,0.0,0.0,0.0,0.0,0.0,0.0,0.0,0.0,-5.3253,-5.3334,-5.3808,-5.3134,-5.2891,-5.3384,-5.3413,-5.3152,-5.2652,-5.2478,-5.1897,-5.0801,-5.0627,-5.0328,-4.9717,-4.9717,-4.9815,-5.0038,-4.9815,-4.9815,-5.0038,-5.0038,-4.9941,-4.9717,-4.999,-5.0038,-5.0038,-4.9766,-4.9717,-4.9424,-4.715,-4.6267,-4.5952,-4.3768,-4.2986,-4.2986,-4.2986,-4.2986,-4.2986,-4.2986,-4.2986,-4.2986,-4.2986,-4.2986,-4.2986,-4.2986,-4.2986,-4.2986,-4.2986,-4.2986,-4.2986,-4.2986,-4.2986,-4.2986,-4.2986,-4.2986,-4.2986,-4.2986,-4.2986,-4.2986,-4.2986,-4.2986,-4.2986,-4.2986,-4.2986,-4.2986,-4.2986,-4.2986,-4.2986,-4.2986,-4.2986,-4.2986,-4.2986,-4.2986,-4.2986,-4.2986,-4.2986,-4.2986,-4.2986,-4.2986,-4.2986,-4.2986,-4.2986,-4.2986,-4.2986,-4.2986,-4.2986,0.0,0.0,0.0,0.0,0.0,0.0,-4.3379,0.0,-4.329,0.0,0.0,0.0,0.0,0.0,0.0,0.0,-4.5933,0.0,0.0,0.0,0.0,0.0,0.0,0.0,0.0,0.0,0.0,0.0,-5.3253,-5.3143,-5.3912,-5.3658,-5.3437,-5.3383,-5.2849,-5.2136,-5.1236,-5.1008,-5.0484,-4.9717,-5.0038,-5.0135,-5.0086,-5.0135,-5.0231,-5.0357,-5.0357,-5.0279,-5.0183,-5.0279,-5.0357,-5.0357,-5.0183,-5.0086,-4.962,-4.7229,-4.6267,-4.5952,-4.3768,-4.2986,-4.2986,-4.2986,-4.2986,-4.2986,-4.2986,-4.2986,-4.2986,-4.2986,-4.2986,-4.2986,-4.2986,-4.2986,-4.2986,-4.2986,-4.2986,-4.2986,-4.2986,-4.2986,-4.2986,-4.2986,-4.2986,-4.2986,-4.2986,-4.2986,-4.2986,-4.2986,-4.2986,-4.2986,-4.2986,-4.2986,-4.2986,-4.2986,-4.2986,-4.2986,-4.2986,-4.2986,-4.2986,-4.2986,-4.2986,-4.2986,-4.2986,-4.2986,-4.2986,-4.2986,-4.2986,-4.2986,-4.2986,-4.2986,-4.2986,-4.2986,-4.2986,-4.2986,-4.3469,0.0,0.0,0.0,0.0,0.0,0.0,0.0,0.0,0.0,0.0,0.0,0.0,0.0,0.0,0.0,0.0,-4.6518,0.0,0.0,0.0,0.0,0.0,0.0,0.0,0.0,0.0,0.0,0.0,-5.293,-5.4009,-5.3656,-5.3587,-5.389,-5.3325,-5.2529,-5.1715,-5.1449,-5.0827,-4.9941,-5.0309,-5.0423,-5.0327,-5.0453,-5.0548,-5.0567,-5.0567,-5.0548,-5.0501,-5.0567,-5.0567,-5.0567,-5.0548,-5.0423,-5.0009,-4.7355,-4.6372,-4.5952,-4.3768,-4.2986,-4.2986,-4.2986,-4.2986,-4.2986,-4.2986,-4.2986,-4.2986,-4.2986,-4.2986,-4.2986,-4.2986,-4.2986,-4.2986,-4.2986,-4.3087,-4.3162,-4.3011,-4.3087,-4.3162,-4.3011,-4.2986,-4.2986,-4.2986,-4.2986,-4.2986,-4.2986,-4.2986,-4.2986,-4.2986,-4.2986,-4.2986,-4.2986,-4.2986,-4.2986,-4.2986,-4.2986,-4.2986,-4.2986,-4.2986,-4.2986,-4.2986,-4.2986,-4.2986,-4.2986,-4.2986,-4.2986,-4.2986,-4.2986,-4.2986,-4.2986,-4.2986,-4.2986,0.0,0.0,0.0,-4.3469,0.0,0.0,0.0,0.0,-4.4287,0.0,0.0,0.0,0.0,0.0,-4.5454,-4.6172,0.0,0.0,0.0,0.0,0.0,0.0,0.0,0.0,0.0,0.0,0.0,0.0,0.0,0.0,-5.336,-5.3419,-5.3561,-5.389,-5.389,-5.3275,-5.2017,-5.1988,-5.1493,-5.0453,-5.0501,-5.0614,-5.0775,-5.0567,-5.0614,-5.0822,-5.0822,-5.068,-5.0501,-5.0728,-5.0822,-5.0775,-5.0567,-5.0614,-5.046,-4.7735,-4.6501,-4.5952,-4.3768,-4.2986,-4.2986,-4.2986,-4.2986,-4.2986,-4.2986,-4.2986,-4.2986,-4.2986,-4.2986,-4.2986,-4.2986,-4.2986,-4.2986,-4.2986,-4.3388,-4.3639,-4.3087,-4.3388,-4.3614,-4.3087,-4.2986,-4.2986,-4.2986,-4.2986,-4.2986,-4.2986,-4.2986,-4.2986,-4.2986,-4.2986,-4.2986,-4.2986,-4.2986,-4.2986,-4.2986,-4.2986,-4.2986,-4.2986,-4.2986,-4.2986,-4.2986,-4.2986,-4.2986,-4.2986,-4.2986,-4.2986,-4.2986,-4.2986,-4.2986,-4.2986,-4.2986,-4.2986,0.0,0.0,-4.4796,-4.4137,0.0,0.0,0.0,0.0,0.0,0.0,0.0,0.0,0.0,0.0,-4.5514,-4.6202,-4.6279,0.0,0.0,0.0,0.0,0.0,0.0,0.0,0.0,0.0,0.0,0.0,-5.1951,0.0,0.0,-5.2941,-5.288,-5.3136,-5.3015,-5.2503,-5.1591,-5.1817,-5.1375,-5.0501,-5.0805,-5.0899,-5.0793,-5.0917,-5.0994,-5.1058,-5.1058,-5.1041,-5.0947,-5.1011,-5.1058,-5.1058,-5.0994,-5.0489,-4.9513,-4.7661,-4.684,-4.6215,-4.3823,-4.2986,-4.2986,-4.2986,-4.2986,-4.2986,-4.2986,-4.2986,-4.2986,-4.2986,-4.2986,-4.2986,-4.2986,-4.2986,-4.2986,-4.2986,-4.3388,-4.3639,-4.3087,-4.3413,-4.3639,-4.3087,-4.2986,-4.2986,-4.2986,-4.2986,-4.2986,-4.2986,-4.2986,-4.2986,-4.2986,-4.2986,-4.2986,-4.2986,-4.2986,-4.2986,-4.2986,-4.2986,-4.2986,-4.2986,-4.2986,-4.2986,-4.2986,-4.2986,-4.2986,-4.2986,-4.2986,-4.2986,-4.2986,-4.2986,-4.2986,-4.2986,-4.2986,-4.2986,-4.329,-4.4287,0.0,-4.4466,-4.4975,0.0,-4.4825,0.0,0.0,0.0,0.0,0.0,0.0,0.0,0.0,-4.6591,-4.6681,0.0,0.0,-4.716,0.0,0.0,0.0,0.0,0.0,0.0,-5.081,-5.1439,-5.1309,0.0,0.0,0.0,-5.2477,-5.2783,-5.2615,-5.224,-5.156,-5.1736,-5.1457,-5.0757,-5.1041,-5.1105,-5.0964,-5.1105,-5.1229,-5.1229,-5.1229,-5.1229,-5.1229,-5.1229,-5.1229,-5.1229,-5.1229,-5.065,-4.9708,-4.7993,-4.6608,-4.5262,-4.3602,-4.3073,-4.3129,-4.3042,-4.3073,-4.3129,-4.3042,-4.2986,-4.2986,-4.2986,-4.2986,-4.2986,-4.2986,-4.2986,-4.2986,-4.2986,-4.3539,-4.394,-4.3388,-4.3865,-4.4242,-4.3664,-4.3564,-4.3564,-4.3564,-4.3564,-4.3438,-4.3037,-4.2986,-4.2986,-4.2986,-4.2986,-4.2986,-4.2986,-4.2986,-4.2986,-4.2986,-4.2986,-4.2986,-4.2986,-4.2986,-4.2986,-4.2986,-4.2986,-4.2986,-4.2986,-4.2986,-4.2986,-4.2986,-4.2986,-4.2986,-4.2986,-4.2986,-4.2986]},{"header":{"parameterUnit":"m.s-1","parameterCategory":1,"la1":30.6,"la2":29.2853,"lo1":-89.7004,"lo2":-87.6739,"dy":0.0162,"dx":0.0183,"nx":112,"ny":82,"refTime":"2024-06-12T18:00:00:Z","depth":0,"parameterNumber":3,"parameterNumberName":"V-component_of_WINDS"},"data":[0.0,0.0,0.0,0.0,0.0,0.0,0.0,0.0,0.0,0.0,0.0,0.0,0.0,0.0,0.0,0.0,0.0,0.0,0.0,0.0,0.0,0.0,0.0,0.0,0.0,0.0,0.0,0.0,0.0,0.0,0.0,0.0,0.0,0.0,0.0,0.0,0.0,0.0,0.0,0.0,0.0,0.0,0.0,0.0,0.0,0.0,0.0,0.0,0.0,0.0,0.0,0.0,0.0,0.0,0.0,0.0,0.0,0.0,0.0,0.0,0.0,0.0,0.0,0.0,0.0,0.0,0.0,0.0,0.0,0.0,0.0,0.0,0.0,0.0,0.0,0.0,0.0,0.0,0.0,0.0,0.0,0.0,0.0,0.0,0.0,0.0,0.0,0.0,0.0,0.0,2.2579,2.3632,2.454,2.5105,2.5061,2.4753,2.4071,2.3091,0.0,0.0,0.0,0.0,0.0,0.0,0.0,0.0,0.0,0.0,0.0,0.0,0.0,0.0,0.0,0.0,0.0,0.0,0.0,0.0,0.0,0.0,0.0,0.0,0.0,0.0,0.0,0.0,0.0,0.0,0.0,0.0,0.0,0.0,0.0,0.0,0.0,0.0,0.0,0.0,0.0,0.0,0.0,0.0,0.0,0.0,0.0,0.0,0.0,0.0,0.0,0.0,0.0,0.0,0.0,0.0,0.0,0.0,0.0,0.0,0.0,0.0,0.0,0.0,0.0,0.0,0.0,0.0,0.0,0.0,0.0,0.0,0.0,0.0,0.0,0.0,0.0,0.0,0.0,0.0,0.0,0.0,0.0,0.0,0.0,0.0,0.0,0.0,0.0,0.0,0.0,0.0,0.0,0.0,0.0,0.0,0.0,0.0,0.0,0.0,0.0,0.0,0.0,0.0,2.2754,2.4262,2.487,2.5017,2.4671,2.4349,2.3735,2.2754,0.0,0.0,0.0,0.0,0.0,0.0,0.0,0.0,0.0,0.0,0.0,0.0,0.0,0.0,0.0,0.0,0.0,0.0,0.0,0.0,0.0,0.0,0.0,0.0,0.0,0.0,0.0,0.0,0.0,0.0,0.0,0.0,0.0,0.0,0.0,0.0,0.0,0.0,0.0,0.0,0.0,0.0,0.0,0.0,0.0,0.0,0.0,0.0,0.0,0.0,0.0,0.0,0.0,0.0,0.0,0.0,0.0,0.0,0.0,0.0,0.0,0.0,0.0,0.0,0.0,0.0,0.0,0.0,0.0,0.0,0.0,0.0,0.0,0.0,0.0,0.0,0.0,0.0,0.0,0.0,0.0,0.0,0.0,0.0,0.0,0.0,0.0,0.0,0.0,0.0,0.0,0.0,0.0,0.0,0.0,0.0,0.0,0.0,0.0,0.0,0.0,0.0,0.0,2.2403,2.3237,2.4686,2.487,2.4797,2.4583,2.4101,2.3471,2.2667,2.1876,0.0,0.0,0.0,0.0,0.0,0.0,0.0,0.0,0.0,0.0,0.0,0.0,0.0,0.0,0.0,0.0,0.0,0.0,0.0,0.0,0.0,0.0,0.0,0.0,0.0,0.0,0.0,0.0,0.0,0.0,0.0,0.0,0.0,0.0,0.0,0.0,0.0,0.0,0.0,0.0,0.0,0.0,0.0,0.0,0.0,0.0,0.0,0.0,0.0,0.0,0.0,0.0,0.0,0.0,0.0,0.0,0.0,0.0,0.0,0.0,0.0,0.0,0.0,0.0,0.0,0.0,0.0,0.0,0.0,0.0,0.0,0.0,0.0,0.0,0.0,0.0,0.0,0.0,0.0,0.0,0.0,0.0,0.0,0.0,0.0,0.0,0.0,0.0,0.0,0.0,0.0,0.0,0.0,0.0,0.0,0.0,0.0,0.0,0.0,0.0,0.0,0.0,2.3091,2.3632,2.4782,2.4598,2.4423,2.4349,2.3735,2.3091,2.2447,2.1511,0.0,0.0,0.0,0.0,0.0,0.0,0.0,0.0,0.0,0.0,0.0,0.0,0.0,0.0,0.0,0.0,0.0,0.0,0.0,0.0,0.0,0.0,0.0,0.0,0.0,0.0,0.0,0.0,0.0,0.0,0.0,0.0,0.0,0.0,0.0,0.0,0.0,0.0,0.0,0.0,0.0,0.0,0.0,0.0,0.0,0.0,0.0,0.0,0.0,0.0,0.0,0.0,0.0,0.0,0.0,0.0,0.0,0.0,0.0,0.0,0.0,0.0,0.0,0.0,0.0,0.0,0.0,0.0,0.0,0.0,0.0,0.0,0.0,0.0,0.0,0.0,0.0,0.0,0.0,0.0,0.0,0.0,0.0,0.0,0.0,0.0,0.0,0.0,0.0,0.0,0.0,0.0,0.0,0.0,0.0,0.0,0.0,0.0,0.0,0.0,0.0,0.0,2.3018,2.372,2.4101,2.413,2.3998,2.3691,2.3062,2.2418,2.1803,2.0837,0.0,0.0,0.0,0.0,0.0,0.0,0.0,0.0,0.0,0.0,0.0,0.0,0.0,0.0,0.0,0.0,0.0,0.0,0.0,0.0,0.0,0.0,0.0,0.0,0.0,0.0,0.0,0.0,0.0,0.0,0.0,0.0,0.0,0.0,0.0,0.0,0.0,0.0,0.0,0.0,0.0,0.0,0.0,0.0,0.0,0.0,0.0,0.0,0.0,0.0,0.0,0.0,0.0,0.0,0.0,0.0,0.0,0.0,0.0,0.0,0.0,0.0,0.0,0.0,0.0,0.0,0.0,0.0,0.0,0.0,0.0,0.0,0.0,0.0,0.0,0.0,0.0,0.0,0.0,0.0,0.0,0.0,0.0,0.0,0.0,0.0,0.0,0.0,0.0,0.0,0.0,0.0,0.0,0.0,0.0,0.0,0.0,0.0,0.0,0.0,0.0,0.0,2.2781,2.3062,0.0,2.3896,2.3735,2.3603,2.3003,2.2359,2.173,0.0,0.0,0.0,0.0,0.0,0.0,0.0,0.0,0.0,0.0,0.0,0.0,0.0,0.0,0.0,0.0,0.0,0.0,0.0,0.0,0.0,0.0,0.0,0.0,0.0,0.0,0.0,0.0,0.0,0.0,0.0,0.0,0.0,0.0,0.0,0.0,0.0,0.0,0.0,0.0,0.0,0.0,0.0,0.0,0.0,0.0,0.0,0.0,0.0,0.0,0.0,0.0,0.0,0.0,0.0,0.0,0.0,0.0,0.0,0.0,0.0,0.0,0.0,0.0,0.0,0.0,0.0,0.0,0.0,0.0,0.0,0.0,0.0,0.0,0.0,0.0,0.0,0.0,0.0,0.0,0.0,0.0,0.0,0.0,0.0,0.0,0.0,0.0,0.0,0.0,0.0,0.0,0.0,0.0,0.0,0.0,0.0,0.0,0.0,0.0,0.0,0.0,2.3026,2.2689,2.2696,0.0,2.3574,2.3398,2.3296,2.2696,2.2008,2.1276,0.0,0.0,0.0,0.0,0.0,0.0,0.0,0.0,0.0,0.0,0.0,0.0,0.0,0.0,0.0,0.0,0.0,0.0,0.0,0.0,0.0,0.0,0.0,0.0,0.0,0.0,0.0,0.0,0.0,0.0,0.0,0.0,0.0,0.0,0.0,0.0,0.0,0.0,0.0,0.0,0.0,0.0,0.0,0.0,0.0,0.0,0.0,0.0,0.0,0.0,0.0,0.0,0.0,0.0,0.0,0.0,0.0,0.0,0.0,0.0,0.0,0.0,0.0,0.0,0.0,0.0,0.0,0.0,0.0,0.0,0.0,0.0,0.0,0.0,0.0,0.0,0.0,0.0,0.0,0.0,0.0,0.0,0.0,0.0,0.0,0.0,0.0,0.0,0.0,0.0,0.0,0.0,0.0,0.0,0.0,0.0,0.0,0.0,0.0,0.0,0.0,0.0,2.2879,2.2719,2.274,2.3062,2.3106,2.2974,2.2652,2.2052,2.1276,0.0,0.0,0.0,0.0,0.0,0.0,0.0,0.0,0.0,0.0,0.0,0.0,0.0,0.0,0.0,0.0,0.0,0.0,0.0,0.0,0.0,0.0,0.0,0.0,0.0,0.0,0.0,0.0,0.0,0.0,0.0,0.0,0.0,0.0,0.0,0.0,0.0,0.0,0.0,0.0,0.0,0.0,0.0,0.0,0.0,0.0,0.0,0.0,0.0,0.0,0.0,0.0,0.0,0.0,0.0,0.0,0.0,0.0,0.0,0.0,0.0,0.0,0.0,0.0,0.0,0.0,0.0,0.0,0.0,0.0,0.0,0.0,0.0,0.0,0.0,0.0,0.0,0.0,0.0,0.0,0.0,0.0,0.0,0.0,0.0,0.0,0.0,0.0,0.0,0.0,0.0,0.0,0.0,0.0,0.0,0.0,0.0,0.0,0.0,0.0,0.0,0.0,0.0,2.3649,2.3514,2.3292,2.2786,2.2769,2.2725,2.2637,2.2052,2.1276,2.0241,0.0,0.0,0.0,0.0,0.0,0.0,0.0,0.0,0.0,0.0,0.0,0.0,0.0,0.0,0.0,0.0,0.0,0.0,0.0,0.0,0.0,0.0,0.0,0.0,0.0,0.0,0.0,0.0,0.0,0.0,0.0,0.0,0.0,0.0,0.0,0.0,0.0,0.0,0.0,0.0,0.0,0.0,0.0,0.0,0.0,0.0,0.0,0.0,0.0,0.0,0.0,0.0,0.0,0.0,0.0,0.0,0.0,0.0,0.0,0.0,0.0,0.0,0.0,0.0,0.0,0.0,0.0,0.0,0.0,0.0,0.0,0.0,0.0,0.0,0.0,0.0,0.0,0.0,0.0,0.0,0.0,0.0,0.0,0.0,0.0,0.0,0.0,0.0,0.0,0.0,0.0,0.0,0.0,0.0,0.0,0.0,0.0,0.0,0.0,0.0,0.0,0.0,2.4596,2.453,2.4279,2.386,2.3443,2.3097,2.2961,2.2201,2.1218,2.012,0.0,0.0,0.0,0.0,0.0,0.0,0.0,0.0,0.0,0.0,0.0,0.0,0.0,0.0,0.0,0.0,0.0,0.0,0.0,0.0,0.0,0.0,0.0,0.0,0.0,0.0,0.0,0.0,0.0,0.0,0.0,0.0,0.0,0.0,0.0,0.0,0.0,0.0,0.0,0.0,0.0,0.0,0.0,0.0,0.0,0.0,0.0,0.0,0.0,0.0,0.0,0.0,0.0,0.0,0.0,0.0,0.0,0.0,0.0,0.0,0.0,0.0,0.0,0.0,0.0,0.0,0.0,0.0,0.0,0.0,0.0,0.0,0.0,0.0,0.0,0.0,0.0,0.0,0.0,0.0,0.0,0.0,0.0,0.0,0.0,0.0,0.0,0.0,0.0,0.0,0.0,0.0,0.0,0.0,0.0,0.0,0.0,0.0,0.0,0.0,0.0,0.0,2.5534,2.5476,2.5429,2.5656,2.4662,2.3891,2.3703,2.2632,2.1442,2.0202,0.0,0.0,0.0,0.0,0.0,0.0,0.0,0.0,0.0,0.0,0.0,0.0,0.0,0.0,0.0,0.0,0.0,0.0,0.0,0.0,0.0,0.0,0.0,0.0,0.0,0.0,0.0,0.0,0.0,0.0,0.0,0.0,0.0,0.0,0.0,0.0,0.0,0.0,0.0,0.0,0.0,0.0,0.0,0.0,0.0,0.0,0.0,0.0,0.0,0.0,0.0,0.0,0.0,0.0,0.0,0.0,0.0,0.0,0.0,0.0,3.465,0.0,0.0,0.0,0.0,0.0,0.0,0.0,0.0,0.0,0.0,0.0,0.0,0.0,0.0,0.0,0.0,0.0,0.0,0.0,0.0,0.0,0.0,0.0,0.0,0.0,0.0,0.0,0.0,0.0,0.0,0.0,0.0,0.0,0.0,0.0,0.0,0.0,0.0,0.0,0.0,0.0,2.5307,2.6082,2.6302,2.5412,2.507,2.4865,2.4855,2.4344,2.3568,2.2443,2.211,0.0,0.0,0.0,0.0,0.0,0.0,0.0,0.0,0.0,0.0,0.0,0.0,0.0,0.0,0.0,0.0,0.0,0.0,0.0,0.0,0.0,0.0,0.0,0.0,0.0,0.0,0.0,0.0,0.0,0.0,0.0,0.0,0.0,0.0,0.0,0.0,0.0,0.0,0.0,0.0,0.0,0.0,0.0,0.0,0.0,0.0,0.0,0.0,0.0,0.0,0.0,0.0,0.0,0.0,0.0,0.0,0.0,0.0,0.0,0.0,3.5504,0.0,0.0,0.0,0.0,0.0,0.0,0.0,0.0,0.0,0.0,0.0,0.0,0.0,0.0,0.0,0.0,0.0,0.0,0.0,0.0,0.0,0.0,0.0,0.0,0.0,0.0,0.0,0.0,0.0,0.0,0.0,0.0,0.0,0.0,0.0,0.0,0.0,0.0,0.0,0.0,2.6021,2.6805,2.7172,2.6738,2.6149,2.5816,2.5816,2.5124,2.4401,2.3737,2.3117,0.0,0.0,0.0,0.0,0.0,0.0,0.0,0.0,0.0,0.0,0.0,0.0,0.0,0.0,0.0,0.0,0.0,0.0,0.0,0.0,0.0,0.0,0.0,0.0,0.0,0.0,0.0,0.0,0.0,0.0,0.0,0.0,0.0,0.0,0.0,0.0,0.0,0.0,0.0,0.0,0.0,0.0,0.0,0.0,0.0,0.0,0.0,0.0,0.0,0.0,0.0,0.0,0.0,4.0074,4.0074,3.9973,3.9521,3.9546,3.9898,3.8517,3.7487,3.6832,3.6631,0.0,0.0,0.0,0.0,0.0,0.0,0.0,0.0,0.0,0.0,0.0,0.0,0.0,0.0,0.0,0.0,0.0,0.0,0.0,0.0,0.0,0.0,0.0,0.0,2.9111,2.8697,0.0,0.0,0.0,0.0,0.0,0.0,0.0,0.0,0.0,0.0,0.0,0.0,2.6906,2.7454,2.7832,2.8242,2.7403,2.6808,2.6808,2.5899,2.514,2.4809,2.4052,2.3382,0.0,0.0,0.0,0.0,0.0,0.0,0.0,0.0,0.0,0.0,0.0,0.0,0.0,0.0,0.0,0.0,0.0,0.0,0.0,0.0,0.0,0.0,0.0,0.0,0.0,0.0,0.0,0.0,0.0,0.0,0.0,0.0,3.8361,3.8774,0.0,0.0,0.0,0.0,0.0,0.0,0.0,0.0,0.0,0.0,0.0,0.0,0.0,4.03,4.03,4.1329,4.158,4.1075,4.1605,4.158,4.1075,4.1,4.1,4.105,4.0849,0.0,3.8517,3.7487,0.0,0.0,0.0,0.0,0.0,0.0,0.0,0.0,0.0,0.0,0.0,0.0,0.0,0.0,0.0,0.0,0.0,0.0,0.0,0.0,0.0,0.0,3.2681,3.2101,3.1251,3.0563,0.0,2.9282,2.809,2.7289,2.6927,0.0,0.0,0.0,0.0,0.0,0.0,0.0,2.723,2.7538,2.7832,2.8242,2.8174,2.8067,2.8067,2.7906,2.7506,2.6666,2.6218,2.5583,2.4765,2.4238,0.0,0.0,0.0,0.0,0.0,0.0,0.0,0.0,0.0,0.0,0.0,0.0,0.0,0.0,0.0,0.0,0.0,0.0,0.0,0.0,0.0,0.0,0.0,0.0,0.0,0.0,0.0,0.0,0.0,3.9336,3.9817,4.0213,4.017,3.976,0.0,0.0,0.0,0.0,0.0,0.0,0.0,0.0,0.0,4.1106,4.1605,4.2057,4.2359,4.3137,4.3413,4.3131,4.3438,4.3263,4.2735,4.2735,4.2559,4.2258,4.2258,4.1681,4.0654,3.917,3.809,3.7211,0.0,0.0,0.0,0.0,3.5655,3.568,3.6006,3.6107,0.0,3.5102,0.0,0.0,0.0,0.0,0.0,0.0,0.0,0.0,0.0,0.0,3.3897,3.3073,3.251,3.2212,3.2212,3.1206,2.9841,0.0,2.8136,2.7963,2.7057,0.0,0.0,0.0,0.0,2.6672,2.7502,2.795,2.8284,2.8721,2.8761,2.8708,2.8514,2.8514,2.8206,2.7422,2.6973,2.6495,2.5995,2.529,2.4774,0.0,0.0,0.0,0.0,0.0,0.0,0.0,0.0,0.0,0.0,0.0,0.0,0.0,0.0,0.0,0.0,0.0,0.0,0.0,0.0,0.0,0.0,0.0,0.0,0.0,0.0,0.0,0.0,4.1575,4.1612,4.209,4.1971,4.1383,0.0,0.0,0.0,0.0,0.0,0.0,4.1945,4.1729,4.2077,4.3038,4.3619,4.4042,4.4446,4.4875,4.5019,4.4961,4.481,4.4475,4.4016,4.3865,4.3589,4.3187,4.3037,4.2735,4.2313,4.0727,3.9446,3.8391,3.7839,3.7287,3.681,3.681,3.681,3.6883,3.7262,3.7387,3.7262,3.6433,0.0,3.5504,3.4123,0.0,0.0,0.0,0.0,3.5394,3.4791,3.4918,3.5017,3.419,3.3796,3.3598,3.3598,3.2801,3.1425,0.0,2.9265,2.9042,2.8235,0.0,0.0,0.0,0.0,2.7218,2.7986,2.8338,2.8649,2.9092,2.9079,2.9026,2.8834,2.8734,2.8371,2.7779,2.7294,2.6892,2.6635,2.6164,2.5718,2.5462,0.0,0.0,0.0,0.0,0.0,0.0,0.0,0.0,0.0,0.0,0.0,0.0,0.0,0.0,0.0,0.0,0.0,0.0,0.0,0.0,0.0,0.0,0.0,0.0,0.0,0.0,0.0,0.0,0.0,4.5012,4.4767,0.0,0.0,0.0,0.0,4.284,4.3124,4.3821,4.4934,4.4733,4.4822,4.5437,4.5943,4.625,4.6276,4.6301,4.6127,4.5809,4.536,4.4908,4.4568,4.4041,4.379,4.374,4.3212,4.2961,4.2861,4.1731,4.0601,3.9546,3.8994,3.8442,3.7914,3.7914,3.7914,3.7914,3.7965,3.7965,3.7965,3.7889,3.7186,3.6207,3.5558,3.5031,0.0,0.0,3.5483,3.5608,3.6135,3.6285,3.631,3.6263,3.5475,3.4727,3.4727,3.3895,3.2642,0.0,2.996,2.9145,2.8669,0.0,2.8495,2.8495,2.8296,2.8309,2.8768,2.8643,2.8649,2.9092,2.9079,2.9079,2.9079,2.875,2.8327,2.7834,2.7322,2.693,2.6557,2.6736,2.6608,2.6139,2.5509,0.0,0.0,0.0,0.0,0.0,0.0,0.0,0.0,0.0,0.0,0.0,0.0,0.0,0.0,0.0,0.0,0.0,0.0,0.0,0.0,0.0,0.0,0.0,0.0,0.0,0.0,0.0,0.0,4.5258,4.5289,0.0,4.4124,4.4439,4.4642,4.4642,4.4944,4.5451,4.6228,4.5994,4.6052,4.659,4.6821,4.6923,4.6923,4.6923,4.6865,4.6721,4.6542,4.6203,4.5755,4.5552,4.5131,4.4604,4.4105,4.3739,4.3438,4.271,4.1957,4.1282,4.0676,4.0124,3.9622,3.9622,3.9396,3.9094,3.9094,3.9094,3.9044,3.8668,3.804,3.7312,3.6759,3.6709,3.681,3.6659,3.6609,3.6634,3.6835,3.6681,3.6405,3.6405,3.6121,3.581,3.581,3.4969,3.4093,3.3539,3.1979,3.0432,2.9226,2.9063,2.8959,2.8669,2.8755,2.8952,2.9137,2.9353,2.9495,2.9659,2.9679,2.9504,2.901,2.8848,2.834,2.7422,2.7191,2.7008,2.6777,2.6853,2.6914,2.694,2.6367,2.5647,0.0,0.0,0.0,0.0,0.0,0.0,0.0,0.0,0.0,0.0,0.0,0.0,0.0,0.0,0.0,0.0,0.0,0.0,0.0,0.0,0.0,0.0,0.0,0.0,0.0,0.0,4.5919,4.7003,4.6759,4.6219,4.5577,4.5881,4.6156,4.6156,4.6325,4.6736,4.7308,4.7102,4.714,4.7501,4.756,4.756,4.756,4.756,4.7501,4.7383,4.7383,4.7144,4.6667,4.6488,4.609,4.5508,4.4744,4.43,4.4023,4.3548,4.3093,4.2713,4.1886,4.1279,4.0777,4.0576,4.03,3.9948,3.9747,3.9697,3.9597,3.9044,3.8617,3.8191,3.7638,3.7713,3.7939,3.7563,3.7462,3.7462,3.7462,3.7186,3.686,3.6732,3.6681,3.6631,3.6455,3.581,3.5235,3.4872,3.3377,3.168,3.033,3.0083,2.9875,2.9176,2.9352,2.9539,2.9539,2.9808,2.9994,2.9994,2.9994,2.9818,2.9322,2.9157,2.8625,2.767,2.7467,2.7301,2.7044,2.7044,2.7139,2.7309,2.6687,2.5978,2.5189,0.0,0.0,0.0,0.0,0.0,0.0,0.0,0.0,0.0,0.0,0.0,0.0,0.0,0.0,0.0,0.0,0.0,0.0,0.0,0.0,0.0,0.0,0.0,5.0041,4.9392,4.9206,5.0327,4.9145,4.7951,4.719,4.7219,4.7304,4.7304,4.7304,4.7597,4.8146,4.8172,4.8172,4.8172,4.8172,4.8172,4.8172,4.8172,4.8055,4.7703,4.7703,4.756,4.718,4.6667,4.6437,4.6385,4.5232,4.472,4.4668,4.4156,4.3925,4.3793,4.2659,4.1856,4.125,4.0752,4.0526,4.0425,3.9873,3.9697,3.9597,3.9069,3.8944,3.8793,3.8216,3.804,3.8065,3.804,3.804,3.804,3.804,3.8015,3.7864,3.7312,3.7186,3.7036,3.6531,3.6405,3.6121,3.5066,3.3993,3.2951,3.1819,3.1637,3.1278,3.0235,3.0047,0.0,3.0047,3.0047,2.9994,2.9994,2.9994,2.9994,2.9973,2.9559,2.9104,2.8628,2.8173,2.7717,2.733,2.7309,2.7309,2.7309,2.6418,2.5689,2.523,0.0,0.0,0.0,0.0,0.0,0.0,0.0,0.0,0.0,0.0,0.0,0.0,0.0,0.0,0.0,0.0,0.0,0.0,0.0,0.0,0.0,0.0,5.0514,5.0476,5.036,5.0057,4.9522,4.9414,4.903,4.8008,4.7927,4.7937,4.7937,4.7937,4.8015,4.8172,4.8172,4.8172,4.8172,4.8172,4.8172,4.8172,4.8172,4.8114,4.8055,4.8055,4.7997,4.7938,4.7782,4.7587,4.7302,4.6604,4.5948,4.5283,4.472,4.4233,4.3819,4.3309,4.2739,4.2153,4.1383,4.0601,3.9898,3.9747,3.9697,3.9672,3.9521,3.9471,3.9371,3.8793,3.8919,3.9145,3.8743,3.8642,3.8642,3.8642,3.8316,3.7864,3.7312,3.7186,3.7036,3.6531,3.6405,3.631,3.6026,3.5715,3.4921,3.3101,3.275,3.265,3.2348,3.1637,0.0,3.1176,3.0495,2.9994,2.9994,2.9994,2.9849,2.9518,2.9373,2.8959,2.8152,2.7986,2.7717,2.733,2.7309,2.7309,2.7309,2.6729,2.633,0.0,0.0,0.0,0.0,0.0,0.0,0.0,0.0,0.0,0.0,0.0,0.0,0.0,0.0,0.0,0.0,0.0,0.0,0.0,0.0,0.0,0.0,5.1618,5.2453,5.2535,5.1908,5.1339,5.0979,5.074,5.021,4.9045,4.8899,4.8832,4.8597,4.8329,4.8303,4.8538,4.8329,4.8172,4.8172,4.8172,4.8172,4.8172,4.8172,4.8172,4.8172,4.8172,4.8172,4.8172,4.8172,4.8055,0.0,4.7282,4.6679,4.5938,4.5344,4.4775,0.0,0.0,0.0,0.0,0.0,4.0757,3.9697,3.9697,3.9697,3.9697,3.9697,3.9697,3.9647,3.932,3.9446,3.9622,3.9295,3.922,3.922,3.922,3.8969,3.8567,3.8015,3.7889,3.7663,3.6933,3.6757,3.6681,3.6455,3.6405,0.0,3.4775,3.419,3.3747,3.325,3.27,3.2297,3.2297,3.1739,3.1351,3.1351,3.094,3.0575,3.03,2.9838,0.0,0.0,0.0,2.7924,2.733,2.7309,0.0,0.0,0.0,0.0,0.0,0.0,0.0,0.0,2.6501,2.6703,0.0,0.0,0.0,0.0,0.0,0.0,0.0,0.0,0.0,0.0,0.0,0.0,0.0,0.0,0.0,0.0,5.3384,5.4431,5.5089,5.3751,5.2878,5.3355,5.2484,5.1401,5.0238,4.9958,4.9744,4.9305,4.8708,4.8512,4.9061,0.0,0.0,0.0,0.0,4.8172,4.8172,4.8172,4.8172,4.8172,4.8172,4.8172,4.8172,4.8172,4.8172,4.8146,4.7649,4.7074,4.6447,4.5924,4.5323,4.4668,4.4148,4.3878,4.3592,4.2299,4.0967,3.98,3.9749,0.0,0.0,3.9697,3.9697,3.9697,3.9697,3.9697,3.9697,3.9697,3.9697,3.9697,3.9697,3.9697,3.9546,3.9045,3.8919,3.8617,3.7513,3.7236,3.7036,3.6606,3.6455,3.6405,3.6405,3.5619,3.4678,3.3697,3.3449,3.34,3.34,3.325,3.3201,3.3201,0.0,0.0,3.179,3.0888,2.9889,2.8869,2.8554,2.8139,2.7473,2.7357,2.7357,2.7452,2.7357,2.7309,2.7309,2.7309,2.733,2.7372,2.7372,2.7552,0.0,0.0,0.0,0.0,0.0,0.0,0.0,0.0,0.0,0.0,0.0,0.0,0.0,0.0,0.0,5.2755,5.3683,5.4431,5.5089,5.4908,5.434,5.3518,5.3203,5.2591,5.1456,5.0462,5.0059,5.0421,4.952,4.8956,4.9087,4.8982,4.8695,4.8198,4.8172,4.8172,4.8172,4.8172,4.8172,4.8172,0.0,0.0,4.8172,4.8172,4.8172,4.8172,4.8068,4.744,4.6473,4.6342,4.5689,4.4668,4.4367,4.3527,4.249,4.2206,4.1361,4.0287,4.0083,4.0032,3.9981,3.98,3.9697,3.9697,3.9697,3.9697,0.0,3.9697,3.9697,3.9697,3.9697,3.9697,3.9546,3.9045,3.8919,3.8743,3.799,3.7487,3.7161,3.7036,3.6707,3.6405,3.6405,3.6216,3.6001,3.581,3.5017,3.4483,3.4483,3.3747,3.3201,3.3201,3.3001,3.2901,3.2901,3.27,3.1823,2.9992,2.8437,2.7809,2.842,2.7715,2.7668,2.8398,2.7668,2.7309,2.7309,2.7309,2.7448,2.78,2.78,2.7841,0.0,0.0,0.0,0.0,0.0,0.0,0.0,0.0,0.0,0.0,0.0,5.0541,0.0,0.0,5.3025,5.4042,5.4461,5.482,5.5149,5.5179,5.4976,5.4355,5.4304,5.3652,5.1837,5.1405,5.0949,5.0383,4.9811,4.961,4.9923,4.9401,4.8956,4.8643,4.8329,4.8172,4.8172,4.8172,4.8172,4.8172,4.8172,4.8172,4.8172,4.8172,4.8172,4.8172,4.8172,4.7545,4.6421,4.5846,4.5245,4.4668,4.4585,4.3823,4.2833,4.2524,4.1801,4.0875,4.0441,4.0287,4.0236,3.9981,3.9878,3.9878,3.9749,3.9697,3.9697,3.9697,3.9697,3.9697,3.9697,3.9697,3.9622,3.9346,3.927,3.912,3.8567,3.799,3.7513,3.7236,3.6782,3.6405,3.6405,3.6405,3.6405,3.6405,3.5953,3.5619,3.5619,3.5114,3.4775,3.4775,3.4337,3.3993,3.3993,3.3317,3.2408,3.1398,3.0201,2.9645,2.9821,2.9402,2.9245,2.9441,2.898,2.8771,2.8771,2.9011,2.8968,2.8652,2.9147,2.9084,0.0,0.0,0.0,0.0,0.0,0.0,0.0,4.9089,4.9613,5.093,5.1618,5.2366,5.3533,5.4221,5.479,5.5448,5.5448,5.5388,5.5388,5.5269,5.5179,5.5179,5.5179,5.4517,5.2737,5.276,5.2294,5.085,5.0571,5.0506,5.076,4.9923,4.9322,4.9087,4.8616,4.8303,4.8172,4.8172,4.8172,4.8172,4.8172,4.8172,4.8172,4.8172,4.8172,4.8172,4.8068,4.744,4.6395,4.5349,4.4826,4.4668,4.4668,4.4299,4.3669,4.3073,4.232,4.1492,4.0927,4.0695,4.0542,4.0287,4.0134,4.0083,3.9826,3.9749,3.9697,3.9697,3.9697,3.9697,3.9697,3.9697,3.9697,3.9697,3.9697,3.9572,3.912,3.8592,3.8015,3.7437,3.6933,3.6531,3.643,3.6405,3.6405,3.6405,3.6405,3.6405,3.6405,3.6405,3.6405,3.6405,3.5619,3.5114,3.5114,3.3717,3.2831,3.2831,3.22,3.1667,3.146,3.1252,3.1021,3.0625,3.0536,3.0445,3.0353,3.0905,3.0759,3.0017,3.0838,3.0514,4.4825,4.5199,4.6026,4.8437,4.8725,4.9343,0.0,5.3025,5.3025,5.4371,5.47,5.497,5.5769,5.5897,5.6166,5.6765,5.6406,5.6128,5.6128,5.5568,5.5179,5.5179,5.5179,5.5317,5.5678,5.4767,5.413,5.3887,5.2893,5.187,5.0847,5.0655,5.0132,4.9113,4.9008,4.8721,4.8198,4.8172,4.8172,4.8172,4.8172,4.8172,4.8172,4.8172,4.8172,4.8146,4.7649,4.7074,4.6421,4.5794,4.5164,4.4668,4.4668,4.4642,4.4511,4.3937,4.3049,4.2058,4.175,4.1285,4.0795,4.0542,4.0287,4.0083,4.0083,3.9878,3.9697,3.9697,3.9697,3.9697,3.9697,3.9697,3.9697,3.9697,3.9697,3.9672,3.9622,3.917,3.8592,3.804,3.7462,3.6935,3.648,3.6405,3.6405,3.6405,3.6405,3.6405,3.6405,3.6405,3.6405,3.6405,3.631,3.6216,3.6216,3.4818,3.3934,3.3934,3.2581,3.216,3.2999,3.2207,3.1856,3.2163,3.1786,3.1366,3.0928,3.1435,3.1871,3.2185,3.2277,3.1213,4.6592,4.7123,4.783,4.9573,5.0501,5.1498,5.3741,5.4122,5.4288,5.525,5.528,5.5388,5.6098,5.6218,5.6376,0.0,5.6885,5.6705,5.6705,5.6166,5.5777,5.5777,5.5777,5.5632,5.5165,5.4714,5.4093,5.3444,5.252,5.1786,5.1318,5.0969,5.042,4.9584,4.9244,4.8799,4.8198,4.8172,4.8172,4.8172,4.8172,4.8172,4.8172,4.8172,4.8172,4.8146,4.7571,4.7022,4.6421,4.5872,4.5216,4.4668,4.4668,4.4668,4.467,4.4095,4.3363,4.2605,4.2188,4.1642,4.1097,4.0846,4.0643,4.0542,4.0389,4.0134,3.9929,3.9929,3.9826,3.9697,3.9697,3.9697,3.9697,3.9697,3.9697,3.9697,3.9697,3.927,3.8844,3.8567,3.7789,3.7111,3.6885,3.6631,3.6405,3.6405,3.6405,3.6405,3.6405,3.6405,3.6405,3.6405,3.6405,3.6405,3.6405,3.5802,3.5417,3.5417,3.4817,3.4501,3.4579,3.4184,3.3893,3.3765,3.3552,3.3368,3.315,3.3683,3.3765,3.3361,3.3668,3.3027,4.8019,4.8602,4.9122,5.0506,5.182,5.3092,5.4131,5.4667,5.5008,5.5491,5.5381,5.5439,5.6149,5.6368,5.6645,5.7274,5.7393,5.7393,5.7393,5.6675,5.6278,5.6406,5.6436,5.6154,5.5483,5.5432,5.4856,5.3485,5.2904,5.2315,5.1659,5.123,5.0655,4.9923,4.9505,4.8956,4.8198,4.8172,4.8172,4.8172,4.8172,4.8172,4.8172,4.8172,4.8172,4.8172,4.7754,4.7153,4.6447,4.6029,4.5401,4.4668,4.4668,4.4668,4.467,4.4251,4.365,4.2971,4.2552,4.1925,4.1274,4.1047,4.0946,4.0846,4.0643,4.044,4.0236,4.0236,4.0083,3.9903,3.9903,3.9903,3.9903,3.9903,3.9852,3.98,3.98,3.9422,3.9095,3.8944,3.8216,3.7588,3.7437,3.7008,3.6631,3.6631,3.6505,3.6405,3.6405,3.6405,3.6405,3.6405,3.6405,3.6405,3.6405,3.6405,3.6405,3.6405,3.6405,3.6182,3.578,3.578,3.5504,3.4906,3.5102,3.5102,3.4906,3.5504,3.5382,3.465,3.504,3.4824,4.9023,4.928,4.9769,5.1742,5.278,5.3526,5.4401,5.5069,5.5551,5.5581,5.5381,5.549,5.6404,5.6852,5.7304,5.7992,5.8082,5.8082,5.8082,5.6974,5.6406,5.7004,5.7064,5.7334,0.0,5.7975,5.724,5.5444,5.5267,5.4204,5.1721,5.157,5.1047,4.9923,4.9871,4.9322,4.8198,4.8172,4.8172,4.8172,4.8172,4.8172,4.8172,4.8172,4.8172,4.8172,4.8172,4.7519,4.6473,4.6447,4.5767,4.4668,4.4668,4.4668,4.4668,4.4642,4.3937,4.3023,4.2997,4.2265,4.1324,4.1274,4.1097,4.0896,4.0896,4.0694,4.0517,4.0517,4.0491,4.0466,4.0466,4.0466,4.0466,4.0466,4.0287,4.0083,4.0083,3.9878,3.9521,3.8969,3.8894,3.8642,3.809,3.7513,3.7161,3.7161,3.6757,3.6405,3.6405,3.6405,3.6405,3.6405,3.6405,3.6405,3.6405,3.6405,3.6405,3.6405,3.6405,3.6405,3.638,3.638,3.6081,3.5483,3.6031,3.6056,3.5483,3.6081,3.638,3.6332,3.6358,3.631,4.9493,5.0082,5.0944,5.2242,5.3285,5.4263,5.5119,5.5786,5.6127,5.6127,5.5929,5.5942,5.6506,5.6705,5.7032,5.7932,5.8112,5.8291,5.871,5.8022,5.7543,5.7752,5.7782,0.0,0.0,0.0,0.0,5.5472,5.42,5.2923,5.1695,5.1596,5.1073,4.9923,4.9897,4.9348,4.8198,4.8957,4.9331,4.9331,4.9331,4.8957,4.8172,4.8172,4.8172,4.8172,4.8172,4.7545,4.6473,4.6473,4.5794,4.4668,4.4668,4.4668,4.4668,4.4668,4.4251,4.352,4.3154,4.2526,4.1821,4.1428,4.1274,4.1147,4.1147,4.0997,4.0795,4.0795,4.0643,4.0517,4.0517,4.0517,4.0517,4.0517,4.0287,4.0083,4.0083,3.9878,3.9647,3.9446,3.912,3.8869,3.8617,3.7814,3.7061,3.6732,3.6531,3.6405,3.6405,3.6405,3.6405,3.6405,3.6405,3.6405,3.6405,3.6405,3.6405,3.6405,3.6405,3.6405,3.6405,3.6405,3.6329,3.6081,3.6329,3.6329,3.6081,3.6329,3.6405,3.6405,3.6405,3.6405,4.9989,5.0764,5.1659,5.2499,5.3607,5.4618,5.5081,5.563,5.6005,5.5908,5.5663,5.5618,5.5842,5.6193,5.6732,5.7573,5.8171,5.862,5.9039,5.874,5.8471,5.8471,5.8261,5.8201,0.0,0.0,0.0,5.5472,5.3787,5.25,5.1632,5.1596,5.1178,5.0237,5.0002,4.9453,4.8512,4.9063,4.9274,4.9331,4.9702,4.9532,4.8842,4.9274,4.9445,4.9445,4.8988,4.8311,4.7354,4.6777,4.5924,4.5036,4.5233,4.5046,4.4722,4.5127,4.4863,4.4095,4.352,4.2944,4.2369,4.1821,4.1611,4.1585,4.1376,4.1147,4.1047,4.1047,4.0846,4.0643,4.0744,4.0694,4.0643,4.0744,4.0593,4.0389,4.0389,4.0083,3.9826,3.9826,3.9498,3.917,3.917,3.8241,3.7236,3.6531,3.6405,3.6405,3.6405,3.6405,3.6405,3.6405,3.6405,3.6405,3.6405,3.6405,3.6405,3.6405,3.6405,3.6405,3.6405,3.6405,3.6405,3.6405,3.6405,3.6405,3.6405,3.6405,3.6405,3.6405,3.6405,3.6405,5.0574,5.1251,5.1898,5.2544,5.3668,5.4575,5.431,5.4782,5.5224,5.5013,5.4801,5.4635,5.4556,5.5471,5.6428,5.6944,5.8171,5.9069,5.9099,5.9099,5.9099,0.0,0.0,0.0,0.0,0.0,0.0,5.5414,0.0,5.2998,5.1659,5.1596,5.1335,5.076,5.0185,4.961,4.9035,4.8518,4.8289,4.8289,4.9362,4.9901,4.9901,5.1072,5.162,5.162,5.0462,4.9715,4.9033,4.7327,4.6271,4.5724,4.6196,4.5742,4.4938,4.6006,4.5715,4.4698,4.4201,4.3598,4.2971,4.2396,4.2264,4.2108,4.1533,4.135,4.135,4.1324,4.1097,4.0946,4.1198,4.1097,4.0946,4.1198,4.1097,4.0896,4.0896,4.0491,4.0134,4.0083,3.9878,3.9697,3.9647,3.8743,3.7638,3.6606,3.643,3.6405,3.6405,3.6405,3.6405,3.6405,3.6405,3.6405,3.6405,3.6405,3.6405,3.6405,3.6405,3.6405,3.6405,3.6405,3.6405,3.6405,3.6405,3.6405,3.6405,3.6405,3.6405,3.6405,3.6405,3.6405,5.1251,5.1929,5.2513,5.2667,5.3345,5.3945,5.3868,5.4344,5.4788,5.4599,5.4853,5.4843,5.4002,5.529,5.6483,5.6428,5.7513,0.0,5.9039,5.9099,0.0,5.9099,5.8949,5.8565,5.7775,5.6734,0.0,0.0,5.4117,5.3412,5.1695,5.1596,5.1152,5.0159,4.9976,4.9427,4.8433,4.9125,4.9475,4.9475,4.9759,4.9901,4.9901,5.0238,5.0851,5.1674,5.1347,5.0903,5.0291,4.8953,4.7863,4.6894,4.6084,4.5847,4.6006,4.6269,4.6216,4.5953,4.5792,4.4837,4.3572,4.2997,4.2814,4.2683,4.2134,4.1951,4.1873,4.1428,4.1097,4.0946,4.0997,4.0946,4.0946,4.0997,4.0946,4.0896,4.0896,4.0643,4.0338,4.0134,3.9878,3.9572,3.9145,3.8492,3.7764,3.7086,3.6681,3.6405,3.6405,3.6405,3.6405,3.6405,3.6405,3.6405,3.6405,3.6405,3.6405,3.6405,3.6405,3.6405,3.6405,3.6405,3.6405,3.6405,3.6405,3.6405,3.6405,3.6405,3.6405,3.6405,3.6405,3.6405,5.159,5.2206,5.2698,5.2698,5.3221,5.3607,5.3345,5.3806,5.4068,5.3436,5.4091,5.4327,5.3194,5.4649,5.6041,5.6188,5.7274,0.0,5.9009,5.9338,5.9428,0.0,5.9099,0.0,5.8081,5.6934,5.5674,0.0,5.3576,5.2601,5.1292,5.1256,5.0812,4.9923,4.9662,4.9087,4.8198,4.8842,4.916,4.916,4.9646,4.9901,4.9901,5.0962,5.1837,5.243,0.0,5.2231,5.1836,5.0403,4.9305,4.8342,4.7431,4.681,4.6478,4.6919,4.6816,4.6374,4.6374,4.579,4.4811,4.373,4.3389,4.3232,4.2473,4.2211,4.2107,4.1481,4.1097,4.0946,4.1047,4.0896,4.0744,4.0896,4.0896,4.0896,4.0896,4.0795,4.0542,4.0185,3.9878,3.9521,3.8969,3.8592,3.8115,3.7312,3.691,3.6681,3.643,3.6405,3.6405,3.6405,3.6405,3.6405,3.6405,3.6405,3.6405,3.6405,3.6405,3.6405,3.6405,3.6405,3.6405,3.6405,3.6405,3.6405,3.6405,3.6405,3.6405,3.6405,3.6405,3.6405,5.1805,5.2267,5.2698,5.2698,5.316,5.3437,5.2852,5.316,5.3269,5.2215,5.2973,5.3421,5.2282,5.3773,5.5388,5.5957,5.7214,5.8351,5.9009,5.9608,5.9727,5.9189,5.9099,5.9045,5.8852,5.7693,5.648,5.5208,5.2964,5.1361,5.0812,5.0786,5.0472,4.9793,4.9244,4.8721,4.8198,4.8172,4.8172,4.8172,4.9217,4.9759,4.9958,5.2,5.3016,5.3203,5.3203,0.0,5.325,5.1594,5.0572,4.9973,4.9361,4.8045,4.6739,4.7841,4.7536,4.6635,4.6791,4.6739,4.6345,4.4547,4.399,4.3781,4.2761,4.2447,4.2265,4.1716,4.1279,4.105,4.1328,4.0923,4.0542,4.0795,4.0896,4.0896,4.0896,4.0896,4.0744,4.0236,3.9929,3.9598,3.912,3.8969,3.8542,3.7563,3.7287,3.7036,3.6681,3.6505,3.6405,3.6405,3.6405,3.6405,3.6405,3.6405,3.6405,3.6405,3.6405,3.6405,3.6405,3.6405,3.6405,3.6405,3.6405,3.6405,3.6405,3.6405,3.6405,3.6405,3.6405,3.6405,5.239,5.2637,5.2698,5.2698,5.279,5.2852,5.2729,5.279,5.2717,5.2094,5.2609,5.2802,5.1593,5.3473,5.5239,5.5329,5.6915,5.8351,5.9009,5.9189,5.9219,0.0,5.9099,5.8689,5.7608,5.6423,0.0,0.0,0.0,5.1361,5.0812,5.0786,5.0315,4.9244,4.8643,4.8303,4.8172,4.8172,4.8172,4.8172,4.8405,4.8988,4.9901,5.0294,5.1072,5.2,5.2,0.0,5.3279,5.2048,5.1445,5.1193,5.0072,4.8874,4.7864,4.8894,4.8646,4.7841,4.8745,4.8446,4.7355,4.5262,4.4591,4.446,4.3781,4.3625,4.3467,4.2892,4.219,4.1672,4.1672,4.1106,4.0517,4.0542,4.0744,4.0896,4.0896,4.0896,4.0795,4.0491,4.0236,3.9955,3.9623,3.917,3.8844,3.8617,3.7789,3.7312,3.7688,3.6935,3.6405,3.6405,3.6405,3.6405,3.6405,3.6405,3.6405,3.6405,3.6405,3.6405,3.6405,3.6405,3.6405,3.6405,3.6405,3.6405,3.6405,3.6405,3.6405,3.6405,3.6405,3.6405,5.2637,5.2975,5.316,5.279,5.2975,5.3067,5.2359,5.2452,5.2471,5.1637,5.2275,5.2651,5.1443,5.3114,5.467,5.467,5.6047,5.7453,5.8441,5.859,5.871,5.9069,5.9099,5.8852,5.8276,5.648,5.515,5.4501,0.0,5.123,5.0368,4.9766,4.9191,4.8643,4.8329,4.8172,4.8172,4.8172,4.8172,4.8172,4.8172,4.8521,4.9045,4.9646,5.0238,5.0796,5.1401,0.0,5.2484,5.1892,5.1665,5.1396,5.029,4.9421,4.8844,4.8795,4.8795,4.8844,4.8795,4.8795,4.8596,4.6971,4.6058,4.5395,4.4255,4.3912,4.3755,4.318,4.2501,4.2033,4.2033,4.1234,4.0517,4.0517,4.0491,4.0593,4.0846,4.0694,4.044,4.0338,4.0083,3.9826,3.9749,3.9471,3.9195,3.8969,3.8417,3.804,3.8015,3.7538,3.7111,3.6883,3.6581,3.6405,3.6405,3.6405,3.6405,3.6405,3.6405,3.6405,3.6405,3.6405,3.6405,3.6405,3.6405,3.6405,3.6405,3.6405,3.6405,3.6405,3.6405,3.6405,5.2914,5.3406,5.3775,5.3098,5.3345,5.3406,5.2206,5.2329,5.244,5.1484,5.2078,5.2469,5.146,5.2684,5.3892,5.4162,5.5179,5.6466,5.7932,5.8112,5.8381,5.9039,5.9099,0.0,5.9099,5.685,0.0,5.5412,0.0,0.0,4.9949,4.8799,4.8172,4.8172,4.8172,4.8172,4.8172,4.8172,4.8172,4.8172,4.8172,4.8172,4.823,4.9103,4.9532,4.9589,5.0545,0.0,0.0,5.1292,5.1265,5.1091,5.0445,4.9779,4.9219,4.8844,4.8944,4.9219,4.8844,4.9092,4.9464,4.8646,4.7638,4.6474,4.5206,4.46,4.4362,4.4147,4.3434,4.2675,4.2726,4.1794,4.0846,4.0542,4.0287,4.0236,4.0694,4.0491,4.0185,4.0134,3.9929,3.98,3.9697,3.9697,3.9546,3.912,3.8994,3.8743,3.8417,3.8165,3.7889,3.7588,3.7036,3.6757,3.6757,3.6757,3.6757,3.6757,3.6757,3.6757,3.6757,3.6757,3.6757,3.6757,3.6757,3.6707,3.6581,3.6707,3.6707,3.6581,3.6707,3.6757,5.3622,5.4068,5.4437,5.3806,5.3683,5.3529,5.279,5.2667,5.2608,5.2215,5.2109,5.197,5.1649,5.2,5.2785,5.4012,5.482,5.5957,5.7872,5.8112,5.8381,5.9039,0.0,0.0,5.9099,5.685,5.5412,5.5412,0.0,0.0,4.9897,4.8799,4.8172,4.8172,4.8172,4.8172,4.8172,4.8172,4.8172,4.8172,4.8172,4.8172,4.8172,4.8289,4.8347,4.8347,4.8463,0.0,0.0,5.007,5.0023,5.0081,5.0989,5.0061,4.8368,5.0191,4.9757,4.8418,5.0268,5.0316,4.9562,4.9464,4.8745,4.7813,4.7656,4.694,4.637,4.7267,4.5953,4.4273,4.4374,4.3287,4.194,4.0795,4.0287,4.0185,4.044,4.0517,4.0389,4.0134,4.0083,3.9981,3.9749,3.9697,3.9672,3.9622,3.9195,3.9044,3.9496,3.8642,3.8191,3.8668,3.8191,3.7864,3.7864,3.7864,3.7864,3.7864,3.7864,3.7864,3.7864,3.7864,3.7864,3.7864,3.7864,3.7613,3.7111,3.7613,3.7588,3.7111,3.7613,3.7864,5.3453,5.416,5.4529,5.3899,5.3976,5.4006,5.2763,5.2563,5.2518,5.1987,5.1926,5.1834,5.1463,5.2162,5.2965,5.3503,5.4491,5.5598,5.6795,5.6944,5.7334,5.8381,5.853,0.0,0.0,0.0,5.4738,0.0,0.0,0.0,4.9897,4.8799,4.8172,4.8172,4.8172,4.8172,4.8172,4.8172,4.8172,4.8172,4.8172,4.8172,4.8172,4.8172,4.8172,4.8172,4.8172,0.0,0.0,4.8899,4.9075,4.9363,4.9406,4.9441,4.9459,4.9334,4.9533,4.995,5.0172,5.0364,5.0555,5.0555,5.0268,4.9708,4.8368,4.7229,4.6635,4.7661,4.6593,4.5169,4.5437,4.3857,4.1864,4.0744,4.0287,4.0134,4.0236,4.0236,4.0185,3.9929,3.9826,3.9826,3.9749,3.9697,3.9697,3.9697,3.9496,3.9446,3.9672,3.9295,3.912,3.9346,3.8542,3.8015,3.8015,3.8015,3.8015,3.8015,3.8015,3.8015,3.8015,3.8015,3.8015,3.8015,3.8015,3.7889,3.7688,3.7889,3.7889,3.7688,3.7914,3.8015,5.2978,5.4068,5.479,5.4129,5.4298,5.4236,5.2902,5.255,5.2337,5.1834,5.1787,5.1741,5.1416,5.2174,5.2965,5.3144,5.4162,5.5209,5.6098,5.6218,5.6585,5.7693,0.0,5.8082,0.0,5.6735,5.4268,0.0,0.0,0.0,4.9662,4.8721,4.8172,4.8172,4.8172,4.8172,4.8172,4.8172,4.8172,4.8172,4.8172,4.8172,4.8172,4.8172,4.8172,4.8172,4.8172,0.0,0.0,4.8553,4.8611,4.8532,4.8736,4.9361,4.9911,4.9073,4.956,5.068,5.022,5.0364,5.0775,5.1135,5.1229,5.0917,4.9386,4.8195,4.7587,4.8646,4.7744,4.6451,4.6325,4.4297,4.2077,4.1147,4.0668,4.0415,4.0415,4.0415,4.0364,4.016,3.9878,3.9697,3.9697,3.9697,3.9697,3.9697,3.9697,3.9697,3.9697,3.9697,3.9697,3.9697,3.8994,3.8492,3.8492,3.8492,3.8492,3.8492,3.8492,3.8492,3.8492,3.8492,3.8492,3.8492,3.8492,3.8417,3.8266,3.8417,3.8417,3.8266,3.8442,3.8417,5.2367,5.3881,5.5306,5.479,5.4543,5.4218,5.3468,5.2612,5.2002,5.2002,5.1787,5.1572,5.1572,5.1957,5.2426,5.3084,5.3773,5.467,5.5987,5.6218,5.6406,0.0,0.0,5.7363,5.8082,5.6475,0.0,0.0,0.0,0.0,4.9113,4.8512,4.8172,4.8172,4.8172,4.8172,4.8172,4.8172,4.8172,4.8172,4.8172,4.8172,4.8172,4.8172,4.8172,0.0,0.0,0.0,0.0,4.9418,4.8869,4.7538,4.9803,4.9964,4.9052,5.009,5.0113,4.9757,5.0822,5.0508,4.9786,5.087,5.1229,5.1229,5.1182,5.0412,4.9786,5.087,5.0017,4.8486,4.7114,4.4877,4.2831,4.2119,4.1591,4.1169,4.1169,4.1169,4.1169,4.1169,4.0364,3.9697,3.9697,3.9697,3.9697,3.9697,3.9697,3.9697,3.9697,3.9697,3.9697,3.9697,3.9697,3.9672,3.9672,3.9672,3.9672,3.9672,3.9672,3.9672,3.9672,3.9672,3.9672,3.9672,3.9672,3.9396,3.8919,3.9421,3.9396,3.8868,3.9421,3.9371,5.112,5.2246,5.3038,5.2871,5.313,5.3219,5.2334,5.2077,5.191,5.1509,5.1556,5.1526,5.1369,5.2174,5.2935,5.3144,5.4132,5.5029,5.5448,5.5508,0.0,5.6376,5.6143,5.5688,0.0,0.0,0.0,0.0,0.0,0.0,4.9087,4.8512,4.8172,4.8172,4.8172,4.8172,4.8172,4.8172,4.8172,4.8172,4.8172,4.8172,4.8172,4.8172,4.8172,0.0,0.0,0.0,0.0,4.8553,4.839,4.789,4.787,4.8055,4.8401,4.8686,4.9115,4.9757,5.0822,5.0964,5.0775,5.1058,5.1229,5.1229,5.1229,5.046,4.9659,5.0028,4.9646,4.8841,4.7521,4.5307,4.3224,4.2916,4.2133,4.1617,4.2159,4.2452,4.2306,4.1369,4.0945,4.0516,3.9826,3.9697,3.9697,3.9697,3.9697,3.9697,3.9697,3.9697,3.9697,3.9697,3.9697,3.9697,3.9697,3.9697,3.9697,3.9697,3.9697,3.9697,3.9697,3.9697,3.9697,3.9697,3.9697,3.9622,3.9421,3.9622,3.9597,3.9446,3.9622,3.9597,4.973,5.0789,5.1546,5.1926,5.2229,5.2362,5.2041,5.183,5.1602,5.1276,5.1339,5.1386,5.1229,5.2306,5.3174,5.3174,5.4311,5.5179,0.0,0.0,0.0,5.5748,0.0,0.0,0.0,0.0,0.0,0.0,0.0,0.0,4.8747,4.8381,4.8172,4.8172,4.8172,4.8172,4.8172,4.8172,4.8172,4.8172,4.8172,4.8172,4.8172,4.8172,4.8172,0.0,0.0,0.0,0.0,4.8669,4.8553,4.821,4.8118,4.8081,4.8137,4.8284,4.8845,4.9737,5.0364,5.087,5.1229,5.1229,5.1229,5.1229,5.1229,5.055,4.982,4.982,4.9601,4.9059,4.7988,4.6325,4.4855,4.4375,4.3863,4.3508,4.3705,4.387,4.3691,4.2577,4.1766,4.0969,4.0364,3.9929,3.9697,3.9697,3.9697,3.9697,3.9697,3.9697,3.9697,3.9697,3.9697,3.9697,3.9697,3.9697,3.9697,3.9697,3.9697,3.9749,3.9826,3.9826,3.9826,3.9826,3.9826,3.98,3.9697,3.9697,3.9697,3.9697,3.9697,3.9697,0.0,4.9478,5.0713,5.1592,5.1697,5.1753,5.2356,5.1837,0.0,5.1229,5.1229,5.1229,5.1289,5.2276,5.3144,5.3234,5.4311,0.0,0.0,5.5179,0.0,0.0,5.4596,0.0,5.2545,0.0,0.0,0.0,0.0,0.0,4.8224,4.8172,4.8172,4.8172,4.8172,4.8172,4.8172,4.8172,4.8172,4.8172,4.8172,4.8172,4.8172,4.8172,4.8172,0.0,0.0,0.0,0.0,4.9304,4.916,4.8353,4.9831,4.9443,4.8165,4.8597,4.9058,4.9513,4.9562,5.0268,5.1135,5.1182,5.1229,5.1199,5.1169,5.0674,5.0196,5.0196,4.9733,4.909,4.8446,4.7799,4.7106,4.6325,4.6386,4.6384,4.5656,4.5467,4.5194,4.4509,4.2695,4.1319,4.1319,4.0465,3.98,3.98,3.98,3.98,3.9747,3.9747,3.9747,3.9747,3.9747,3.9747,3.9697,3.9697,3.9697,3.9697,3.9697,3.9826,4.0083,4.0083,4.0083,4.0083,4.0083,3.9929,3.9697,3.9749,3.9749,3.9749,3.9749,3.9749,4.7532,0.0,4.9659,4.9854,5.0619,5.1353,0.0,5.1366,5.1229,5.1229,5.1229,5.1379,5.1887,5.2217,5.2755,5.3803,5.4221,5.461,5.5119,0.0,0.0,5.5179,5.3506,5.2226,5.1899,0.0,0.0,0.0,0.0,4.8329,4.8198,4.8172,4.8172,4.8172,4.8172,4.8172,4.8172,4.8172,4.8172,4.8172,4.8172,4.8172,4.8172,4.8172,4.8172,0.0,0.0,0.0,4.823,4.8521,4.8463,4.8126,4.7672,4.7752,4.8029,4.7288,4.7545,4.8496,4.9317,4.9757,5.0124,5.0917,5.1229,5.1109,5.0584,5.0315,5.0196,5.0196,4.9404,4.8432,4.8075,4.731,4.6726,4.7144,4.6933,4.6766,4.7391,4.694,4.6164,4.5213,4.365,4.2452,4.2452,4.1568,4.0844,4.0844,4.0844,4.0721,4.0354,4.0325,4.0325,4.0325,4.0325,4.0149,3.9722,3.9697,3.9697,3.9697,3.9697,3.9826,4.0083,4.0083,4.0083,4.0083,3.9878,3.9749,3.9697,3.9929,4.0032,4.0032,4.0032,4.0032,4.7309,4.8267,4.9389,4.9643,5.0481,5.1289,5.1588,5.1439,5.1229,5.1229,5.1229,5.1319,5.1678,5.2247,5.2905,5.3623,5.4251,0.0,0.0,0.0,5.5179,5.5179,5.3097,5.1674,0.0,0.0,0.0,0.0,0.0,4.8172,4.8172,4.8172,4.8172,4.8172,4.8172,4.8172,4.8172,4.8172,4.8172,4.8172,4.8172,4.8172,4.8172,4.8172,4.8172,0.0,0.0,0.0,4.8172,4.8172,4.8172,4.8152,4.7804,4.7831,4.8029,4.7688,4.7735,4.8117,4.9219,4.9931,5.0412,5.1011,5.1229,5.1079,5.0375,4.9986,4.9733,4.9434,4.8626,4.7908,4.8044,4.791,4.7887,4.8515,4.8583,4.8555,4.8606,4.8331,4.7748,4.6633,4.5408,4.4422,4.4144,4.3123,4.2107,4.1495,4.1269,4.1051,4.053,4.0526,4.0526,4.0526,4.0526,4.03,3.9747,3.9697,3.9697,3.9697,3.9826,3.9981,4.0287,4.0287,4.0236,4.0083,3.9826,3.9749,3.9878,4.0032,4.0185,4.0287,4.0185,4.0083,4.7429,4.8387,4.9461,4.9956,5.0674,5.1498,5.1947,5.1618,5.1229,5.1229,5.1229,5.1289,5.1468,5.2336,5.3144,0.0,0.0,0.0,5.5179,5.5179,5.5179,5.5179,5.3097,0.0,0.0,0.0,0.0,0.0,0.0,4.8172,4.8172,4.8172,4.8172,4.8172,4.8172,4.8172,4.8172,4.8172,4.8172,4.8172,4.8172,4.8172,4.8172,4.8172,4.8172,4.8172,0.0,0.0,4.8172,4.8172,4.8172,4.8236,4.8602,4.8487,4.8138,4.8548,4.8374,4.8117,4.9219,5.0316,5.1229,5.1229,5.1229,5.1079,5.0375,4.9793,4.9209,4.8596,4.7967,4.7578,4.8147,4.8865,4.9508,4.9846,5.0394,5.0502,4.9545,4.9416,4.9181,4.8108,4.7262,4.6528,4.6082,4.5016,4.3732,4.2332,4.1905,4.1538,4.0835,4.0777,4.0805,4.1016,4.0782,4.0478,4.0106,3.9877,3.9749,3.9749,3.9981,4.0236,4.0517,4.0517,4.0389,4.0134,3.9878,3.9878,4.0083,4.0185,4.0338,4.0542,4.0338,4.0185,4.7967,4.8778,4.9424,4.9415,5.075,5.1917,5.1468,5.1289,5.1229,5.1229,5.1229,5.1558,5.2665,5.2606,5.2905,0.0,0.0,5.5179,0.0,0.0,5.5179,5.5179,0.0,0.0,0.0,0.0,0.0,0.0,0.0,4.8172,4.8172,4.8172,4.8172,4.8172,4.8172,4.8172,4.8172,4.8172,4.8172,4.8172,4.8172,4.8172,4.8172,4.8172,4.8172,4.8172,0.0,4.8172,4.8172,4.8172,4.8172,4.8178,4.7717,4.7764,4.8083,4.7647,4.7702,4.8117,4.9219,5.0316,5.1229,5.1229,5.1229,5.1079,5.0375,4.9793,4.9299,4.9179,4.8626,4.8147,4.8267,4.9194,5.0076,5.012,5.0488,5.0698,5.0353,4.9881,4.9298,4.869,4.7693,4.7119,4.7683,4.708,4.6039,4.4606,4.433,4.3766,4.2131,4.1961,4.2316,4.3228,4.2044,4.1349,4.18,4.0696,4.0032,4.0032,4.0083,4.0236,4.0517,4.0517,4.0389,4.0134,4.0083,4.0083,4.0083,4.0593,4.0795,4.0846,4.0795,4.0643,4.7668,4.8803,4.9716,4.9004,5.0126,5.1295,5.1006,5.1137,5.1258,5.0905,5.1309,5.1947,5.2546,0.0,5.3264,5.491,0.0,5.5179,5.5179,5.5179,5.5179,0.0,0.0,0.0,0.0,0.0,0.0,0.0,0.0,0.0,4.8172,4.8172,4.8172,4.8172,4.8172,4.8172,4.8172,4.8172,4.8172,4.8172,4.8172,4.8172,4.8172,4.8172,4.8172,4.8172,0.0,4.8172,4.8172,4.8172,4.8172,4.812,4.7571,4.7622,4.7975,4.7134,4.8014,4.9659,4.8944,4.9805,5.1229,5.1229,5.1229,5.1079,5.0375,4.9986,4.9733,4.9419,4.885,4.8446,4.9164,4.9747,5.0285,5.0644,5.0896,5.0964,5.071,5.052,5.0236,4.9791,4.9355,4.9051,4.9115,4.87,4.7883,4.6429,4.6131,4.5669,4.4568,4.4309,4.4414,4.4856,4.3337,4.2267,4.2415,4.0977,4.0236,4.0542,4.0389,4.0338,4.0491,4.0338,4.0236,4.0083,4.0083,4.0236,4.0516,4.0795,4.0997,4.1097,4.0997,4.0846,4.7109,4.8176,4.9122,4.8624,4.9789,5.0962,5.0575,5.1064,5.1449,5.0656,5.1434,5.2247,5.2396,5.3084,0.0,5.5029,5.5179,5.5179,5.5179,5.5179,5.5179,0.0,0.0,0.0,0.0,0.0,0.0,0.0,0.0,0.0,4.8172,4.8172,4.8172,4.8172,4.8172,4.8172,4.8172,4.8172,4.8172,4.8172,4.8172,4.8172,4.8172,4.8172,4.8172,4.8172,4.8172,4.8172,4.8172,4.8172,4.8172,4.812,4.7571,4.7542,4.7812,4.707,4.8496,5.0603,4.9239,4.9854,5.1229,5.1229,5.1229,5.1109,5.0584,5.0315,5.0136,4.9823,4.9254,4.8985,4.9927,5.0315,5.0554,5.1109,5.1229,5.1105,5.087,5.1011,5.1041,5.0596,5.071,5.0721,5.0199,5.0016,4.9434,4.8046,4.7674,4.7287,4.655,4.633,4.6256,4.6459,4.4792,4.3408,4.2669,4.1181,4.0567,4.1222,4.0896,4.0744,4.0946,4.0668,4.0516,4.0465,4.0516,4.0618,4.0795,4.0946,4.1097,4.1324,4.1322,4.1322,4.67,4.6547,4.6656,4.8125,5.0309,5.168,5.0157,5.0991,5.1832,5.0717,5.1434,5.2396,5.2995,5.4162,5.5089,5.5179,5.5179,5.5179,5.5179,0.0,0.0,0.0,0.0,0.0,0.0,0.0,0.0,0.0,0.0,0.0,4.8172,4.8172,4.8172,4.8172,4.8172,4.8172,4.8172,4.8172,4.8172,4.8172,4.8172,4.8172,4.8172,4.8172,4.8172,4.8172,4.8172,4.8172,4.8172,4.8172,4.8172,4.812,4.7571,4.7277,4.7295,4.7707,4.8646,4.9834,5.068,5.1058,5.1229,5.1229,5.1229,5.1199,5.1169,5.0674,5.0315,5.093,5.0554,5.0076,5.0166,5.0644,5.1169,5.1199,5.1229,5.1105,5.087,5.1011,5.1041,5.0596,5.0852,5.1058,5.081,5.0952,5.0609,4.9291,4.9066,4.8574,4.7244,4.7039,4.7295,4.811,4.6694,4.4858,4.2796,4.1484,4.1272,4.2208,4.162,4.1547,4.2208,4.2039,4.1716,4.1518,4.1716,4.1395,4.0542,4.0997,4.1274,4.1324,4.2235,4.255,4.5153,4.5901,4.6609,4.6562,4.8873,5.0693,4.9022,5.0013,5.1116,5.0701,5.1237,5.2063,5.3017,0.0,5.47,5.5119,5.485,5.473,5.5119,0.0,0.0,0.0,0.0,0.0,0.0,0.0,0.0,0.0,0.0,0.0,4.8172,4.8172,4.8172,4.8172,4.8172,4.8015,4.7649,4.8015,4.8015,4.7649,4.8015,4.8172,4.8172,4.8172,4.8172,4.8172,4.8172,4.8172,4.8172,4.8172,4.8172,4.8094,4.7179,4.6776,4.6725,4.6898,4.8094,4.9659,5.0076,5.0632,5.1229,5.1229,5.1229,5.1229,5.1229,5.1003,5.0853,5.1139,5.105,5.0794,5.0794,5.0973,5.1229,5.1229,5.1229,5.1182,5.1058,5.1105,5.1135,5.0947,5.1088,5.1182,5.1058,5.1105,5.1011,5.0508,5.043,5.0239,4.9727,4.9386,4.9317,4.964,4.7665,4.5167,4.2239,4.1925,4.1769,4.1521,4.1792,4.2355,4.3293,4.2328,4.1789,4.1838,4.1345,4.1272,4.1693,4.1448,4.1918,4.3129,4.2889,4.3081,4.4101,4.5129,4.6167,4.5934,4.7802,4.9319,4.8027,4.9408,5.0759,5.0039,5.0929,5.1962,5.2536,0.0,0.0,0.0,5.467,5.467,0.0,0.0,0.0,0.0,0.0,0.0,0.0,0.0,0.0,0.0,0.0,0.0,0.0,4.8172,4.8094,4.7911,4.7911,4.7728,4.7278,4.7728,4.7806,4.7597,4.7989,4.8172,4.8172,4.8172,4.8172,4.8172,4.8172,4.8172,4.8172,4.8172,4.7963,4.7571,4.6787,4.6238,4.5953,4.6687,4.7841,4.9219,4.9883,5.0585,5.1229,5.1229,5.1229,5.1229,5.1229,5.1229,5.1229,5.1229,5.1229,5.1229,5.1229,5.1229,5.1229,5.1229,5.1229,5.1229,5.1229,5.1229,5.1229,5.1229,5.1229,5.1229,5.1229,5.1229,5.1229,5.1229,5.1229,5.1229,5.1229,5.0899,5.0662,5.0614,4.8442,4.6026,4.3487,4.3296,4.3009,4.2355,4.3054,4.3626,4.4003,4.2813,4.223,4.2447,4.1495,4.1395,4.2257,4.1967,4.2625,4.4312,4.3909,4.4097,4.3665,4.4099,4.487,4.6451,4.7393,4.7731,4.724,4.9374,5.0812,4.8571,5.035,5.2201,5.1563,5.352,0.0,5.4311,5.476,0.0,0.0,0.0,0.0,0.0,0.0,0.0,0.0,0.0,0.0,0.0,0.0,0.0,0.0,4.8172,4.7911,4.7304,4.7278,4.7278,4.7252,4.7278,4.7597,4.8172,4.8172,4.8172,4.8172,4.8172,4.8172,4.8172,4.8172,4.8172,4.8172,4.8172,4.7492,4.6473,4.6473,4.5767,4.4992,4.715,4.7965,4.8346,5.046,5.1182,5.1229,5.1229,5.1229,5.1229,5.1229,5.1229,5.1229,5.1229,5.1229,5.1229,5.1229,5.1229,5.1229,5.1229,5.1229,5.1229,5.1229,5.1229,5.1229,5.1229,5.1229,5.1229,5.1229,5.1229,5.1229,5.1229,5.1229,5.1229,5.1229,5.1229,5.1105,5.0793,4.9107,4.7749,4.7043,4.5721,4.5053,4.5355,4.5644,4.5372,4.4359,4.3606,4.3293,4.3504,4.2523,4.2012,4.2035,4.255,4.3321,4.4359,4.5326,4.5824,4.2116,4.3014,4.4202,4.4675,4.6081,4.7158,4.6245,4.7623,4.8783,4.7702,4.9206,5.0507,4.9831,5.1324,0.0,5.2432,5.3594,0.0,0.0,0.0,0.0,0.0,0.0,0.0,0.0,0.0,0.0,0.0,0.0,0.0,0.0,4.8172,4.7911,4.7304,4.7278,4.6887,4.6077,4.6525,4.6604,4.6395,4.6787,4.7414,4.8172,4.8172,4.8172,4.8172,4.8172,4.8172,4.8146,4.7754,4.6917,4.5872,4.5872,4.5401,4.4884,4.6321,4.7331,4.8167,4.9611,5.0555,5.1229,5.1229,5.1229,5.1229,5.1229,5.1229,5.1229,5.1229,5.1229,5.1229,5.1229,5.1229,5.1229,5.1229,5.1229,5.1229,5.1229,5.1229,5.1229,5.1229,5.1229,5.1229,5.1229,5.1229,5.1229,5.1229,5.1229,5.1105,5.0964,5.0917,5.0644,4.9964,4.9209,4.8075,4.6432,4.6339,4.5789,4.4434,4.5545,4.6272,4.6373,4.5326,4.4794,4.484,4.315,4.2958,4.4396,4.3293,4.405,4.6417,4.5987,4.6166,4.203,4.3075,4.4383,4.48,4.5949,4.6673,4.5773,4.6343,4.7078,4.6971,4.8163,4.9072,4.8409,4.9738,0.0,5.0622,0.0,0.0,0.0,0.0,0.0,0.0,0.0,0.0,0.0,0.0,0.0,0.0,0.0,0.0,0.0,4.8172,4.7832,4.7022,4.6996,4.6552,4.5637,4.5976,4.6186,4.626,4.6421,4.697,4.7832,4.7832,4.7963,4.8172,4.7937,4.7832,4.7806,4.7231,4.6447,4.5581,4.5581,4.5216,4.483,4.5953,4.7074,4.8117,4.9219,5.0316,5.1229,5.1229,5.1229,5.1229,5.1229,5.1229,5.1229,5.1229,5.1229,5.1229,5.1229,5.1229,5.1229,5.1229,5.1229,5.1229,5.1229,5.1229,5.1229,5.1229,5.1229,5.1229,5.1229,5.1229,5.1229,5.1229,5.1229,5.1105,5.0964,5.0964,5.0768,5.0241,4.9881,4.911,4.7765,4.7775,4.7308,4.6102,4.6865,4.7593,4.8073,4.625,4.5252,4.5252,4.399,4.4129,4.5625,4.5044,4.5935,4.8087,4.7451,4.7496,4.2788,4.3807,4.5012,4.6055,4.6369,4.6264,4.5689,4.5558,4.5689,4.6212,0.0,4.7704,4.7055,4.8503,4.9515,0.0,0.0,0.0,0.0,0.0,0.0,0.0,0.0,0.0,0.0,0.0,0.0,0.0,0.0,0.0,0.0,4.8172,4.7675,4.6525,4.6473,4.6186,4.5503,4.5558,4.6025,4.7043,4.6578,4.663,4.7122,4.7226,4.7649,4.8146,4.7571,4.7252,4.7205,4.663,4.6055,4.5558,4.5558,4.5164,4.483,4.5874,4.6971,4.8117,4.912,5.022,5.1229,5.1229,5.1229,5.1229,5.1229,5.1229,5.1229,5.1229,5.1229,5.1229,5.1229,5.1229,5.1229,5.1229,5.1229,5.1229,5.1229,5.1229,5.1229,5.1229,5.1229,5.1229,5.1229,5.1229,5.1229,5.1229,5.1229,5.1229,5.1229,5.1229,5.1229,5.1229,5.0805,5.0473,5.0209,4.9604,4.9245,4.9314,4.9117,4.9072,4.9284,4.6745,4.5379,4.5333,4.5204,4.5486,4.6286,4.7264,4.8311,4.9299,4.9299,4.9299,4.2186,4.318,4.4225,4.4931,4.5454,4.5663,4.5062,4.4877,4.4957,4.5088,4.5306,4.5416,4.523,4.6732,4.772,0.0,0.0,0.0,0.0,0.0,0.0,0.0,0.0,0.0,0.0,0.0,0.0,0.0,0.0,0.0,4.8172,4.8172,4.7675,4.6525,4.6473,4.5976,4.4877,4.4877,4.5036,0.0,4.5166,4.5428,4.6029,4.6861,4.7649,4.8146,4.7571,4.7074,4.663,4.6055,4.5454,4.4877,4.4877,4.4798,4.4722,4.4992,4.6294,4.8016,4.8267,4.9611,5.1229,5.1229,5.1229,5.1229,5.1229,5.1229,5.1229,5.1229,5.1229,5.1229,5.1229,5.1229,5.1229,5.1229,5.1229,5.1229,5.1229,5.1229,5.1229,5.1229,5.1229,5.1229,5.1229,5.1229,5.1229,5.1229,5.1229,5.1229,5.1229,5.1229,5.1229,5.1229,5.0917,5.0602,5.0255,5.0206,4.9934,4.9344,4.9534,4.9594,4.9329,4.8685,4.8265,4.8038,4.7247,4.7333,4.8273,4.7759,4.8097,4.9299,4.9299,4.9299,4.1976,4.3258,4.4565,4.5689,4.6156,4.6156,4.5294,4.5111,4.5033,4.4746,4.4668,4.4668,4.4668,4.5499,0.0,0.0,0.0,0.0,0.0,0.0,0.0,0.0,0.0,0.0,0.0,0.0,0.0,0.0,0.0,4.8172,4.8172,4.8172,4.778,4.6917,4.663,4.6055,4.5111,4.4824,4.4879,4.5166,4.4853,4.5192,4.6055,4.6656,4.7231,4.7728,4.6891,4.6342,4.6029,4.5428,4.4955,4.4668,4.4668,4.4668,4.4668,4.4668,4.5794,4.7331,4.7813,4.9092,5.0508,5.1011,5.1229,5.1229,5.1229,5.1229,5.1229,5.1229,5.1229,5.1229,5.1229,5.1229,5.1229,5.1229,5.1229,5.1229,5.1229,5.1229,5.1229,5.1229,5.1229,5.1229,5.1229,5.1229,5.1229,5.1229,5.1229,5.1229,5.1229,5.1229,5.1229,5.1229,5.0964,5.0768,5.0704,5.0579,5.0443,5.0196,5.0279,5.0262,5.0212,5.0212,4.9729,4.8739,4.8698,4.8921,4.9182,4.9216,4.955,5.0212,5.0212,5.0212,4.1559,4.3127,4.4905,4.6734,4.7043,4.6813,4.5976,4.5767,4.5611,4.5009,4.4746,4.4668,4.4668,4.4668,0.0,0.0,0.0,0.0,0.0,0.0,0.0,0.0,0.0,0.0,0.0,0.0,0.0,0.0,0.0,4.8172,4.8172,4.8172,4.7885,4.7205,4.6734,4.6159,4.548,4.4929,4.4929,4.5454,4.4903,4.5401,4.6604,4.6316,4.6604,4.7226,4.6077,4.5581,4.5529,4.4929,4.4668,4.4668,4.4668,4.4668,4.4668,4.4668,4.5395,4.6531,4.7638,4.8696,4.9757,5.087,5.1229,5.1229,5.1229,5.1229,5.1229,5.1229,5.1229,5.1229,5.1229,5.1229,5.1229,5.1229,5.1229,5.1229,5.1229,5.1229,5.1229,5.1229,5.1229,5.1229,5.1229,5.1229,5.1229,5.1229,5.1229,5.1229,5.1229,5.1229,5.1229,5.1229,5.1011,5.0964,5.1182,5.0805,5.071,5.1135,5.0917,5.0917,5.1105,5.1182,5.0458,4.8925,4.9799,5.0113,4.974,5.0649,5.1152,5.1229,5.1229,5.1229,4.0282,4.1925,4.3781,4.6029,4.6212,4.595,4.629,0.0,4.6212,0.0,4.5033,4.4668,4.4668,0.0,0.0,0.0,0.0,0.0,0.0,0.0,0.0,0.0,0.0,0.0,0.0,0.0,0.0,0.0,4.8172,4.8172,4.8172,4.8172,4.7702,4.663,4.6525,4.595,4.4798,4.4774,4.4774,4.4853,4.4774,4.5611,4.7179,4.5663,4.582,4.7226,4.6077,4.5581,4.5529,4.4929,4.4668,4.4668,4.4668,4.4668,4.4668,4.4668,4.5395,4.6531,4.7638,4.8696,4.9757,5.087,5.1229,5.1229,5.1229,5.1229,5.1229,5.1229,5.1229,5.1229,5.1229,5.1229,5.1229,5.1229,5.1229,5.1229,5.1229,5.1229,5.1229,5.1229,5.1229,5.1229,5.1229,5.1229,5.1229,5.1229,5.1229,5.1229,5.1229,5.1229,5.1229,5.1229,5.1182,5.1182,5.1229,5.0917,5.0775,5.087,5.0822,5.0822,5.087,5.1058,5.0999,5.0508,5.0644,5.0674,5.0627,5.0763,5.0964,5.1229,5.1229,5.1229,4.0795,4.2398,4.3911,4.5753,4.6413,4.6578,4.6499,4.6473,4.6316,4.5741,4.5085,4.4668,4.4668,0.0,0.0,0.0,0.0,0.0,0.0,0.0,0.0,0.0,0.0,0.0,0.0,0.0,0.0,0.0,4.8172,4.8172,4.8172,4.8172,4.7963,4.744,4.6813,4.6238,4.5715,4.5062,4.4668,4.4668,4.5007,4.5637,4.6286,4.5529,4.582,4.6787,4.5637,4.5114,4.5114,4.4826,4.4668,4.4668,4.4668,4.4668,4.4668,4.4668,4.5046,4.5715,4.7434,4.8346,4.8993,5.068,5.1229,5.1229,5.1229,5.1229,5.1229,5.1229,5.1229,5.1229,5.1229,5.1229,5.1229,5.1229,5.1229,5.1229,5.1229,5.1229,5.1229,5.1229,5.1229,5.1229,5.1229,5.1229,5.1229,5.1229,5.1229,5.1229,5.1229,5.1229,5.1229,5.1229,5.1229,5.1229,5.1229,5.1058,5.0964,5.0793,5.0964,5.0964,5.0793,5.1058,5.1105,5.1011,5.1011,5.0964,5.0793,5.0964,5.1058,5.1229,5.1229,5.1229,4.0772,4.2035,4.3127,4.484,4.5861,4.6421,0.0,0.0,4.6316,0.0,4.5216,4.485,0.0,0.0,0.0,0.0,0.0,0.0,0.0,0.0,0.0,0.0,0.0,0.0,0.0,0.0,0.0,0.0,4.8172,4.8172,4.8172,4.8172,4.8041,4.7754,4.6917,4.6342,4.6029,4.5166,4.4746,4.4903,4.5216,4.5558,4.5846,4.5532,4.5715,4.6212,4.5166,4.4668,4.4668,4.4668,4.4668,4.4668,4.4668,4.4668,4.4722,4.5046,4.4938,4.5046,4.7508,4.8217,4.8318,5.0508,5.1229,5.1229,5.1229,5.1229,5.1229,5.1229,5.1229,5.1229,5.1229,5.1229,5.1229,5.1229,5.1229,5.1229,5.1229,5.1229,5.1229,5.1229,5.1229,5.1229,5.1229,5.1229,5.1229,5.1229,5.1229,5.1229,5.1229,5.1229,5.1229,5.1229,5.1229,5.1229,5.1229,5.1229,5.1058,5.0822,5.1011,5.1011,5.0793,5.1011,5.1105,5.1229,5.1229,5.1105,5.0917,5.1105,5.1229,5.1229,5.1229,5.1229,3.8936,3.9395,4.0063,4.2527,4.3624,4.433,0.0,0.0,4.6316,4.5741,4.5611,4.5401,0.0,0.0,0.0,0.0,0.0,0.0,0.0,0.0,0.0,0.0,0.0,0.0,0.0,0.0,0.0,0.0,4.8172,4.8172,4.8172,4.8172,4.7675,4.6604,4.6499,4.595,4.4826,4.4748,4.5009,4.5584,4.5036,4.5349,4.6395,4.5271,4.5114,4.5637,4.5009,4.4668,4.4668,4.4668,4.4668,4.4668,4.4668,4.4668,4.483,4.59,4.5662,4.5127,4.8396,4.8844,4.8318,5.0508,5.1229,5.1229,5.1229,5.1229,5.1229,5.1229,5.1229,5.1229,5.1229,5.1229,5.1229,5.1229,5.1229,5.1229,5.1229,5.1229,5.1229,5.1229,5.1229,5.1229,5.1229,5.1229,5.1229,5.1229,5.1229,5.1229,5.1229,5.1229,5.1229,5.1229,5.1229,5.1229,5.1229,5.1229,5.1058,5.0822,5.0793,5.0793,5.0793,5.0793,5.0964,5.1229,5.1229,5.1182,5.1182,5.1182,5.1229,5.1229,5.1229,5.1229,3.7619,3.8421,3.9306,4.0747,4.2291,4.348,4.3893,4.4694,4.5288,4.5081,4.4882,0.0,0.0,0.0,0.0,0.0,0.0,0.0,0.0,0.0,0.0,0.0,0.0,0.0,0.0,0.0,0.0,0.0,0.0,4.8172,4.8172,4.8172,4.7832,4.7048,4.6656,4.5924,4.4694,4.4668,4.4826,4.5007,4.4826,4.4957,4.5349,4.4931,4.4853,4.5036,4.4772,4.4668,4.4668,4.4668,4.4668,4.4668,4.4668,4.4668,4.483,4.5953,4.6111,4.6164,4.8696,4.9366,4.9268,5.0728,5.1229,5.1229,5.1229,5.1229,5.1229,5.1229,5.1229,5.1229,5.1229,5.1229,5.1229,5.1229,5.1229,5.1229,5.1229,5.1229,5.1229,5.1229,5.1229,5.1229,5.1229,5.1229,5.1229,5.1229,5.1229,5.1229,5.1229,5.1229,5.1229,5.1229,5.1229,5.1229,5.1229,5.1229,5.1058,5.0822,5.0964,5.0964,5.0793,5.0964,5.1105,5.1229,5.1229,5.1229,5.1229,5.1229,5.1229,5.1229,5.1229,5.1229,3.6298,3.714,3.8066,3.9116,4.0543,4.1825,4.2415,0.0,4.3669,4.4053,4.4013,0.0,0.0,0.0,0.0,0.0,0.0,0.0,0.0,0.0,0.0,0.0,0.0,0.0,0.0,0.0,0.0,0.0,0.0,0.0,4.7911,4.7911,4.7545,4.673,4.6395,4.5715,4.4694,4.4931,4.4931,4.4668,4.4668,4.4668,4.4668,4.4668,4.4668,4.4668,4.4668,4.4668,4.4668,4.4668,4.4668,4.4668,4.4668,4.4668,4.4884,4.6374,4.6739,4.6791,4.9268,4.9931,4.9757,5.087,5.1229,5.1229,5.1229,5.1229,5.1229,5.1229,5.1229,5.1229,5.1229,5.1229,5.1229,5.1229,5.1229,5.1229,5.1229,5.1229,5.1229,5.1229,5.1229,5.1229,5.1229,5.1229,5.1229,5.1229,5.1229,5.1229,5.1229,5.1229,5.1229,5.1229,5.1229,5.1229,5.1229,5.1229,5.1105,5.0964,5.1011,5.1011,5.0964,5.1011,5.1105,5.1229,5.1229,5.1229,5.1229,5.1229,5.1229,5.1229,5.1229,5.1229,0.0,0.0,0.0,3.7552,0.0,0.0,4.0927,0.0,4.1619,4.2693,0.0,0.0,0.0,0.0,0.0,0.0,0.0,0.0,0.0,0.0,0.0,0.0,0.0,0.0,0.0,0.0,0.0,0.0,4.8172,4.7937,4.7304,4.7252,4.673,4.5607,4.5581,4.5294,4.4694,4.5323,4.5323,4.4668,4.4668,4.4668,4.4668,4.4668,4.4668,4.4668,4.4668,4.4668,4.4668,4.4668,4.4668,4.4668,4.4668,4.4668,4.4992,4.715,4.7331,4.6867,5.0095,5.0508,4.9834,5.087,5.1229,5.1229,5.1229,5.1229,5.1229,5.1229,5.1229,5.1229,5.1229,5.1229,5.1229,5.1229,5.1229,5.1229,5.1229,5.1229,5.1229,5.1229,5.1229,5.1229,5.1229,5.1229,5.1229,5.1229,5.1229,5.1229,5.1229,5.1229,5.1229,5.1229,5.1229,5.1229,5.1229,5.1229,5.1229,5.1229,5.0964,5.0917,5.1182,5.0964,5.0917,5.1182,5.1229,5.1229,5.1229,5.1229,5.1229,5.1229,5.1229,5.1229,3.4212,0.0,0.0,0.0,0.0,0.0,0.0,0.0,0.0,0.0,0.0,0.0,0.0,0.0,0.0,0.0,0.0,0.0,0.0,0.0,0.0,0.0,0.0,0.0,0.0,0.0,0.0,0.0,4.8172,4.7937,4.7304,4.6495,4.595,4.5637,4.5581,4.5294,4.4694,4.5323,4.5323,4.4668,4.4668,4.4668,4.4668,4.4668,4.4668,4.4668,4.4668,4.4668,4.4668,4.4668,4.4668,4.4668,4.4668,4.4668,4.4992,4.715,4.7813,4.7943,5.0364,5.1011,5.0822,5.1105,5.1229,5.1229,5.1229,5.1229,5.1229,5.1229,5.1229,5.1229,5.1229,5.1229,5.1229,5.1229,5.1229,5.1229,5.1229,5.1229,5.1229,5.1229,5.1229,5.1229,5.1229,5.1229,5.1229,5.1229,5.1229,5.1229,5.1229,5.1229,5.1229,5.1229,5.1229,5.1229,5.1229,5.1229,5.1229,5.1229,5.1105,5.1105,5.1229,5.1105,5.1105,5.1229,5.1229,5.1229,5.1229,5.1229,5.1229,5.1229,5.1229,5.1229,3.3897,3.4148,3.4575,3.5307,0.0,0.0,3.7789,3.8341,0.0,0.0,0.0,0.0,0.0,0.0,0.0,0.0,0.0,0.0,0.0,0.0,0.0,0.0,0.0,0.0,0.0,4.8172,4.8172,4.8172,4.8172,4.7832,4.7022,4.6107,4.5581,4.5581,4.5581,4.5454,4.5114,4.5399,4.5323,4.4668,4.4668,4.4668,4.4668,4.4668,4.4668,4.4668,4.4668,4.4668,4.4668,4.4668,4.4668,4.4668,4.4668,4.4668,4.4992,4.715,4.8016,4.8318,5.046,5.1229,5.1229,5.1229,5.1229,5.1229,5.1229,5.1229,5.1229,5.1229,5.1229,5.1229,5.1229,5.1229,5.1229,5.1229,5.1229,5.1229,5.1229,5.1229,5.1229,5.1229,5.1229,5.1229,5.1229,5.1229,5.1229,5.1229,5.1229,5.1229,5.1229,5.1229,5.1229,5.1229,5.1229,5.1229,5.1229,5.1229,5.1229,5.1229,5.1229,5.1229,5.1229,5.1229,5.1229,5.1229,5.1229,5.1229,5.1229,5.1229,5.1229,5.1229,5.1229,5.1229,3.3997,3.3997,3.4248,3.5232,3.5508,0.0,3.7487,3.7437,3.7538,0.0,0.0,0.0,0.0,0.0,0.0,0.0,0.0,0.0,0.0,0.0,0.0,0.0,0.0,0.0,4.8172,4.8172,4.8172,4.8172,4.812,4.7649,4.663,4.6029,4.5689,4.5581,4.5689,4.5663,4.5477,4.5584,4.5323,4.4668,4.4668,4.4668,4.4668,4.4668,4.4668,4.4668,4.4668,4.4668,4.4668,4.4668,4.4668,4.4668,4.4668,4.4668,4.4992,4.715,4.8016,4.8318,5.046,5.1229,5.1229,5.1229,5.1229,5.1229,5.1229,5.1229,5.1229,5.1229,5.1229,5.1229,5.1229,5.1229,5.1229,5.1229,5.1229,5.1229,5.1229,5.1229,5.1229,5.1229,5.1229,5.1229,5.1229,5.1229,5.1229,5.1229,5.1229,5.1229,5.1229,5.1229,5.1229,5.1229,5.1229,5.1229,5.1229,5.1229,5.1229,5.1229,5.1229,5.1229,5.1229,5.1229,5.1229,5.1229,5.1229,5.1229,5.1229,5.1229,5.1229,5.1229,5.1229,5.1229,3.455,3.455,3.468,3.5332,3.5508,0.0,3.6508,3.6656,3.6782,0.0,0.0,0.0,0.0,0.0,0.0,0.0,0.0,0.0,0.0,0.0,0.0,0.0,0.0,0.0,4.8172,4.8172,4.8172,4.8172,4.7754,4.7414,4.7179,4.663,4.6107,4.5637,4.6081,4.5846,4.4905,4.5375,4.5323,4.4668,4.4668,4.4668,4.4668,4.4668,4.4668,4.4668,4.4668,4.4668,4.4668,4.4668,4.4668,4.4668,4.4668,4.4668,4.4992,4.715,4.8016,4.8318,5.046,5.1229,5.1229,5.1229,5.1229,5.1229,5.1229,5.1229,5.1229,5.1229,5.1229,5.1229,5.1229,5.1229,5.1229,5.1229,5.1229,5.1229,5.1229,5.1229,5.1229,5.1229,5.1229,5.1229,5.1229,5.1229,5.1229,5.1229,5.1229,5.1229,5.1229,5.1229,5.1229,5.1229,5.1229,5.1229,5.1229,5.1229,5.1229,5.1229,5.1229,5.1229,5.1229,5.1229,5.1229,5.1229,5.1229,5.1229,5.1229,5.1229,5.1229,5.1229,5.1229,5.1229,3.5157,3.4881,3.4806,3.5357,3.5508,0.0,0.0,3.6405,3.6556,3.7061,3.7412,0.0,0.0,0.0,0.0,0.0,0.0,0.0,0.0,0.0,0.0,0.0,0.0,0.0,4.7703,4.788,4.7997,4.8172,4.7911,4.7623,4.7304,4.7074,4.6787,4.6443,4.6212,4.5898,4.5611,4.5323,4.5036,4.4668,4.4668,4.4668,4.4668,4.4668,4.4668,4.4668,4.4668,4.4668,4.4668,4.4668,4.4668,4.4668,4.4668,4.4668,4.4992,4.715,4.8016,4.8318,5.046,5.1229,5.1229,5.1229,5.1229,5.1229,5.1229,5.1229,5.1229,5.1229,5.1229,5.1229,5.1229,5.1229,5.1229,5.1229,5.1229,5.1229,5.1229,5.1229,5.1229,5.1229,5.1229,5.1229,5.1229,5.1229,5.1229,5.1229,5.1229,5.1229,5.1229,5.1229,5.1229,5.1229,5.1229,5.1229,5.1229,5.1229,5.1229,5.1229,5.1229,5.1229,5.1229,5.1229,5.1229,5.1229,5.1229,5.1229,5.1229,5.1229,5.1229,5.1229,5.1229,5.1229,3.5855,3.5378,3.5152,3.5558,0.0,3.5805,0.0,0.0,0.0,3.6935,0.0,0.0,0.0,0.0,0.0,0.0,0.0,0.0,0.0,0.0,0.0,0.0,0.0,0.0,0.0,4.7346,4.7717,4.8055,4.8094,4.7858,4.7519,4.7492,4.744,4.7278,4.6447,4.6081,4.6316,4.5375,4.4798,4.4668,4.4668,4.4668,4.4613,4.4668,4.4668,4.4613,4.4613,4.4668,4.4668,4.4613,4.4613,4.4613,4.4668,4.4668,4.4992,4.715,4.8016,4.8318,5.046,5.1229,5.1229,5.1229,5.1229,5.1229,5.1229,5.1229,5.1229,5.1229,5.1229,5.1229,5.1229,5.1229,5.1229,5.1229,5.1229,5.1229,5.1229,5.1229,5.1229,5.1229,5.1229,5.1229,5.1229,5.1229,5.1229,5.1229,5.1229,5.1229,5.1229,5.1229,5.1229,5.1229,5.1229,5.1229,5.1229,5.1229,5.1229,5.1229,5.1229,5.1229,5.1229,5.1229,5.1229,5.1229,5.1229,5.1229,5.1229,5.1229,5.1229,5.1229,5.1229,5.1229,0.0,0.0,0.0,0.0,3.6329,0.0,0.0,0.0,3.643,3.648,0.0,0.0,0.0,0.0,0.0,0.0,0.0,0.0,0.0,0.0,0.0,0.0,0.0,0.0,0.0,4.6805,4.7186,4.771,4.7528,4.7623,4.8068,4.8094,4.7858,4.7304,4.7148,4.6626,4.5741,4.5584,4.5216,4.4668,4.4668,4.4559,4.4367,4.4559,4.4559,4.4367,4.4367,4.4476,4.4668,4.4422,4.4367,4.4367,4.4613,4.4668,4.4992,4.715,4.8016,4.8318,5.046,5.1229,5.1229,5.1229,5.1229,5.1229,5.1229,5.1229,5.1229,5.1229,5.1229,5.1229,5.1229,5.1229,5.1229,5.1229,5.1229,5.1229,5.1229,5.1229,5.1229,5.1229,5.1229,5.1229,5.1229,5.1229,5.1229,5.1229,5.1229,5.1229,5.1229,5.1229,5.1229,5.1229,5.1229,5.1229,5.1229,5.1229,5.1229,5.1229,5.1229,5.1229,5.1229,5.1229,5.1229,5.1229,5.1229,5.1229,5.1229,5.1229,5.1229,5.1229,5.1229,5.1229,0.0,0.0,0.0,0.0,0.0,0.0,3.648,0.0,3.6405,0.0,0.0,0.0,0.0,0.0,0.0,0.0,3.8542,0.0,0.0,0.0,0.0,0.0,0.0,0.0,0.0,0.0,0.0,0.0,4.7218,4.7224,4.7593,4.7997,4.8009,4.7542,4.7377,4.6944,4.6133,4.5627,4.5158,4.4668,4.4367,4.4258,4.4313,4.4258,4.4148,4.4064,4.4064,4.4094,4.4203,4.4094,4.4064,4.4064,4.4203,4.4313,4.4776,4.7126,4.8016,4.8318,5.046,5.1229,5.1229,5.1229,5.1229,5.1229,5.1229,5.1229,5.1229,5.1229,5.1229,5.1229,5.1229,5.1229,5.1229,5.1229,5.1229,5.1229,5.1229,5.1229,5.1229,5.1229,5.1229,5.1229,5.1229,5.1229,5.1229,5.1229,5.1229,5.1229,5.1229,5.1229,5.1229,5.1229,5.1229,5.1229,5.1229,5.1229,5.1229,5.1229,5.1229,5.1229,5.1229,5.1229,5.1229,5.1229,5.1229,5.1229,5.1229,5.1229,5.1229,5.1229,5.1229,5.1229,3.6556,0.0,0.0,0.0,0.0,0.0,0.0,0.0,0.0,0.0,0.0,0.0,0.0,0.0,0.0,0.0,0.0,3.912,0.0,0.0,0.0,0.0,0.0,0.0,0.0,0.0,0.0,0.0,0.0,4.6521,4.6949,4.747,4.7724,4.7677,4.749,4.709,4.636,4.5719,4.5067,4.4476,4.4119,4.3929,4.4039,4.3955,4.3844,4.3764,4.3764,4.3844,4.3899,4.3764,4.3764,4.3764,4.3844,4.3929,4.4341,4.6943,4.7915,4.8318,5.046,5.1229,5.1229,5.1229,5.1229,5.1229,5.1229,5.1229,5.1229,5.1229,5.1229,5.1229,5.1229,5.1229,5.1229,5.1229,5.1349,5.1439,5.1259,5.1349,5.1439,5.1259,5.1229,5.1229,5.1229,5.1229,5.1229,5.1229,5.1229,5.1229,5.1229,5.1229,5.1229,5.1229,5.1229,5.1229,5.1229,5.1229,5.1229,5.1229,5.1229,5.1229,5.1229,5.1229,5.1229,5.1229,5.1229,5.1229,5.1229,5.1229,5.1229,5.1229,5.1229,5.1229,0.0,0.0,0.0,3.6556,0.0,0.0,0.0,0.0,3.7161,0.0,0.0,0.0,0.0,0.0,3.814,3.8743,0.0,0.0,0.0,0.0,0.0,0.0,0.0,0.0,0.0,0.0,0.0,0.0,0.0,0.0,4.6385,4.6437,4.6868,4.7677,4.7677,4.7134,4.6021,4.5995,4.5257,4.3955,4.3899,4.3708,4.3462,4.3764,4.3708,4.3406,4.3406,4.3572,4.3899,4.3517,4.3406,4.3462,4.3764,4.3708,4.3768,4.6501,4.7735,4.8318,5.046,5.1229,5.1229,5.1229,5.1229,5.1229,5.1229,5.1229,5.1229,5.1229,5.1229,5.1229,5.1229,5.1229,5.1229,5.1229,5.1708,5.2007,5.1349,5.1708,5.1977,5.1349,5.1229,5.1229,5.1229,5.1229,5.1229,5.1229,5.1229,5.1229,5.1229,5.1229,5.1229,5.1229,5.1229,5.1229,5.1229,5.1229,5.1229,5.1229,5.1229,5.1229,5.1229,5.1229,5.1229,5.1229,5.1229,5.1229,5.1229,5.1229,5.1229,5.1229,5.1229,5.1229,0.0,0.0,3.7588,3.7036,0.0,0.0,0.0,0.0,0.0,0.0,0.0,0.0,0.0,0.0,3.8191,3.8768,3.8919,0.0,0.0,0.0,0.0,0.0,0.0,0.0,0.0,0.0,0.0,0.0,4.437,0.0,0.0,4.5617,4.5866,4.5988,4.6187,4.5942,4.5145,4.4945,4.4561,4.3899,4.3487,4.3376,4.3381,4.3295,4.3265,4.3129,4.3129,4.3209,4.3321,4.3184,4.3129,4.3129,4.3265,4.3793,4.4778,4.6632,4.7457,4.8066,5.0412,5.1229,5.1229,5.1229,5.1229,5.1229,5.1229,5.1229,5.1229,5.1229,5.1229,5.1229,5.1229,5.1229,5.1229,5.1229,5.1708,5.2007,5.1349,5.1738,5.2007,5.1349,5.1229,5.1229,5.1229,5.1229,5.1229,5.1229,5.1229,5.1229,5.1229,5.1229,5.1229,5.1229,5.1229,5.1229,5.1229,5.1229,5.1229,5.1229,5.1229,5.1229,5.1229,5.1229,5.1229,5.1229,5.1229,5.1229,5.1229,5.1229,5.1229,5.1229,5.1229,5.1229,3.6405,3.7161,0.0,3.7312,3.7739,0.0,3.7613,0.0,0.0,0.0,0.0,0.0,0.0,0.0,0.0,3.9094,3.917,0.0,0.0,3.9572,0.0,0.0,0.0,0.0,0.0,0.0,4.2635,4.3162,4.3437,0.0,0.0,0.0,4.5018,4.5081,4.5336,4.5113,4.4525,4.4382,4.4046,4.3543,4.3209,4.3073,4.324,4.3073,4.2986,4.2986,4.2986,4.2986,4.2986,4.2986,4.2986,4.2986,4.2986,4.3547,4.4561,4.6347,4.774,4.8964,5.0603,5.1105,5.1058,5.1182,5.1105,5.1058,5.1182,5.1229,5.1229,5.1229,5.1229,5.1229,5.1229,5.1229,5.1229,5.1229,5.1887,5.2366,5.1708,5.2276,5.2725,5.2037,5.1917,5.1917,5.1917,5.1917,5.1768,5.1289,5.1229,5.1229,5.1229,5.1229,5.1229,5.1229,5.1229,5.1229,5.1229,5.1229,5.1229,5.1229,5.1229,5.1229,5.1229,5.1229,5.1229,5.1229,5.1229,5.1229,5.1229,5.1229,5.1229,5.1229,5.1229,5.1229]}]]